     2              OBSERVATION DATA    GPS                 RINEX VERSION / TYPE
ASHTORIN MIT 09                                             PGM / RUN BY / DATE
                                                            COMMENT
Original Marker Name: JUNC                                  COMMENT
Campaign Name: STRC/NBC 1997                                COMMENT
4-Character Station Name: JUNC                              COMMENT
6-Character Antenna Code: DMRCHT                            COMMENT
Vertical Measurement Point: BCR                             COMMENT
Vertical Offset to Rinex Ref. Point: 0.0349                 COMMENT
Radial Measurement Point: ECF                               COMMENT
Radial Offset to Rinex Ref. Point: 0.1896                   COMMENT
Antenna Height from Field Measurement: 1.1230 m             COMMENT
Additional Antenna Identification Info.:                    COMMENT
Turborogue and Ashtech Choke Ring                           COMMENT
Original XYZ: 0.0000 0.0000 0.0000                          COMMENT
New XYZ position is based on association with SCEC monument COMMENT
E1C9N1F4+0011. Position of that monument is believed to be  COMMENT
valid to within 1 m horizontally; vertical accuracy         COMMENT
should be no worse than 3-times this value.                 COMMENT
                                                            COMMENT
Revised Rinex header created by UCSD GPS archive for        COMMENT
GSAC on 12-Apr-1999 (1999:102) 00:55:17 GMT                 COMMENT
For assistance contact dagnew@ucsd.edu or hjohnson@ucsd.edu COMMENT
                                                            COMMENT
JUNCTION 1934 DOT                                           MARKER NAME
                                                            MARKER NUMBER
DBM UNAVCO                                                  OBSERVER / AGENCY
385 ASHTECH Z12-XII3 1E951D0                                REC # / TYPE / VERS
653 DORNE-MARGOL. TYPE T                                    ANT # / TYPE
 -2275559.0000 -4866208.0000  3426870.0000                  APPROX POSITION XYZ
        1.0720        0.0000        0.0000                  ANTENNA: DELTA H/E/N
     1     1     0                                          WAVELENGTH FACT L1/2
     7    L1    L2    C1    P1    P2    D1    D2            # / TYPES OF OBSERV
    30                                                      INTERVAL
  1997     3     6    15    49   30.000000                  TIME OF FIRST OBS
  1997     3     6    23    59   30.000000                  TIME OF LAST OBS
     0                                                      # OF SATELLITES
                                                            END OF HEADER
 97  3  6 15 49 30.0000000  0  8 18  3 29 31 22 14 19 16             0.000000000
   -214792.82919   -140746.14952         0.000           0.0005          0.0005
        -0.000          -0.000
   -200757.93619   -138045.89956  23918688.081    23918688.4175   23918694.4295
        -0.000          -0.000
     85195.16619     60882.17258  21945805.705    21945805.3955   21945810.3905
        -0.000          -0.000
   -292776.45619   -209948.26455         0.000           0.0005   24361874.4865
        -0.000          -0.000
    185487.36619    134143.68157  22796075.939    22796075.0665   22796080.4675
        -0.000          -0.000
    165064.10119    112257.59557  22058130.025    22058130.0955   22058136.1945
        -0.000          -0.000
   -185622.31419   -132856.78558  21948130.312    21948129.7365   21948135.3275
        -0.000          -0.000
     44816.36119     31100.98352         0.000           0.0005          0.0005
        -0.000          -0.000
 97  3  6 15 50  0.0000000  0  8 18  3 29 31 22 14 19 16             0.000480831
   -294114.69619    -12933.58056         0.000           0.0005   21108068.2855
        -0.000          -0.000
   -278217.291 9   -198403.78646  23903948.469    23903947.4314   23903954.5404
        -0.000          -0.000
    117212.559 9     85830.75948  21951898.373    21951898.1174   21951903.0674
        -0.000          -0.000
   -401696.74719   -294821.14845  24341141.855    24341139.2805   24341146.7204
        -0.000          -0.000
    255422.528 9    188638.58847  22809384.375    22809383.2924   22809388.7314
        -0.000          -0.000
    234848.742 9    166635.18848  22071410.348    22071409.6614   22071415.8624
        -0.000          -0.000
   -254239.187 9   -186324.46248  21935072.886    21935072.3664   21935077.9744
        -0.000          -0.000
     61289.35319      7652.08358         0.000           0.0005   21031701.1345
        -0.000          -0.000
 97  3  6 15 50 30.0000000  0  8 18  3 29 31 22 14 19 16             0.000467218
   -373293.28919    -74631.18548  21092996.151    21092995.7735   21093000.7634
        -0.000          -0.000
   -355502.408 9   -258625.93246  23889241.760    23889240.6834   23889247.5724
        -0.000          -0.000
    149460.090 9    110958.67548  21958034.962    21958034.6594   21958039.6414
        -0.000          -0.000
   -510734.240 8   -379785.35445  24320392.223    24320390.4644   24320397.9784
        -0.000          -0.000
    325555.910 9    243287.95647  22822730.338    22822729.2334   22822734.7034
        -0.000          -0.000
    304850.811 9    221182.19848  22084731.222    22084730.5794   22084736.7764
        -0.000          -0.000
   -322786.602 9   -239738.01648  21922028.719    21922028.2464   21922033.8764
        -0.000          -0.000
     78187.59619     20819.51748  21034911.554    21034910.6145   21034916.7634
        -0.000          -0.000
 97  3  6 15 51  0.0000000  0  9 18  3 29 31 27 22 14 19 16          0.000453523
   -452332.944 9   -136220.52348  21077955.429    21077954.9754   21077960.0414
        -0.000          -0.000
   -432624.778 9   -318721.25346  23874565.652    23874564.7434   23874571.4814
        -0.000          -0.000
    181925.290 9    136256.19548  21964212.914    21964212.6024   21964217.6274
        -0.000          -0.000
   -619881.682 9   -464835.22546  24299621.789    24299620.5734   24299628.0224
        -0.000          -0.000
   -229218.83618   -153718.22052         0.000           0.0005          0.0005
        -0.000          -0.000
    395868.442 9    298076.91047  22836110.252    22836109.2704   22836114.7554
        -0.000          -0.000
    375080.066 9    275906.24048  22098095.402    22098094.8074   22098101.0134
        -0.000          -0.000
   -391264.777 9   -293097.61948  21908997.773    21908997.2774   21909002.9254
        -0.000          -0.000
     95512.485 9     34319.40149  21038208.348    21038207.4924   21038213.5954
        -0.000          -0.000
 97  3  6 15 51 30.0000000  0  9 18  3 29 31 27 22 14 19 16          0.000439650
   -531235.703 9   -197703.18748  21062940.721    21062940.2804   21062945.3324
        -0.000          -0.000
   -509572.532 9   -378680.51246  23859922.929    23859922.1594   23859928.7354
        -0.000          -0.000
    214605.185 9    161721.01348  21970431.769    21970431.4574   21970436.4454
        -0.000          -0.000
   -729128.980 8   -549962.89046  24278832.374    24278831.2654   24278839.0774
        -0.000          -0.000
   -324311.06219   -227816.05755         0.000           0.0005   24969623.5265
        -0.000          -0.000
    466357.513 9    353003.41947  22849523.850    22849522.9154   22849528.4364
        -0.000          -0.000
    445537.344 9    330807.95947  22111503.011    22111502.4354   22111508.6634
        -0.000          -0.000
   -459662.328 9   -346394.39948  21895982.216    21895981.7174   21895987.3564
        -0.000          -0.000
    113283.670 9     48167.04849  21041590.109    21041589.3014   21041595.3584
        -0.000          -0.000
 97  3  6 15 52  0.0000000  0  9 18  3 29 31 27 22 14 19 16          0.000425831
   -609995.497 9   -259074.45449  21047953.242    21047952.8054   21047957.8624
        -0.000          -0.000
   -586330.610 9   -438491.97646  23845316.379    23845315.6614   23845322.0824
        -0.000          -0.000
    247512.682 9    187363.17448  21976693.904    21976693.5914   21976698.5994
        -0.000          -0.000
   -838467.197 9   -635161.41446  24258025.701    24258024.6894   24258032.6244
        -0.000          -0.000
   -419433.11919   -301937.16346  24951515.584    24951515.7055   24951522.7814
        -0.000          -0.000
    537004.814 9    408053.23847  22862967.699    22862966.7174   22862972.1814
        -0.000          -0.000
    516209.895 9    385877.42147  22124951.578    22124951.0154   22124957.2544
        -0.000          -0.000
   -527971.022 9   -399621.94148  21882983.520    21882983.0164   21882988.6634
        -0.000          -0.000
    131514.505 9     62372.86149  21045059.351    21045058.5394   21045064.5984
        -0.000          -0.000
 97  3  6 15 52 30.0000000  0  9 18  3 29 31 27 22 14 19 16          0.000411947
   -688603.073 9   -320327.11149  21032994.793    21032994.3214   21032999.3774
        -0.000          -0.000
   -662871.291 9   -498134.02546  23830751.082    23830750.4554   23830756.8854
        -0.000          -0.000
    280648.240 9    213183.04948  21982999.402    21982999.1064   21983004.0874
        -0.000          -0.000
   -947884.926 9   -720421.89946  24237203.988    24237203.0334   24237210.9724
        -0.000          -0.000
   -514584.815 9   -376081.34546  24933409.117    24933408.4414   24933415.8044
        -0.000          -0.000
    607823.650 9    463236.72547  22876444.108    22876443.1574   22876448.6024
        -0.000          -0.000
    587103.688 9    441119.28047  22138442.227    22138441.7064   22138447.9784
        -0.000          -0.000
   -596177.976 9   -452770.20648  21870004.179    21870003.6914   21870009.3374
        -0.000          -0.000
    150210.021 9     76940.76649  21048617.059    21048616.2264   21048622.3014
        -0.000          -0.000
 97  3  6 15 53  0.0000000  0  9 18  3 29 31 27 22 14 19 16          0.000398015
   -767033.767 9   -381441.93849  21018069.922    21018069.4634   21018074.5194
        -0.000          -0.000
   -739180.304 9   -557595.56146  23816229.792    23816229.1984   23816235.7774
        -0.000          -0.000
    314010.379 9    239179.48148  21989348.081    21989347.8014   21989352.7754
        -0.000          -0.000
  -1057372.168 9   -805736.55646  24216369.237    24216368.4474   24216376.2094
        -0.000          -0.000
   -609744.667 9   -450231.89446  24915300.790    24915300.2674   24915307.4774
        -0.000          -0.000
    678847.398 9    518579.86347  22889959.520    22889958.5814   22889964.0584
        -0.000          -0.000
    658219.034 9    496533.77447  22151975.024    22151974.5474   22151980.8524
        -0.000          -0.000
   -664267.877 9   -505827.26048  21857047.151    21857046.6724   21857052.2904
        -0.000          -0.000
    169375.096 9     91874.55949  21052264.080    21052263.2414   21052269.3464
        -0.000          -0.000
 97  3  6 15 53 30.0000000  0  9 18  3 29 31 27 22 14 19 16          0.000384049
   -845278.640 9   -442411.96849  21003180.502    21003180.0014   21003185.0654
        -0.000          -0.000
   -815234.674 9   -616858.67446  23801757.195    23801756.5774   23801763.1014
        -0.000          -0.000
    347603.639 9    265356.00448  21995740.714    21995740.4264   21995745.4294
        -0.000          -0.000
  -1166918.789 9   -891097.45945  24195523.062    24195522.3784   24195530.1034
        -0.000          -0.000
   -704908.845 9   -524385.80746  24897191.757    24897191.2334   24897198.2884
        -0.000          -0.000
    750102.414 9    574103.22547  22903518.870    22903517.9454   22903523.4534
        -0.000          -0.000
    729554.902 9    552120.10547  22165549.821    22165549.3694   22165555.7234
        -0.000          -0.000
   -732232.351 9   -558786.58148  21844113.992    21844113.4754   21844119.0884
        -0.000          -0.000
    189003.989 9    107169.76949  21055999.374    21055998.5454   21056004.6294
        -0.000          -0.000
 97  3  6 15 54  0.0000000  0  9 18  3 29 31 27 22 14 19 16          0.000370053
   -923314.765 9   -503219.34049  20988330.737    20988330.2414   20988335.3194
        -0.000          -0.000
   -891021.471 9   -675913.29046  23787335.418    23787334.8014   23787341.3944
        -0.000          -0.000
    381430.829 9    291714.80648  22002177.848    22002177.5694   22002182.5634
        -0.000          -0.000
  -1276519.844 9   -976500.83545  24174666.859    24174666.1364   24174673.6734
        -0.000          -0.000
   -800072.527 9   -598539.36545  24879082.749    24879082.2204   24879089.2694
        -0.000          -0.000
    821597.429 9    629813.59447  22917124.017    22917123.0164   22917128.6094
        -0.000          -0.000
    801123.350 9    607887.66047  22179168.860    22179168.4314   22179174.7994
        -0.000          -0.000
   -800067.517 9   -611645.14748  21831205.434    21831204.9114   21831210.4944
        -0.000          -0.000
    209091.578 9    122822.40249  21059821.950    21059821.1394   21059827.2254
        -0.000          -0.000
 97  3  6 15 54 30.0000000  0  9 18  3 29 31 27 22 14 19 16          0.000356035
  -1001131.619 9   -563855.85049  20973522.676    20973522.1834   20973527.2824
        -0.000          -0.000
   -966548.068 9   -734765.15246  23772963.201    23772962.6414   23772968.9844
        -0.000          -0.000
    415482.122 9    318248.23648  22008657.654    22008657.3934   22008662.3724
        -0.000          -0.000
  -1386178.059 9  -1061948.71845  24153799.531    24153798.8944   24153806.3624
        -0.000          -0.000
   -895218.432 9   -672679.02545  24860976.974    24860976.5744   24860983.6184
        -0.000          -0.000
    893357.713 9    685730.66147  22930779.650    22930778.6624   22930784.2194
        -0.000          -0.000
    872945.790 9    663853.13747  22192836.312    22192835.8204   22192842.1834
        -0.000          -0.000
   -867767.873 9   -664398.66148  21818322.481    21818321.9404   21818327.5774
        -0.000          -0.000
    229639.530 9    138833.75849  21063732.167    21063731.3624   21063737.4354
        -0.000          -0.000
 97  3  6 15 55  0.0000000  0  9 18  3 29 31 27 22 14 19 16          0.000341987
  -1078729.277 9   -624321.55949  20958756.345    20958755.8654   20958760.9484
        -0.000          -0.000
  -1041824.505 9   -793422.08646  23758638.560    23758638.0184   23758644.3664
        -0.000          -0.000
    449768.766 9    344965.05248  22015182.261    22015182.0064   22015186.9764
        -0.000          -0.000
  -1495889.588 9  -1147438.13745  24132922.024    24132921.3364   24132928.9214
        -0.000          -0.000
   -990347.190 9   -746805.33145  24842874.610    24842874.0964   24842881.1784
        -0.000          -0.000
    965371.456 9    741845.24247  22944483.405    22944482.4354   22944487.9984
        -0.000          -0.000
    945030.908 9    720023.29447  22206553.670    22206553.2234   22206559.6034
        -0.000          -0.000
   -935348.830 9   -717059.13748  21805462.271    21805461.7534   21805467.3754
        -0.000          -0.000
    250657.220 9    155211.14449  21067731.728    21067730.9234   21067737.0174
        -0.000          -0.000
 97  3  6 15 55 30.0000000  0  9 18  3 29 31 27 22 14 19 16          0.000327892
  -1156108.586 9   -684617.12549  20944031.585    20944031.0994   20944036.1734
        -0.000          -0.000
  -1116843.890 9   -851878.72746  23744362.796    23744362.2604   23744368.6874
        -0.000          -0.000
    484302.404 9    371874.32948  22021753.865    22021753.6074   22021758.5664
        -0.000          -0.000
  -1605661.292 9  -1232974.44845  24112033.208    24112032.5374   24112039.9224
        -0.000          -0.000
  -1085477.307 9   -820932.72045  24824771.982    24824771.5284   24824778.6204
        -0.000          -0.000
   1037597.999 9    798125.63247  22958227.770    22958226.7504   22958232.3244
        -0.000          -0.000
   1017373.649 9    776394.19447  22220320.065    22220319.6334   22220326.0174
        -0.000          -0.000
  -1002823.218 9   -769636.57448  21792622.337    21792621.8024   21792627.4584
        -0.000          -0.000
    272144.834 9    171954.70149  21071820.717    21071819.9224   21071825.9934
        -0.000          -0.000
 97  3  6 15 56  0.0000000  0  9 18  3 29 31 27 22 14 19 16          0.000313749
  -1233247.309 9   -744725.22049  20929352.628    20929352.1314   20929357.1964
        -0.000          -0.000
  -1191607.952 9   -910136.39846  23730135.654    23730135.1394   23730141.5724
        -0.000          -0.000
    519097.319 9    398987.20148  22028375.148    22028374.8934   22028379.8744
        -0.000          -0.000
  -1715475.911 9  -1318544.16345  24091135.988    24091135.4144   24091142.9884
        -0.000          -0.000
  -1180594.235 9   -895049.83345  24806671.909    24806671.4194   24806678.4994
        -0.000          -0.000
   1110032.298 9    854567.91447  22972011.509    22972010.5484   22972016.1464
        -0.000          -0.000
   1089975.219 9    832966.78547  22234135.738    22234135.3084   22234141.7364
        -0.000          -0.000
  -1070184.042 9   -822125.51648  21779803.959    21779803.4464   21779809.1074
        -0.000          -0.000
    294118.370 9    189076.90349  21076002.209    21076001.4084   21076007.5064
        -0.000          -0.000
 97  3  6 15 56 30.0000000  0  9 18  3 29 31 27 22 14 19 16          0.000299563
  -1310144.898 9   -804645.42249  20914719.531    20914719.0414   20914724.0704
        -0.000          -0.000
  -1266120.596 9   -968198.16946  23715956.385    23715955.8644   23715962.3094
        -0.000          -0.000
    554175.302 9    426320.64948  22035050.336    22035050.0824   22035055.0584
        -0.000          -0.000
  -1825311.818 9  -1404130.51045  24070234.858    24070234.2044   24070241.8634
        -0.000          -0.000
  -1275695.788 9   -969154.94945  24788574.777    24788574.2574   24788581.2484
        -0.000          -0.000
   1182683.758 9    911179.41247  22985836.744    22985835.7574   22985841.3354
        -0.000          -0.000
   1162829.911 9    889736.61847  22247999.660    22247999.1714   22248005.6024
        -0.000          -0.000
  -1137419.430 9   -874516.72248  21767009.449    21767008.9834   21767014.6274
        -0.000          -0.000
    316589.323 9    206586.70349  21080278.345    21080277.5374   21080283.6484
        -0.000          -0.000
 97  3  6 15 57  0.0000000  0  9 18  3 29 31 27 22 14 19 16          0.000285339
  -1386801.918 9   -864378.16849  20900132.245    20900131.7304   20900136.7614
        -0.000          -0.000
  -1340366.952 9  -1026052.43146  23701827.842    23701827.2764   23701833.6944
        -0.000          -0.000
    589560.142 9    453893.20248  22041783.899    22041783.6514   22041788.6344
        -0.000          -0.000
  -1935153.156 9  -1489721.05845  24049332.755    24049332.1244   24049339.7174
        -0.000          -0.000
  -1370774.736 9  -1043242.45845  24770481.841    24770481.2434   24770488.4604
        -0.000          -0.000
   1255547.457 9    967956.28847  22999702.256    22999701.2584   22999706.8674
        -0.000          -0.000
   1235919.534 9    946689.49247  22261908.248    22261907.7324   22261914.2274
        -0.000          -0.000
  -1204518.942 9   -926802.04648  21754240.886    21754240.4034   21754246.0294
        -0.000          -0.000
    339562.892 9    224488.14649  21084650.107    21084649.3214   21084655.4164
        -0.000          -0.000
 97  3  6 15 57 30.0000000  0  9 18  3 29 31 27 22 14 19 16          0.000271091
  -1463214.021 9   -923920.06849  20885591.511    20885591.0064   20885596.0024
        -0.000          -0.000
  -1414342.235 9  -1083695.47746  23687750.731    23687750.2124   23687756.6804
        -0.000          -0.000
    625246.592 9    481700.77848  22048574.884    22048574.6194   22048579.6324
        -0.000          -0.000
  -2044990.838 9  -1575308.80145  24028431.411    24028430.8144   24028438.0964
        -0.000          -0.000
  -1465815.789 9  -1117300.43345  24752396.217    24752395.4644   24752402.7384
        -0.000          -0.000
   1328635.657 9   1024908.09847  23013610.576    23013609.5194   23013615.1204
        -0.000          -0.000
   1309234.177 9   1003817.71647  22275859.598    22275859.1144   22275865.6284
        -0.000          -0.000
  -1271468.621 9   -978970.61548  21741500.762    21741500.3024   21741505.9154
        -0.000          -0.000
    363030.630 9    242774.66049  21089115.913    21089115.1194   21089121.2484
        -0.000          -0.000
 97  3  6 15 58  0.0000000  0  9 18  3 29 31 27 22 14 19 16          0.000256833
  -1539390.689 9   -983278.51449  20871095.592    20871095.0924   20871100.1054
        -0.000          -0.000
  -1488055.557 9  -1141134.39046  23673723.569    23673723.0634   23673729.4554
        -0.000          -0.000
    661235.140 9    509743.75048  22055423.335    22055423.0684   22055428.1024
        -0.000          -0.000
  -2154810.914 9  -1660882.79345  24007533.273    24007532.6814   24007539.9604
        -0.000          -0.000
  -1560807.087 9  -1191319.64045  24734319.965    24734319.2474   24734326.5404
        -0.000          -0.000
   1401973.697 9   1082054.58447  23027566.545    23027565.3684   23027570.9094
        -0.000          -0.000
   1382776.560 9   1061123.40347  22289854.317    22289853.8454   22289860.3504
        -0.000          -0.000
  -1338255.540 9  -1031012.35948  21728791.613    21728791.1614   21728796.8104
        -0.000          -0.000
    386975.003 9    261432.57749  21093672.423    21093671.6354   21093677.7714
        -0.000          -0.000
 97  3  6 15 58 30.0000000  0  9 18  3 29 31 27 22 14 19 16          0.000242568
  -1615337.967 9  -1042458.21349  20856643.335    20856642.8364   20856647.8304
        -0.000          -0.000
  -1561498.180 9  -1198362.36346  23659747.811    23659747.4184   23659753.8334
        -0.000          -0.000
    697541.990 9    538034.75048  22062332.353    22062332.1154   22062337.1554
        -0.000          -0.000
  -2264611.383 8  -1746441.55245  23986638.957    23986638.3454   23986645.6564
        -0.000          -0.000
  -1655747.539 9  -1265299.24145  24716253.364    24716252.7944   24716259.8614
        -0.000          -0.000
   1475559.789 9   1139394.36347  23041569.573    23041568.4244   23041573.8714
        -0.000          -0.000
   1456564.989 9   1118620.80847  22303895.846    22303895.4244   22303901.9364
        -0.000          -0.000
  -1404860.509 9  -1082912.32348  21716117.135    21716116.6954   21716122.3214
        -0.000          -0.000
    411393.448 9    280459.89649  21098319.107    21098318.3284   21098324.4644
        -0.000          -0.000
 97  3  6 15 59  0.0000000  0  9 18  3 29 31 27 22 14 19 16          0.000228296
  -1691039.294 9  -1101446.26449  20842237.915    20842237.3894   20842242.3774
        -0.000          -0.000
  -1634656.465 9  -1255368.77946  23645826.327    23645825.9054   23645832.3544
        -0.000          -0.000
    734157.859 9    566566.54448  22069300.203    22069299.9614   22069304.9934
        -0.000          -0.000
  -2374385.510 8  -1831979.74545  23965749.574    23965748.8884   23965756.2984
        -0.000          -0.000
  -1750631.525 9  -1339234.85045  24698197.763    24698197.0544   24698204.0454
        -0.000          -0.000
   1549375.769 9   1196913.27647  23055616.217    23055615.1794   23055620.6804
        -0.000          -0.000
   1530606.654 9   1176315.54047  22317985.617    22317985.2004   22317991.6714
        -0.000          -0.000
  -1471272.181 9  -1134661.66748  21703479.424    21703479.0044   21703484.6374
        -0.000          -0.000
    436285.571 9    299856.31849  21103055.960    21103055.1694   21103061.3054
        -0.000          -0.000
 97  3  6 15 59 30.0000000  0  9 18  3 29 31 27 22 14 19 16          0.000214005
  -1766498.001 9  -1160245.26049  20827878.608    20827878.1004   20827883.1034
        -0.000          -0.000
  -1707541.279 9  -1312162.11046  23631956.806    23631956.3774   23631962.8234
        -0.000          -0.000
    771048.988 9    595312.82948  22076320.458    22076320.1724   22076325.1964
        -0.000          -0.000
  -2484144.182 9  -1917505.91145  23944863.157    23944862.4264   23944869.8314
        -0.000          -0.000
  -1845475.948 9  -1413139.59945  24680149.429    24680148.6494   24680155.8524
        -0.000          -0.000
   1623385.079 9   1254582.83846  23069699.770    23069698.7404   23069704.2064
        -0.000          -0.000
   1604884.421 9   1234194.24547  22332120.289    22332119.8554   22332126.3654
        -0.000          -0.000
  -1537514.474 9  -1186279.02748  21690873.952    21690873.5114   21690879.1154
        -0.000          -0.000
    461626.383 9    319602.36549  21107878.206    21107877.4104   21107883.5874
        -0.000          -0.000
 97  3  6 16  0  0.0000000  0  9 18  3 29 31 27 22 14 19 16          0.000199696
  -1841692.552 9  -1218838.42349  20813569.584    20813569.0964   20813574.0744
        -0.000          -0.000
  -1780129.773 9  -1368724.52846  23618143.664    23618143.2604   23618149.6724
        -0.000          -0.000
    808224.417 9    624280.65048  22083394.706    22083394.4844   22083399.5134
        -0.000          -0.000
  -2593877.536 9  -2003012.36745  23923981.585    23923980.8834   23923988.0614
        -0.000          -0.000
  -1940276.073 8  -1487009.80845  24662109.496    24662108.7684   24662116.0714
        -0.000          -0.000
   1697588.624 9   1312403.74846  23083820.215    23083819.2244   23083824.7134
        -0.000          -0.000
   1679410.090 9   1292266.11747  22346302.118    22346301.6874   22346308.1834
        -0.000          -0.000
  -1603584.721 9  -1237762.32748  21678301.255    21678300.7754   21678306.3884
        -0.000          -0.000
    487430.881 9    339709.72348  21112788.685    21112787.8914   21112794.0654
        -0.000          -0.000
 97  3  6 16  0 30.0000000  0  9 18  3 29 31 27 22 14 19 16          0.000185353
  -1916614.860 9  -1277219.44549  20799312.396    20799311.8964   20799316.8734
        -0.000          -0.000
  -1852414.184 9  -1425050.00546  23604388.454    23604387.9924   23604394.4814
        -0.000          -0.000
    845652.176 9    653445.08648  22090517.047    22090516.8134   22090521.8214
        -0.000          -0.000
  -2703595.700 9  -2088506.96046  23903102.796    23903102.1274   23903109.4514
        -0.000          -0.000
  -2035049.078 9  -1560858.90045  24644074.755    24644074.1724   24644081.4094
        -0.000          -0.000
   1771959.004 9   1370354.66246  23097972.537    23097971.4674   23097976.9834
        -0.000          -0.000
   1754165.465 9   1350516.99347  22360527.692    22360527.2494   22360533.7354
        -0.000          -0.000
  -1669515.901 9  -1289137.26548  21665755.013    21665754.5204   21665760.0934
        -0.000          -0.000
    513711.611 9    360188.17648  21117789.803    21117789.0294   21117795.2104
        -0.000          -0.000
 97  3  6 16  1  0.0000000  0  9 18  3 29 31 27 22 14 19 16          0.000170982
  -1991253.654 9  -1335379.54949  20785109.141    20785108.6394   20785113.6124
        -0.000          -0.000
  -1924380.381 9  -1481127.52146  23590693.691    23590693.2244   23590699.7404
        -0.000          -0.000
    883307.755 9    682787.04648  22097682.782    22097682.5134   22097687.5274
        -0.000          -0.000
  -2813297.367 9  -2173988.73546  23882227.282    23882226.5884   23882233.9084
        -0.000          -0.000
  -2129792.893 8  -1634685.25345  24626045.728    24626045.0244   24626052.2254
        -0.000          -0.000
   1846495.308 9   1428434.86346  23112156.461    23112155.3284   23112160.8034
        -0.000          -0.000
   1829123.887 9   1408926.08047  22374791.916    22374791.4544   22374797.9474
        -0.000          -0.000
  -1735339.758 9  -1340428.57348  21653229.192    21653228.6924   21653234.2764
        -0.000          -0.000
    540460.647 9    381031.53848  21122880.017    21122879.2454   21122885.4374
        -0.000          -0.000
 97  3  6 16  1 30.0000000  0  9 18  3 29 31 27 22 14 19 16          0.000156577
  -2065624.025 9  -1393330.49449  20770956.983    20770956.4664   20770961.4344
        -0.000          -0.000
  -1996020.589 9  -1536951.02846  23577060.929    23577060.4604   23577067.0374
        -0.000          -0.000
    921194.694 9    712309.28848  22104892.439    22104892.1624   22104897.1874
        -0.000          -0.000
  -2922988.318 9  -2259462.13246  23861353.702    23861353.0094   23861360.3664
        -0.000          -0.000
  -2224525.495 8  -1708502.87545  24608018.606    24608018.0144   24608025.2234
        -0.000          -0.000
   1921217.505 9   1486659.92546  23126375.722    23126374.5634   23126380.0294
        -0.000          -0.000
   1904276.500 9   1467486.47847  22389093.028    22389092.5844   22389099.0794
        -0.000          -0.000
  -1801067.744 9  -1391645.17648  21640721.541    21640721.0514   21640726.6434
        -0.000          -0.000
    567674.332 9    402236.97048  21128058.694    21128057.8904   21128064.0834
        -0.000          -0.000
 97  3  6 16  2  0.0000000  0  9 18  3 29 31 27 22 14 19 16          0.000142142
  -2139721.870 9  -1451069.07649  20756856.612    20756856.1074   20756861.0454
        -0.000          -0.000
  -2067320.592 9  -1592509.44446  23563492.913    23563492.4644   23563499.0564
        -0.000          -0.000
    959336.164 9    742029.86048  22112150.570    22112150.3074   22112155.3704
        -0.000          -0.000
  -3032660.130 9  -2344920.64346  23840483.864    23840483.1874   23840490.4824
        -0.000          -0.000
  -2319251.237 8  -1782315.14745  24589992.929    24589992.3734   24589999.5674
        -0.000          -0.000
   1996156.550 9   1545053.94946  23140636.148    23140635.0124   23140640.4894
        -0.000          -0.000
   1979643.473 9   1526213.91147  22403434.992    22403434.5444   22403441.0544
        -0.000          -0.000
  -1866682.077 9  -1442773.22248  21628235.528    21628235.0744   21628240.6714
        -0.000          -0.000
    595374.953 9    423821.83448  21133329.979    21133329.1814   21133335.4024
        -0.000          -0.000
 97  3  6 16  2 30.0000000  0  9 18  3 29 31 27 22 14 19 16          0.000127680
  -2213536.567 9  -1508587.02649  20742810.177    20742809.6624   20742814.5864
        -0.000          -0.000
  -2138282.171 9  -1647804.14546  23549989.344    23549988.9324   23549995.4614
        -0.000          -0.000
    997755.292 9    771966.78548  22119461.525    22119461.2554   22119466.3564
        -0.000          -0.000
  -3142296.643 9  -2430351.63546  23819620.664    23819619.9614   23819627.2614
        -0.000          -0.000
  -2413957.638 9  -1856112.32245  24571970.908    24571970.3494   24571977.4534
        -0.000          -0.000
   2071319.328 9   1603622.31846  23154939.088    23154938.0704   23154943.5094
        -0.000          -0.000
   2055228.433 9   1585111.20647  22417818.488    22417818.0074   22417824.5064
        -0.000          -0.000
  -1932156.228 9  -1493792.03448  21615776.257    21615775.7804   21615781.3514
        -0.000          -0.000
    623569.392 9    445791.48248  21138695.249    21138694.4564   21138700.6794
        -0.000          -0.000
 97  3  6 16  3  0.0000000  0  9 18  3 29 31 27 22 14 19 16          0.000113178
  -2287103.070 9  -1565911.57649  20728810.945    20728810.4234   20728815.3594
        -0.000          -0.000
  -2208949.764 9  -1702869.76646  23536541.838    23536541.3414   23536547.8624
        -0.000          -0.000
   1036445.110 9    802114.64747  22126824.015    22126823.7594   22126828.8644
        -0.000          -0.000
  -3251923.533 9  -2515775.13546  23798759.202    23798758.5534   23798765.9364
        -0.000          -0.000
  -2508663.631 9  -1929909.18445  24553949.057    24553948.4454   24553955.5634
        -0.000          -0.000
   2146679.557 9   1662344.53546  23169279.708    23169278.6524   23169284.1324
        -0.000          -0.000
   2131009.641 9   1644161.41947  22432239.220    22432238.7444   22432245.2784
        -0.000          -0.000
  -1997494.768 9  -1544705.17348  21603342.736    21603342.2774   21603347.8794
        -0.000          -0.000
    652219.961 9    468116.56048  21144147.319    21144146.5324   21144152.7734
        -0.000          -0.000
 97  3  6 16  3 30.0000000  0  9 18  3 29 31 27 22 14 19 16          0.000098633
  -2360437.382 9  -1623055.19849  20714855.902    20714855.3744   20714860.3214
        -0.000          -0.000
  -2279335.465 9  -1757715.73746  23523147.877    23523147.3544   23523153.8804
        -0.000          -0.000
   1075418.104 9    832483.16647  22134240.401    22134240.1144   22134245.2274
        -0.000          -0.000
  -3361541.144 9  -2601191.40646  23777899.511    23777898.9344   23777906.3704
        -0.000          -0.000
  -2603367.700 9  -2003704.56046  24535927.526    24535926.9814   24535934.0954
        -0.000          -0.000
   2222228.877 9   1721214.09946  23183656.180    23183655.2004   23183660.7454
        -0.000          -0.000
   2206997.121 9   1703372.36047  22446699.182    22446698.7744   22446705.3004
        -0.000          -0.000
  -2062683.501 9  -1595501.57648  21590937.734    21590937.2654   21590942.8904
        -0.000          -0.000
    681322.103 9    490793.51448  21149685.337    21149684.5584   21149690.7994
        -0.000          -0.000
 97  3  6 16  4  0.0000000  0  9 18  3 29 31 27 22 14 19 16          0.000084061
  -2433519.329 9  -1680002.17149  20700948.893    20700948.3724   20700953.3224
        -0.000          -0.000
  -2349445.731 9  -1812347.09646  23509806.413    23509805.8804   23509812.4114
        -0.000          -0.000
   1114670.191 9    863069.15747  22141709.889    22141709.5734   22141714.7344
        -0.000          -0.000
  -3471131.577 9  -2686586.51646  23757045.217    23757044.6004   23757052.0134
        -0.000          -0.000
  -2698032.511 9  -2077469.34446  24517913.437    24517912.8824   24517919.9794
        -0.000          -0.000
   2297952.652 9   1780219.60446  23198065.878    23198065.0044   23198070.5604
        -0.000          -0.000
   2283201.033 9   1762751.95547  22461200.308    22461199.9154   22461206.4834
        -0.000          -0.000
  -2127715.288 9  -1646175.68848  21578562.569    21578562.1124   21578567.7304
        -0.000          -0.000
    710877.797 9    513823.88748  21155309.667    21155308.8744   21155315.1124
        -0.000          -0.000
 97  3  6 16  4 30.0000000  0  9 18  3 29 31 27 22 14 19 16          0.000069477
  -2506328.911 9  -1736736.91149  20687093.690    20687093.1934   20687098.1434
        -0.000          -0.000
  -2419272.064 9  -1866757.19146  23496518.860    23496518.3494   23496524.9634
        -0.000          -0.000
   1154201.964 9    893873.08647  22149232.518    22149232.2554   22149237.4284
        -0.000          -0.000
  -3580680.570 9  -2771949.33146  23736198.811    23736198.1824   23736205.5654
        -0.000          -0.000
  -2792623.337 8  -2151176.45945  24499913.206    24499912.7634   24499919.8464
        -0.000          -0.000
   2373849.419 9   1839359.91046  23212508.638    23212507.7754   23212513.3384
        -0.000          -0.000
   2359628.522 9   1822305.76547  22475744.059    22475743.6664   22475750.2634
        -0.000          -0.000
  -2192577.746 9  -1696717.85048  21566219.643    21566219.1874   21566224.7974
        -0.000          -0.000
    740889.920 9    537209.92248  21161020.807    21161020.0114   21161026.2774
        -0.000          -0.000
 97  3  6 16  5  0.0000000  0  9 18  3 29 31 27 22 14 19 16          0.000054875
  -2578899.786 9  -1793285.65149  20673283.938    20673283.4544   20673288.3944
        -0.000          -0.000
  -2488806.654 9  -1920939.97746  23483286.868    23483286.3894   23483292.9374
        -0.000          -0.000
   1193992.494 9    924878.63847  22156804.443    22156804.1944   22156809.3764
        -0.000          -0.000
  -3690211.525 9  -2857298.09546  23715355.706    23715355.0224   23715362.4724
        -0.000          -0.000
  -2887165.385 9  -2224845.58446  24481922.602    24481922.0884   24481929.1244
        -0.000          -0.000
   2449907.214 9   1898625.68046  23226982.024    23226981.1264   23226986.7204
        -0.000          -0.000
   2436259.839 9   1882018.39047  22490326.602    22490326.1814   22490332.8034
        -0.000          -0.000
  -2257290.064 9  -1747143.02548  21553905.301    21553904.8424   21553910.4404
        -0.000          -0.000
    771335.816 9    560933.95348  21166814.508    21166813.7204   21166819.9764
        -0.000          -0.000
 97  3  6 16  5 30.0000000  0  9 18  3 29 31 27 22 14 19 16          0.000040263
  -2651208.655 9  -1849630.22649  20659524.055    20659523.5294   20659528.4764
        -0.000          -0.000
  -2558006.101 9  -1974861.59946  23470118.608    23470118.1164   23470124.6364
        -0.000          -0.000
   1234053.939 9    956095.30047  22164427.963    22164427.6764   22164432.8854
        -0.000          -0.000
  -3799702.390 9  -2942615.60946  23694520.243    23694519.5564   23694526.9214
        -0.000          -0.000
  -2981653.374 9  -2298472.57246  24463942.222    24463941.6364   24463948.6944
        -0.000          -0.000
   2526145.077 9   1958031.76546  23241489.689    23241488.6634   23241494.3314
        -0.000          -0.000
   2513100.893 9   1941894.45847  22504949.031    22504948.6384   22504955.2814
        -0.000          -0.000
  -2321837.882 9  -1797440.01948  21541622.293    21541621.8554   21541627.4374
        -0.000          -0.000
    802232.381 9    585009.16048  21172693.991    21172693.2104   21172699.4914
        -0.000          -0.000
 97  3  6 16  6  0.0000000  0  9 18  3 29 31 27 22 14 19 16          0.000025624
  -2723253.112 9  -1905768.76549  20645814.412    20645813.9204   20645818.8754
        -0.000          -0.000
  -2626882.030 9  -2028531.14246  23457011.960    23457011.4694   23457017.9934
        -0.000          -0.000
   1274362.481 9    987504.50147  22172098.459    22172098.2064   22172103.3964
        -0.000          -0.000
  -3909174.515 9  -3027918.50746  23673688.264    23673687.6174   23673695.0974
        -0.000          -0.000
  -3076112.195 9  -2372076.83946  24445967.169    24445966.6694   24445973.8114
        -0.000          -0.000
   2602547.644 9   2017566.20046  23256028.808    23256027.7074   23256033.3364
        -0.000          -0.000
   2590122.180 9   2001910.95347  22519605.740    22519605.3414   22519612.0084
        -0.000          -0.000
  -2386243.246 9  -1847626.01148  21529366.400    21529365.9404   21529371.5094
        -0.000          -0.000
    833570.177 9    609428.18348  21178657.436    21178656.6414   21178662.8884
        -0.000          -0.000
 97  3  6 16  6 30.0000000  0  9 18  3 29 31 27 22 14 19 16          0.000010940
  -2795052.388 9  -1961716.25449  20632151.494    20632151.0094   20632155.9574
        -0.000          -0.000
  -2695421.069 9  -2081938.17146  23443969.407    23443968.9484   23443975.4524
        -0.000          -0.000
   1314924.529 9   1019111.23547  22179817.222    22179816.9624   22179822.1214
        -0.000          -0.000
  -4018641.672 9  -3113217.55346  23652857.506    23652856.8684   23652864.1774
        -0.000          -0.000
  -3170581.635 9  -2445689.37146  24427990.347    24427989.8444   24427996.8184
        -0.000          -0.000
   2679112.578 9   2077227.14346  23270598.705    23270597.5904   23270603.2304
        -0.000          -0.000
   2667301.813 9   2062050.84247  22534292.629    22534292.2444   22534298.9134
        -0.000          -0.000
  -2450513.546 9  -1897706.75648  21517136.134    21517135.6974   21517141.2994
        -0.000          -0.000
    865346.157 9    634188.64548  21184704.241    21184703.4454   21184709.7164
        -0.000          -0.000
 97  3  6 16  7  0.0000000  0  9 18  3 29 31 27 22 14 19 16         -0.000003789
  -2866595.416 9  -2017464.06649  20618537.352    20618536.8444   20618541.7864
        -0.000          -0.000
  -2763611.798 9  -2135073.79946  23430993.209    23430992.7314   23430999.1574
        -0.000          -0.000
   1355752.123 9   1050924.88547  22187586.511    22187586.2634   22187591.4304
        -0.000          -0.000
  -4128087.671 9  -3198500.11546  23632030.635    23632030.0064   23632037.1984
        -0.000          -0.000
  -3265063.381 9  -2519311.47646  24410011.036    24410010.5424   24410017.5534
        -0.000          -0.000
   2755840.925 9   2137015.43046  23285199.704    23285198.5724   23285204.1564
        -0.000          -0.000
   2744633.831 9   2122309.46547  22549008.509    22549008.1164   22549014.7794
        -0.000          -0.000
  -2514659.973 9  -1947690.97648  21504929.472    21504929.0474   21504934.6594
        -0.000          -0.000
    897562.630 9    659292.34548  21190834.857    21190834.1014   21190840.3584
        -0.000          -0.000
 97  3  6 16  7 29.9990000  0  9 18  3 29 31 27 22 14 19 16         -0.000018565
  -2937863.032 9  -2072997.27849  20604975.560    20604975.0824   20604980.0114
        -0.000          -0.000
  -2831475.589 9  -2187954.64946  23418079.143    23418078.6314   23418085.0784
        -0.000          -0.000
   1396832.311 9   1082935.36347  22195403.849    22195403.6514   22195408.8344
        -0.000          -0.000
  -4237497.442 9  -3283754.44946  23611210.591    23611209.9594   23611217.1444
        -0.000          -0.000
  -3359547.062 9  -2592935.11746  24392031.270    24392030.7994   24392037.9054
        -0.000          -0.000
   2832714.452 9   2196916.84146  23299828.475    23299827.2354   23299832.7814
        -0.000          -0.000
   2822119.237 9   2182687.61847  22563753.597    22563753.1594   22563759.8544
        -0.000          -0.000
  -2578700.152 9  -1997592.40648  21492743.085    21492742.6244   21492748.2124
        -0.000          -0.000
    930216.490 9    684736.87148  21197048.745    21197047.9594   21197054.2534
        -0.000          -0.000
 97  3  6 16  7 59.9990000  0  9 18  3 29 31 27 22 14 19 16         -0.000033381
  -3008849.018 9  -2128311.03549  20591467.395    20591466.9044   20591471.8394
        -0.000          -0.000
  -2899017.339 9  -2240584.57546  23405226.302    23405225.8604   23405232.2894
        -0.000          -0.000
   1438182.138 9   1115155.94747  22203272.521    22203272.3044   22203277.4544
        -0.000          -0.000
  -4346860.423 9  -3368972.31746  23590399.521    23590398.8764   23590405.9644
        -0.000          -0.000
  -3454015.654 9  -2666546.99046  24374054.618    24374054.1234   24374061.2524
        -0.000          -0.000
   2909734.916 9   2256932.75446  23314484.953    23314483.8194   23314489.3674
        -0.000          -0.000
   2899783.700 9   2243205.29447  22578532.683    22578532.3274   22578538.9994
        -0.000          -0.000
  -2642633.618 9  -2047410.68748  21480576.975    21480576.5164   21480582.0884
        -0.000          -0.000
    963322.270 9    710533.53948  21203348.598    21203347.8384   21203354.1174
        -0.000          -0.000
 97  3  6 16  8 29.9990000  0  9 18  3 29 31 27 22 14 19 16         -0.000048232
  -3079559.353 9  -2183409.99849  20578011.669    20578011.1794   20578016.1104
        -0.000          -0.000
  -2966239.551 9  -2292965.51246  23392434.374    23392433.9354   23392440.3714
        -0.000          -0.000
   1479800.103 9   1147585.46847  22211192.162    22211191.9824   22211197.1664
        -0.000          -0.000
  -4456155.273 9  -3454137.09946  23569601.327    23569600.6954   23569607.7794
        -0.000          -0.000
  -3548468.821 9  -2740146.85946  24356080.809    24356080.3564   24356087.4114
        -0.000          -0.000
   2986893.538 9   2317056.32246  23329167.768    23329166.6144   23329172.2284
        -0.000          -0.000
   2977617.635 9   2303855.02147  22593344.142    22593343.7334   22593350.4054
        -0.000          -0.000
  -2706462.721 9  -2097147.64048  21468430.753    21468430.2754   21468435.8044
        -0.000          -0.000
    996856.353 9    736663.95148  21209729.988    21209729.2104   21209735.5084
        -0.000          -0.000
 97  3  6 16  8 59.9990000  0  9 18  3 29 31 27 22 14 19 16         -0.000063107
  -3149980.311 9  -2238283.47349  20564611.012    20564610.5064   20564615.4594
        -0.000          -0.000
  -3033146.786 9  -2345100.99646  23379702.395    23379701.9304   23379708.3534
        -0.000          -0.000
   1521680.086 9   1180219.15647  22219161.734    22219161.5244   22219166.7354
        -0.000          -0.000
  -4565366.146 9  -3539236.44546  23548819.205    23548818.5124   23548825.5974
        -0.000          -0.000
  -3642887.831 9  -2813720.12046  24338113.563    24338113.0954   24338120.0884
        -0.000          -0.000
   3064188.675 9   2377286.26646  23343876.628    23343875.4314   23343881.0264
        -0.000          -0.000
   3055619.495 9   2364635.59947  22608187.500    22608187.0774   22608193.7414
        -0.000          -0.000
  -2770180.316 9  -2146797.70848  21456305.702    21456305.2394   21456310.7334
        -0.000          -0.000
   1030813.853 9    763124.30248  21216191.936    21216191.1764   21216197.4514
        -0.000          -0.000
 97  3  6 16  9 29.9990000  0  9 18  3 29 31 27 22 14 19 16         -0.000078016
  -3220130.577 9  -2292946.02149  20551261.853    20551261.3684   20551266.3254
        -0.000          -0.000
  -3099740.430 9  -2396992.13046  23367030.075    23367029.6124   23367036.0464
        -0.000          -0.000
   1563819.464 9   1213054.98147  22227180.665    22227180.4534   22227185.6874
        -0.000          -0.000
  -4674493.254 9  -3624270.51346  23528052.891    23528052.2984   23528059.4514
        -0.000          -0.000
  -3737293.809 9  -2887283.21546  24320148.769    24320148.1724   24320155.2154
        -0.000          -0.000
   3141618.539 9   2437621.19446  23358611.036    23358609.9114   23358615.5024
        -0.000          -0.000
   3133781.363 9   2425540.86247  22623061.373    22623060.8914   22623067.5594
        -0.000          -0.000
  -2833769.661 9  -2196347.84048  21444205.043    21444204.5664   21444210.1054
        -0.000          -0.000
   1065193.660 9    789913.72348  21222734.267    21222733.4974   21222739.7684
        -0.000          -0.000
 97  3  6 16  9 59.9990000  0  9 18  3 29 31 27 22 14 19 16         -0.000092950
  -3290001.956 9  -2347391.25649  20537965.785    20537965.2934   20537970.2474
        -0.000          -0.000
  -3165990.470 9  -2448615.53846  23354423.184    23354422.6904   23354429.0324
        -0.000          -0.000
   1606243.183 9   1246112.35647  22235253.662    22235253.4844   22235258.7394
        -0.000          -0.000
  -4783522.168 9  -3709228.04746  23507305.385    23507304.7124   23507311.8664
        -0.000          -0.000
  -3831683.239 9  -2960833.42046  24302186.944    24302186.4664   24302193.5304
        -0.000          -0.000
   3219208.438 9   2498080.81546  23373375.937    23373374.8494   23373380.4724
        -0.000          -0.000
   3212097.985 9   2486566.70547  22637964.589    22637964.1044   22637970.8134
        -0.000          -0.000
  -2897206.751 9  -2245779.33748  21432133.379    21432132.9134   21432138.4354
        -0.000          -0.000
   1100009.414 9    817042.83648  21229359.527    21229358.7514   21229365.0174
        -0.000          -0.000
 97  3  6 16 10 29.9990000  0  9 18  3 29 31 27 22 14 19 16         -0.000107912
  -3359599.171 9  -2401622.85049  20524721.941    20524721.4214   20524726.3804
        -0.000          -0.000
  -3231903.193 9  -2499976.08746  23341880.373    23341879.9334   23341886.2544
        -0.000          -0.000
   1648941.768 9   1279383.92347  22243379.032    22243378.8094   22243384.0734
        -0.000          -0.000
  -4892449.141 9  -3794106.17246  23486577.342    23486576.6614   23486583.8344
        -0.000          -0.000
  -3926072.907 9  -3034383.79746  24284225.270    24284224.7814   24284231.7824
        -0.000          -0.000
   3296968.061 9   2558672.70146  23388173.204    23388172.0854   23388177.6734
        -0.000          -0.000
   3290554.419 9   2547701.50347  22652894.418    22652893.9484   22652900.6774
        -0.000          -0.000
  -2960495.309 9  -2295095.08948  21420089.933    21420089.4714   21420095.0074
        -0.000          -0.000
   1135257.218 9    844508.61548  21236066.988    21236066.2074   21236072.5004
        -0.000          -0.000
 97  3  6 16 10 59.9990000  0  9 18  3 29 31 27 22 14 19 16         -0.000122906
  -3428930.192 9  -2455647.02749  20511528.688    20511528.1754   20511533.1194
        -0.000          -0.000
  -3297472.734 9  -2551069.22446  23329402.959    23329402.4514   23329408.7274
        -0.000          -0.000
   1691913.238 9   1312868.11947  22251556.286    22251556.0384   22251561.3644
        -0.000          -0.000
  -5001274.938 9  -3878905.44846  23465868.500    23465867.7784   23465874.9164
        -0.000          -0.000
  -4020462.797 9  -3107934.34846  24266263.459    24266262.9864   24266270.0174
        -0.000          -0.000
   3374889.044 9   2619390.32246  23403001.028    23402999.9404   23403005.5574
        -0.000          -0.000
   3369168.939 9   2608959.47047  22667854.287    22667853.8314   22667860.6344
        -0.000          -0.000
  -3023621.566 9  -2344284.37748  21408077.412    21408076.9874   21408082.5074
        -0.000          -0.000
   1170958.680 9    872327.89148  21242860.806    21242860.0244   21242866.3084
        -0.000          -0.000
 97  3  6 16 11 29.9990000  0  9 18  3 29 31 27 22 14 19 16         -0.000137927
  -3497988.190 9  -2509458.45749  20498387.407    20498386.8924   20498391.8254
        -0.000          -0.000
  -3362695.612 9  -2601892.21746  23316991.357    23316990.9244   23316997.2284
        -0.000          -0.000
   1735162.356 9   1346568.67047  22259786.408    22259786.1804   22259791.5014
        -0.000          -0.000
  -5110013.925 9  -3963637.09146  23445176.115    23445175.4524   23445182.4514
        -0.000          -0.000
  -4114840.921 9  -3181475.70446  24248303.877    24248303.3394   24248310.4644
        -0.000          -0.000
   3452971.234 9   2680233.55346  23417859.466    23417858.5244   23417864.1524
        -0.000          -0.000
   3447967.115 9   2670360.55047  22682849.091    22682848.6514   22682855.5124
        -0.000          -0.000
  -3086597.871 9  -2393356.81248  21396093.442    21396092.9834   21396098.5144
        -0.000          -0.000
   1207113.390 9    900500.34648  21249740.867    21249740.0714   21249746.3774
        -0.000          -0.000
 97  3  6 16 11 59.9990000  0  9 18  3 29 31 27 22 14 19 16         -0.000152979
  -3566774.614 9  -2563058.27149  20485297.810    20485297.3144   20485302.2314
        -0.000          -0.000
  -3427596.667 9  -2652464.45846  23304641.117    23304640.6734   23304646.9924
        -0.000          -0.000
   1778654.522 9   1380458.60647  22268062.774    22268062.5414   22268067.8254
        -0.000          -0.000
  -5218690.980 9  -4048320.45646  23424495.552    23424494.7804   23424501.8374
        -0.000          -0.000
  -4209203.152 9  -3255004.72046  24230347.458    24230346.9104   24230353.9604
        -0.000          -0.000
   3531183.297 9   2741177.97746  23432742.783    23432741.7514   23432747.4314
        -0.000          -0.000
   3526941.458 9   2731898.90247  22697877.545    22697877.0874   22697883.9524
        -0.000          -0.000
  -3149463.851 9  -2442343.28548  21384130.475    21384130.0054   21384135.5394
        -0.000          -0.000
   1243693.543 9    929004.31648  21256701.852    21256701.0724   21256707.3774
        -0.000          -0.000
 97  3  6 16 12 29.9990000  0  9 18  3 29 31 27 22 14 19 16         -0.000168052
  -3635273.566 9  -2616434.07849  20472262.921    20472262.4084   20472267.3214
        -0.000          -0.000
  -3492165.910 9  -2702778.13246  23292353.983    23292353.4794   23292359.8774
        -0.000          -0.000
   1822385.290 9   1414534.46247  22276384.476    22276384.2204   22276389.5504
        -0.000          -0.000
  -5327295.139 9  -4132947.02146  23403828.746    23403828.0874   23403835.1624
        -0.000          -0.000
  -4303523.466 9  -3328501.05246  24212398.826    24212398.3054   24212405.3564
        -0.000          -0.000
   3609516.846 9   2802217.07946  23447649.168    23447648.1314   23447653.8494
        -0.000          -0.000
   3606113.345 9   2793591.18147  22712943.529    22712943.0964   22712949.9514
        -0.000          -0.000
  -3212203.718 9  -2491231.48748  21372191.421    21372190.9704   21372196.5264
        -0.000          -0.000
   1280700.975 9    957841.23148  21263744.198    21263743.4074   21263749.7214
        -0.000          -0.000
 97  3  6 16 12 59.9990000  0  9 18  3 29 31 27 22 14 19 16         -0.000183137
  -3703466.507 9  -2669571.44149  20459286.230    20459285.7214   20459290.6514
        -0.000          -0.000
  -3556375.583 9  -2752811.61246  23280135.233    23280134.7784   23280141.2714
        -0.000          -0.000
   1866365.019 9   1448804.32147  22284753.561    22284753.3364   22284758.6834
        -0.000          -0.000
  -5435838.807 9  -4217526.46346  23383173.605    23383172.9564   23383179.9044
        -0.000          -0.000
  -4397776.286 9  -3401944.79246  24194463.141    24194462.5624   24194469.5794
        -0.000          -0.000
   3687966.121 9   2863346.35646  23462577.565    23462576.6064   23462582.3354
        -0.000          -0.000
   3685487.819 9   2855441.31447  22728048.056    22728047.6104   22728054.5314
        -0.000          -0.000
  -3274806.581 9  -2540012.93648  21360278.495    21360278.0374   21360283.5864
        -0.000          -0.000
   1318133.554 9    987009.43148  21270867.416    21270866.6254   21270872.9564
        -0.000          -0.000
 97  3  6 16 13 29.9990000  0  9 18  3 29 31 27 22 14 19 16         -0.000198232
  -3771321.371 9  -2722445.36549  20446373.918    20446373.3904   20446378.3294
        -0.000          -0.000
  -3620218.853 9  -2802559.59946  23267986.303    23267985.8284   23267992.2334
        -0.000          -0.000
   1910599.852 9   1483272.96047  22293171.275    22293171.0494   22293176.4074
        -0.000          -0.000
  -5544328.861 9  -4302064.10946  23362528.684    23362528.0294   23362534.9984
        -0.000          -0.000
  -4491950.483 9  -3475327.25546  24176542.384    24176541.8494   24176548.8784
        -0.000          -0.000
   3766538.845 9   2924571.82246  23477529.427    23477528.5654   23477534.1844
        -0.000          -0.000
   3765037.676 9   2917428.12347  22743185.987    22743185.5404   22743192.4654
        -0.000          -0.000
  -3337285.161 9  -2588697.53848  21348389.244    21348388.7884   21348394.3294
        -0.000          -0.000
   1355973.603 9   1016495.13748  21278068.168    21278067.3714   21278073.7244
        -0.000          -0.000
 97  3  6 16 13 59.9990000  0  9 18  3 29 31 27 22 14 19 16         -0.000213342
  -3838833.001 9  -2775051.83349  20433526.871    20433526.3644   20433531.2854
        -0.000          -0.000
  -3683679.162 9  -2852009.17146  23255910.185    23255909.7184   23255916.1234
        -0.000          -0.000
   1955099.287 9   1517947.77547  22301639.313    22301639.0764   22301644.4294
        -0.000          -0.000
  -5652730.366 9  -4386532.77146  23341900.572    23341899.8894   23341906.7664
        -0.000          -0.000
  -4586057.276 9  -3548657.20346  24158634.351    24158633.8664   24158640.9064
        -0.000          -0.000
   3845235.908 9   2985894.18446  23492505.065    23492504.1384   23492509.7714
        -0.000          -0.000
   3844725.477 9   2979522.41647  22758350.043    22758349.6424   22758356.6864
        -0.000          -0.000
  -3399613.566 9  -2637265.11548  21336528.586    21336528.0994   21336533.6124
        -0.000          -0.000
   1394224.563 9   1046301.03248  21285347.119    21285346.3514   21285352.6924
        -0.000          -0.000
 97  3  6 16 14 29.9990000  0  9 18  3 29 31 27 22 14 19 16         -0.000228466
  -3905993.419 9  -2827384.62949  20420746.659    20420746.1424   20420751.0934
        -0.000          -0.000
  -3746731.993 9  -2901141.23246  23243911.589    23243911.1264   23243917.5284
        -0.000          -0.000
   1999896.174 9   1552854.37747  22310164.019    22310163.7554   22310169.0784
        -0.000          -0.000
  -5761022.556 9  -4470916.23746  23321293.171    23321292.5454   23321299.4204
        -0.000          -0.000
  -4680104.464 9  -3621940.70046  24140737.865    24140737.2654   24140744.2844
        -0.000          -0.000
   3924080.604 9   3047331.58346  23507508.658    23507507.7314   23507513.5154
        -0.000          -0.000
   3924535.453 9   3041711.90247  22773537.466    22773537.0384   22773544.1884
        -0.000          -0.000
  -3461767.629 9  -2685696.84048  21324701.065    21324700.5574   21324706.1124
        -0.000          -0.000
   1432898.391 9   1076436.43448  21292706.568    21292705.7764   21292712.1604
        -0.000          -0.000
 97  3  6 16 14 59.9990000  0  9 18  3 29 31 27 22 14 19 16         -0.000243608
  -3972795.454 9  -2879438.16749  20408034.646    20408034.1324   20408039.0624
        -0.000          -0.000
  -3809377.172 9  -2949955.62646  23231990.554    23231990.0984   23231996.5314
        -0.000          -0.000
   2045000.339 9   1588000.42147  22318747.151    22318746.9134   22318752.1994
        -0.000          -0.000
  -5869195.063 9  -4555206.46246  23300708.584    23300707.9464   23300714.8024
        -0.000          -0.000
  -4774105.101 9  -3695187.90846  24122850.005    24122849.4394   24122856.5964
        -0.000          -0.000
   4003086.468 9   3108894.55546  23522542.896    23522542.0034   23522547.8924
        -0.000          -0.000
   4004455.036 9   3103986.78847  22788745.761    22788745.3394   22788752.4434
        -0.000          -0.000
  -3523760.835 9  -2734003.22648  21312904.102    21312903.6444   21312909.2164
        -0.000          -0.000
   1471987.796 9   1106895.66748  21300145.068    21300144.2774   21300150.6704
        -0.000          -0.000
 97  3  6 16 15 29.9990000  0  9 18  3 29 31 27 22 14 19 16         -0.000258769
  -4039241.271 9  -2931214.13049  20395390.452    20395389.9454   20395394.8874
        -0.000          -0.000
  -3871614.393 9  -2998452.11846  23220147.242    23220146.7174   23220153.2144
        -0.000          -0.000
   2090415.245 9   1623388.58947  22327389.360    22327389.1204   22327394.4474
        -0.000          -0.000
  -5977220.362 9  -4639381.97646  23280152.105    23280151.4074   23280158.1494
        -0.000          -0.000
  -4868072.721 9  -3768409.38846  24104968.651    24104968.0884   24104975.1744
        -0.000          -0.000
   4082257.703 9   3170586.39046  23537608.653    23537607.8834   23537613.6964
        -0.000          -0.000
   4084484.073 9   3166346.97947  22803974.909    22803974.4374   22803981.5614
        -0.000          -0.000
  -3585587.640 9  -2782179.94748  21301138.853    21301138.3994   21301143.9354
        -0.000          -0.000
   1511498.049 9   1137682.83148  21307663.629    21307662.8624   21307669.2864
        -0.000          -0.000
 97  3  6 16 15 59.9990000  0  9 18  3 29 31 27 22 14 19 16         -0.000273944
  -4105343.499 9  -2982722.36349  20382811.655    20382811.1534   20382816.0844
        -0.000          -0.000
  -3933435.871 9  -3046624.68046  23208382.992    23208382.4714   23208388.9204
        -0.000          -0.000
   2136136.409 9   1659015.39947  22336089.858    22336089.5774   22336094.9444
        -0.000          -0.000
  -6085080.027 9  -4723428.42846  23259627.061    23259626.3264   23259633.0524
        -0.000          -0.000
  -4962014.529 9  -3841610.75746  24087091.920    24087091.4644   24087098.7114
        -0.000          -0.000
   4161603.499 9   3232414.25746  23552707.770    23552706.9304   23552712.7534
        -0.000          -0.000
   4164643.421 9   3228808.70047  22819228.789    22819228.3464   22819235.5114
        -0.000          -0.000
  -3647238.632 9  -2830219.67148  21289407.054    21289406.6004   21289412.1104
        -0.000          -0.000
   1551434.461 9   1168802.06548  21315263.342    21315262.5814   21315269.0094
        -0.000          -0.000
 97  3  6 16 16 29.9990000  0  9 18  3 29 31 27 22 14 19 16         -0.000289138
  -4171116.093 9  -3033973.74249  20370295.565    20370295.0684   20370300.0024
        -0.000          -0.000
  -3994866.053 9  -3094492.32946  23196693.149    23196692.6744   23196699.1124
        -0.000          -0.000
   2182127.173 9   1694852.29247  22344841.646    22344841.3784   22344846.8034
        -0.000          -0.000
  -6192798.581 9  -4807364.93046  23239128.929    23239128.2374   23239134.9474
        -0.000          -0.000
  -5055944.761 9  -3914803.15046  24069217.652    24069217.1684   24069224.2484
        -0.000          -0.000
   4241106.486 9   3294364.60946  23567836.749    23567835.9464   23567841.7104
        -0.000          -0.000
   4244952.823 9   3291387.34347  22834511.310    22834510.8374   22834517.9974
        -0.000          -0.000
  -3708744.104 9  -2878146.00548  21277702.911    21277702.4934   21277708.0204
        -0.000          -0.000
   1591777.396 9   1200238.06948  21322940.393    21322939.6264   21322946.0624
        -0.000          -0.000
 97  3  6 16 16 59.9990000  0  9 18  3 29 31 27 22 14 19 16         -0.000304342
  -4236548.984 9  -3084960.41549  20357844.089    20357843.5984   20357848.5254
        -0.000          -0.000
  -4055890.536 9  -3142043.85946  23185080.634    23185080.1634   23185086.4954
        -0.000          -0.000
   2228387.082 9   1730898.90347  22353644.637    22353644.4044   22353649.8554
        -0.000          -0.000
  -6300365.100 9  -4891182.95046  23218659.775    23218659.0874   23218665.8314
        -0.000          -0.000
  -5149844.714 9  -3987971.90246  24051349.118    24051348.6184   24051355.5954
        -0.000          -0.000
   4320755.546 9   3356428.79546  23582993.544    23582992.7044   23582998.4754
        -0.000          -0.000
   4325442.242 9   3354106.26847  22849828.065    22849827.5834   22849834.7844
        -0.000          -0.000
  -3770094.021 9  -2925951.12948  21266028.452    21266028.0154   21266033.5094
        -0.000          -0.000
   1632539.231 9   1232000.49048  21330697.167    21330696.3864   21330702.8394
        -0.000          -0.000
 97  3  6 16 17 29.9990000  0  9 18  3 29 31 27 22 14 19 16         -0.000319556
  -4301638.406 9  -3135679.44749  20345458.009    20345457.5234   20345462.4224
        -0.000          -0.000
  -4116495.867 9  -3189268.77246  23173547.842    23173547.3774   23173553.6624
        -0.000          -0.000
   2274925.650 9   1767162.65047  22362500.718    22362500.4634   22362505.9204
        -0.000          -0.000
  -6407776.373 9  -4974880.00146  23198220.067    23198219.3864   23198226.1834
        -0.000          -0.000
  -5243705.169 9  -4061109.88646  24033488.107    24033487.5934   24033494.5954
        -0.000          -0.000
   4400545.738 9   3418602.93846  23598177.212    23598176.2934   23598182.0714
        -0.000          -0.000
   4406123.762 9   3416974.86547  22865181.263    22865180.8154   22865188.1104
        -0.000          -0.000
  -3831275.479 9  -2973624.97948  21254385.996    21254385.5654   21254391.0684
        -0.000          -0.000
   1673741.651 9   1264106.22548  21338537.763    21338537.0084   21338543.4464
        -0.000          -0.000
 97  3  6 16 17 59.9990000  0  9 18  3 29 31 27 22 14 19 16         -0.000334776
  -4366384.738 9  -3186131.13949  20333137.190    20333136.6924   20333141.6044
        -0.000          -0.000
  -4176688.575 9  -3236172.16046  23162093.553    23162093.0374   23162099.4064
        -0.000          -0.000
   2321726.411 9   1803630.70547  22371406.625    22371406.3974   22371411.8884
        -0.000          -0.000
  -6515036.573 9  -5058459.32346  23177809.155    23177808.3884   23177815.2544
        -0.000          -0.000
  -5337521.257 9  -4134213.28246  24015635.517    24015634.9614   24015641.9814
        -0.000          -0.000
   4480465.370 9   3480877.93846  23613385.588    23613384.6144   23613390.3854
        -0.000          -0.000
   4486990.026 9   3479987.42147  22880569.638    22880569.2024   22880576.5414
        -0.000          -0.000
  -3892305.606 9  -3021180.91348  21242772.412    21242771.9454   21242777.4494
        -0.000          -0.000
   1715371.436 9   1296544.96848  21346459.702    21346458.9444   21346465.3874
        -0.000          -0.000
 97  3  6 16 18 29.9990000  0  9 18  3 29 31 27 22 14 19 16         -0.000350015
  -4430781.385 9  -3236310.35149  20320882.911    20320882.4264   20320887.3424
        -0.000          -0.000
  -4236478.202 9  -3282761.46146  23150715.922    23150715.4634   23150721.8164
        -0.000          -0.000
   2368807.107 9   1840316.88447  22380365.802    22380365.5764   22380371.1124
        -0.000          -0.000
  -6622148.372 9  -5141923.02146  23157426.351    23157425.6284   23157432.5194
        -0.000          -0.000
  -5431289.025 9  -4207279.01746  23997792.035    23997791.4754   23997798.5224
        -0.000          -0.000
   4560492.105 9   3543236.40546  23628614.271    23628613.1414   23628618.9584
        -0.000          -0.000
   4568022.912 9   3543129.82946  22895989.789    22895989.3864   22895996.6774
        -0.000          -0.000
  -3953190.014 9  -3068623.30348  21231186.491    21231186.0564   21231191.5224
        -0.000          -0.000
   1757433.286 9   1329320.38348  21354463.838    21354463.0834   21354469.5404
        -0.000          -0.000
 97  3  6 16 18 59.9990000  0  9 18  3 29 31 27 22 14 19 16         -0.000365269
  -4494827.269 9  -3286216.23349  20308695.442    20308694.9334   20308699.8504
        -0.000          -0.000
  -4295858.652 9  -3329031.90146  23139416.138    23139415.7354   23139422.0614
        -0.000          -0.000
   2416199.462 9   1877245.92347  22389384.309    22389384.0624   22389389.6284
        -0.000          -0.000
  -6729117.140 9  -5225275.27546  23137070.890    23137070.1504   23137076.9454
        -0.000          -0.000
  -5525001.827 9  -4280301.94646  23979958.977    23979958.4404   23979965.5444
        -0.000          -0.000
   4640633.177 9   3605683.97046  23643864.618    23643863.4944   23643869.4134
        -0.000          -0.000
   4649200.444 9   3606384.93346  22911437.457    22911437.0824   22911444.3464
        -0.000          -0.000
  -4013927.973 9  -3115951.57348  21219628.462    21219628.0274   21219633.5094
        -0.000          -0.000
   1799928.955 9   1362433.84348  21362550.570    21362549.8044   21362556.2404
        -0.000          -0.000
 97  3  6 16 19 29.9990000  0  9 18  3 29 31 27 22 14 19 16         -0.000380538
  -4558527.658 9  -3335852.90549  20296573.666    20296573.1954   20296578.1144
        -0.000          -0.000
  -4354848.940 9  -3374998.35346  23128190.684    23128190.2074   23128196.5904
        -0.000          -0.000
   2463892.278 9   1914409.08347  22398459.986    22398459.7494   22398465.3434
        -0.000          -0.000
  -6835950.197 9  -5308521.76446  23116741.140    23116740.4144   23116747.2284
        -0.000          -0.000
  -5618666.370 9  -4353287.25646  23962135.278    23962134.6694   23962141.7164
        -0.000          -0.000
   4720897.408 9   3668227.49746  23659138.395    23659137.3404   23659143.2234
        -0.000          -0.000
   4730509.536 9   3669742.54446  22926910.206    22926909.8114   22926917.1294
        -0.000          -0.000
  -4074531.501 9  -3163175.09348  21208095.951    21208095.5314   21208101.0424
        -0.000          -0.000
   1842833.438 9   1395865.85848  21370715.087    21370714.3124   21370720.7454
        -0.000          -0.000
 97  3  6 16 19 59.9990000  0  9 18  3 29 31 27 22 14 19 16         -0.000395817
  -4621873.325 9  -3385213.17249  20284519.391    20284518.9004   20284523.8364
        -0.000          -0.000
  -4413452.151 9  -3420663.16546  23117038.958    23117038.4684   23117044.7794
        -0.000          -0.000
   2511889.781 9   1951809.65347  22407593.667    22407593.4364   22407599.0884
        -0.000          -0.000
  -6942630.361 9  -5391649.13546  23096440.672    23096439.9574   23096446.7194
        -0.000          -0.000
  -5712280.998 9  -4426233.69546  23944321.077    23944320.3824   23944327.4024
        -0.000          -0.000
   4801293.341 9   3730873.66046  23674437.214    23674436.1294   23674442.1214
        -0.000          -0.000
   4811952.866 9   3733204.77446  22942408.365    22942407.9914   22942415.3634
        -0.000          -0.000
  -4134994.395 9  -3210289.02748  21196590.238    21196589.8164   21196595.2854
        -0.000          -0.000
   1886140.820 9   1429611.81548  21378956.287    21378955.5174   21378961.9614
        -0.000          -0.000
 97  3  6 16 20 29.9990000  0  9 18  3 29 31 27 22 14 19 16         -0.000411111
  -4684870.524 9  -3434301.90149  20272531.421    20272530.9394   20272535.8374
        -0.000          -0.000
  -4471668.953 9  -3466026.89646  23105960.614    23105960.1374   23105966.4904
        -0.000          -0.000
   2560204.288 9   1989457.25647  22416787.658    22416787.4214   22416793.0964
        -0.000          -0.000
  -7049159.486 9  -5474658.77046  23076168.744    23076168.0514   23076174.9554
        -0.000          -0.000
  -5805858.205 9  -4499150.97146  23926513.778    23926513.3194   23926520.1784
        -0.000          -0.000
   4881816.931 9   3793619.29146  23689760.409    23689759.2714   23689765.2834
        -0.000          -0.000
   4893520.403 9   3796763.77846  22957930.203    22957929.8154   22957937.2214
        -0.000          -0.000
  -4195313.178 9  -3257290.66948  21185111.973    21185111.5434   21185117.0224
        -0.000          -0.000
   1929841.994 9   1463664.63048  21387272.350    21387271.5704   21387278.0414
        -0.000          -0.000
 97  3  6 16 20 59.9990000  0  9 18  3 29 31 27 22 14 19 16         -0.000426404
  -4747519.840 9  -3483119.55549  20260609.682    20260609.1924   20260614.1014
        -0.000          -0.000
  -4529471.016 9  -3511067.43846  23094961.180    23094960.7414   23094967.1034
        -0.000          -0.000
   2608814.066 9   2027334.91747  22426037.836    22426037.6274   22426043.3234
        -0.000          -0.000
  -7155518.417 9  -5557535.83346  23055929.282    23055928.5534   23055935.4804
        -0.000          -0.000
  -5899387.457 9  -4572030.87746  23908715.718    23908715.1814   23908722.1194
        -0.000          -0.000
   4962477.903 9   3856471.95846  23705109.691    23705108.5954   23705114.6574
        -0.000          -0.000
   4975220.789 9   3860426.28946  22973477.316    22973476.9924   22973484.3894
        -0.000          -0.000
  -4255474.259 9  -3304169.42648  21173663.674    21173663.2684   21173668.7744
        -0.000          -0.000
   1973926.902 9   1498016.45148  21395661.497    21395660.7224   21395667.2074
        -0.000          -0.000
 97  3  6 16 21 29.9990000  0  9 18  3 29 31 27 22 14 19 16         -0.000441702
  -4809812.179 9  -3531659.04149  20248755.863    20248755.3784   20248760.2644
        -0.000          -0.000
  -4586853.690 9  -3555781.19146  23084041.557    23084041.1414   23084047.5384
        -0.000          -0.000
   2657694.299 9   2065423.33947  22435339.574    22435339.2984   22435344.9954
        -0.000          -0.000
  -7261682.527 9  -5640261.07046  23035726.874    23035726.1394   23035733.0704
        -0.000          -0.000
  -5992874.958 9  -4644878.22446  23890925.649    23890924.9774   23890932.0124
        -0.000          -0.000
   5043261.227 9   3919419.98146  23720482.208    23720481.1624   23720487.1754
        -0.000          -0.000
   5057045.203 9   3924185.46446  22989048.128    22989047.7724   22989055.1834
        -0.000          -0.000
  -4315470.476 9  -3350919.71548  21162246.767    21162246.3824   21162251.8774
        -0.000          -0.000
   2018390.465 9   1532663.33748  21404122.647    21404121.8654   21404128.3824
        -0.000          -0.000
 97  3  6 16 21 59.9990000  0  9 18  3 29 31 27 22 14 19 16         -0.000457014
  -4871749.731 9  -3579922.07549  20236969.560    20236969.0584   20236973.9684
        -0.000          -0.000
  -4643813.198 9  -3600165.20546  23073202.557    23073202.0954   23073208.4944
        -0.000          -0.000
   2706834.979 9   2103714.71047  22444690.795    22444690.5544   22444696.2584
        -0.000          -0.000
  -7367648.002 9  -5722831.54046  23015562.244    23015561.5394   23015568.4684
        -0.000          -0.000
  -6086324.772 9  -4717696.21346  23873142.792    23873142.1184   23873149.0294
        -0.000          -0.000
   5124146.990 9   3982447.82246  23735874.364    23735873.3374   23735879.2754
        -0.000          -0.000
   5138981.646 9   3988031.93346  23004640.321    23004639.9194   23004647.2524
        -0.000          -0.000
  -4375301.395 9  -3397541.20448  21150861.320    21150860.9444   21150866.4244
        -0.000          -0.000
   2063240.850 9   1567611.63748  21412657.481    21412656.6864   21412663.1964
        -0.000          -0.000
 97  3  6 16 22 29.9990000  0  9 18  3 29 31 27 22 14 19 16         -0.000472342
  -4933340.556 9  -3627914.92849  20225249.251    20225248.7624   20225253.6734
        -0.000          -0.000
  -4700346.952 9  -3644217.46246  23062444.533    23062444.0324   23062450.4274
        -0.000          -0.000
   2756219.836 9   2142196.33947  22454088.492    22454088.2584   22454093.9524
        -0.000          -0.000
  -7473425.158 9  -5805255.24846  22995433.538    22995432.7834   22995439.7424
        -0.000          -0.000
  -6179732.853 9  -4790481.70246  23855367.789    23855367.1134   23855374.0874
        -0.000          -0.000
   5205118.853 9   4045542.76346  23751282.898    23751281.8004   23751287.6144
        -0.000          -0.000
   5221017.324 9   4051955.71446  23020251.292    23020250.8714   23020258.2804
        -0.000          -0.000
  -4434961.739 9  -3444029.78048  21139508.389    21139507.9834   21139513.4514
        -0.000          -0.000
   2108475.370 9   1602859.26248  21421265.346    21421264.5774   21421271.0864
        -0.000          -0.000
 97  3  6 16 22 59.9990000  0  9 18  3 29 31 27 22 14 19 16         -0.000487685
  -4994573.065 9  -3675628.57349  20213597.110    20213596.6084   20213601.4984
        -0.000          -0.000
  -4756454.651 9  -3687937.73546  23051767.571    23051767.1144   23051773.4924
        -0.000          -0.000
   2805843.510 9   2180864.06447  22463531.716    22463531.4314   22463537.0934
        -0.000          -0.000
  -7579009.473 9  -5887528.71246  22975341.450    22975340.7524   22975347.6384
        -0.000          -0.000
  -6273089.662 9  -4863227.24746  23837602.615    23837601.9724   23837608.8644
        -0.000          -0.000
   5286181.527 9   4108708.45646  23766708.661    23766707.5304   23766713.3934
        -0.000          -0.000
   5303163.121 9   4115965.30946  23035883.235    23035882.8304   23035890.2524
        -0.000          -0.000
  -4494443.376 9  -3490379.09748  21128189.424    21128189.0094   21128194.4924
        -0.000          -0.000
   2154109.768 9   1638418.48548  21429949.361    21429948.5854   21429955.0794
        -0.000          -0.000
 97  3  6 16 23 29.9990000  0  9 18  3 29 31 27 22 14 19 16         -0.000503045
  -5055437.734 9  -3723055.58949  20202014.932    20202014.4564   20202019.3374
        -0.000          -0.000
  -4812147.382 9  -3731334.65746  23041169.733    23041169.2514   23041175.5304
        -0.000          -0.000
   2855730.251 9   2219736.77347  22473024.896    22473024.6884   22473030.3254
        -0.000          -0.000
  -7684411.654 9  -5969660.23446  22955284.056    22955283.3884   22955290.3084
        -0.000          -0.000
  -6366401.735 9  -4935937.93646  23819845.809    23819845.1844   23819852.1124
        -0.000          -0.000
   5367345.217 9   4171952.86346  23782153.567    23782152.5394   23782158.2984
        -0.000          -0.000
   5385422.906 9   4180063.73446  23051536.883    23051536.4934   23051543.8144
        -0.000          -0.000
  -4553745.666 9  -3536588.66748  21116904.572    21116904.1524   21116909.6174
        -0.000          -0.000
   2200162.364 9   1674303.57348  21438712.925    21438712.1384   21438718.6494
        -0.000          -0.000
 97  3  6 16 23 59.9990000  0  9 18  3 29 31 27 22 14 19 16         -0.000518426
  -5115959.500 9  -3770215.41149  20190498.094    20190497.5894   20190502.4524
        -0.000          -0.000
  -4867431.903 9  -3774413.50146  23030649.436    23030648.9934   23030655.2284
        -0.000          -0.000
   2905882.109 9   2258816.06947  22482568.587    22482568.3714   22482573.9694
        -0.000          -0.000
  -7789653.100 9  -6051666.52146  22935257.250    22935256.5734   22935263.4774
        -0.000          -0.000
  -6459681.015 9  -5008623.06046  23802095.298    23802094.7824   23802101.6404
        -0.000          -0.000
   5448603.052 8   4235270.62845  23797616.350    23797615.3744   23797621.1404
        -0.000          -0.000
   5467789.673 9   4244245.49346  23067210.790    23067210.4424   23067217.8804
        -0.000          -0.000
  -4612886.782 9  -3582672.64948  21105650.400    21105649.9724   21105655.4234
        -0.000          -0.000
   2246627.611 9   1710510.20848  21447555.008    21447554.2474   21447560.7734
        -0.000          -0.000
 97  3  6 16 24 29.9990000  0  9 18  3 29 31 27 22 14 19 16         -0.000533829
  -5176140.570 9  -3817109.75349  20179046.014    20179045.5084   20179050.3764
        -0.000          -0.000
  -4922305.372 9  -3817172.03646  23020207.317    23020206.8524   23020213.1404
        -0.000          -0.000
   2956305.752 9   2298107.15447  22492163.945    22492163.7394   22492169.2904
        -0.000          -0.000
  -7894736.433 9  -6133549.59646  22915260.425    22915259.8164   22915266.7484
        -0.000          -0.000
  -6552934.781 9  -5081288.30046  23784349.700    23784349.1784   23784356.0114
        -0.000          -0.000
   5529951.178 8   4298658.74745  23813096.191    23813095.3284   23813101.1624
        -0.000          -0.000
   5550249.838 9   4308500.04346  23082902.556    23082902.1594   23082909.6654
        -0.000          -0.000
  -4671881.798 9  -3628642.78648  21094424.027    21094423.5744   21094429.0384
        -0.000          -0.000
   2293487.543 9   1747024.39448  21456472.214    21456471.4544   21456477.9774
        -0.000          -0.000
 97  3  6 16 24 59.9990000  0  9 18  3 29 31 27 22 14 19 16         -0.000549243
  -5235959.696 9  -3863722.06449  20167662.788    20167662.2884   20167667.1774
        -0.000          -0.000
  -4976737.911 9  -3859586.99646  23009849.199    23009848.7034   23009854.9164
        -0.000          -0.000
   3007019.499 9   2337624.27147  22501814.468    22501814.2884   22501819.8794
        -0.000          -0.000
  -7999648.081 9  -6215298.90646  22895296.465    22895295.8074   22895302.6394
        -0.000          -0.000
  -6646151.183 9  -5153924.42146  23766611.267    23766610.7684   23766617.5074
        -0.000          -0.000
   5611405.286 8   4362129.42745  23828596.176    23828595.4474   23828601.2504
        -0.000          -0.000
   5632816.963 9   4372837.93146  23098614.726    23098614.2824   23098621.7914
        -0.000          -0.000
  -4730731.349 9  -3674499.57848  21083225.327    21083224.8874   21083230.3444
        -0.000          -0.000
   2340742.127 9   1783846.09348  21465464.513    21465463.7584   21465470.3114
        -0.000          -0.000
 97  3  6 16 25 29.9990000  0  9 18  3 29 31 27 22 14 19 16         -0.000564667
  -5295417.725 9  -3910052.99949  20156348.323    20156347.8314   20156352.7234
        -0.000          -0.000
  -5030725.384 9  -3901655.14446  22999575.649    22999575.1154   22999581.3814
        -0.000          -0.000
   3058016.706 9   2377362.27747  22511519.017    22511518.8104   22511524.4564
        -0.000          -0.000
  -8104382.599 9  -6296910.18346  22875366.099    22875365.4744   22875372.2804
        -0.000          -0.000
  -6739330.214 9  -5226531.41246  23748879.831    23748879.3534   23748886.1584
        -0.000          -0.000
   5692955.662 8   4425675.14545  23844114.681    23844113.8944   23844119.7204
        -0.000          -0.000
   5715483.310 9   4437253.13746  23114345.701    23114345.2624   23114352.8094
        -0.000          -0.000
  -4789443.018 9  -3720248.92848  21072052.874    21072052.4724   21072057.9174
        -0.000          -0.000
   2388374.391 9   1820962.09348  21474528.682    21474527.9044   21474534.4654
        -0.000          -0.000
 97  3  6 16 25 59.9990000  0  9 18  3 29 31 27 22 14 19 16         -0.000580100
  -5354500.478 9  -3956091.51049  20145105.246    20145104.7544   20145109.6514
        -0.000          -0.000
  -5084247.469 9  -3943360.66146  22989390.777    22989390.2064   22989396.5114
        -0.000          -0.000
   3109275.525 9   2417304.13747  22521273.289    22521273.0774   22521278.7274
        -0.000          -0.000
  -8208926.258 9  -6378372.74246  22855472.173    22855471.5174   22855478.1974
        -0.000          -0.000
  -6832459.986 9  -5299100.04246  23731157.846    23731157.3524   23731164.1574
        -0.000          -0.000
   5774590.162 8   4489286.42145  23859649.265    23859648.5984   23859654.2284
        -0.000          -0.000
   5798241.926 9   4501740.23046  23130094.278    23130093.8294   23130101.4084
        -0.000          -0.000
  -4848019.196 9  -3765892.70348  21060906.209    21060905.7984   21060911.2134
        -0.000          -0.000
   2436368.624 9   1858360.14448  21483661.710    21483660.9514   21483667.5034
        -0.000          -0.000
 97  3  6 16 26 29.9990000  0  9 18  3 29 31 27 22 14 19 16         -0.000595548
  -5413186.406 9  -4001820.80849  20133937.680    20133937.1854   20133942.0884
        -0.000          -0.000
  -5137298.711 9  -3984699.28046  22979295.347    22979294.8754   22979301.2394
        -0.000          -0.000
   3160788.211 9   2457443.81247  22531075.884    22531075.6914   22531081.3544
        -0.000          -0.000
  -8313276.683 9  -6459684.71746  22835614.794    22835614.1434   22835620.9024
        -0.000          -0.000
  -6925536.241 9  -5371626.97646  23713445.958    23713445.4834   23713452.2834
        -0.000          -0.000
   5856294.415 9   4552952.04445  23875197.141    23875196.4164   23875202.0494
        -0.000          -0.000
   5881092.754 9   4566299.17346  23145860.382    23145859.9354   23145867.5454
        -0.000          -0.000
  -4906461.863 9  -3811432.44548  21049784.905    21049784.4984   21049789.9274
        -0.000          -0.000
   2484711.976 9   1896030.23948  21492861.171    21492860.4124   21492867.0104
        -0.000          -0.000
 97  3  6 16 26 59.9990000  0  9 18  3 29 31 27 22 14 19 16         -0.000611007
  -5471465.577 9  -4047233.15549  20122847.488    20122846.9934   20122851.8694
        -0.000          -0.000
  -5189875.291 9  -4025668.03546  22969290.422    22969289.9324   22969296.2364
        -0.000          -0.000
   3212557.033 9   2497783.07947  22540927.244    22540927.0614   22540932.7554
        -0.000          -0.000
  -8417416.184 9  -6540832.35146  22815797.699    22815797.0624   22815803.7834
        -0.000          -0.000
  -7018554.262 9  -5444108.50746  23695745.236    23695744.7874   23695751.5664
        -0.000          -0.000
   5938079.032 9   4616680.28845  23890760.267    23890759.5514   23890765.0714
        -0.000          -0.000
   5964043.537 9   4630936.00946  23161645.509    23161645.0774   23161652.7254
        -0.000          -0.000
  -4964757.490 9  -3856857.61348  21038691.573    21038691.1774   21038696.6084
        -0.000          -0.000
   2533428.041 9   1933990.75848  21502131.580    21502130.8144   21502137.4284
        -0.000          -0.000
 97  3  6 16 27 29.9990000  0  9 18  3 29 31 27 22 14 19 16         -0.000626478
  -5529342.726 9  -4092332.23649  20111833.898    20111833.4074   20111838.2924
        -0.000          -0.000
  -5241998.513 9  -4066283.52346  22959371.769    22959371.2884   22959377.4914
        -0.000          -0.000
   3264583.492 9   2538323.09647  22550827.626    22550827.4264   22550833.1284
        -0.000          -0.000
  -8521323.859 9  -6621799.34046  22796024.789    22796024.1514   22796030.7924
        -0.000          -0.000
  -7111515.628 9  -5516545.90546  23678055.238    23678054.7044   23678061.5204
        -0.000          -0.000
   6019946.339 9   4680472.98245  23906339.208    23906338.3964   23906343.9404
        -0.000          -0.000
   6047081.648 9   4695640.89146  23177447.227    23177446.7874   23177454.4354
        -0.000          -0.000
  -5022913.692 9  -3902174.13348  21027624.849    21027624.4584   21027629.8654
        -0.000          -0.000
   2582534.140 9   1972255.19948  21511476.175    21511475.4154   21511482.0634
        -0.000          -0.000
 97  3  6 16 27 59.9990000  0  9 18  3 29 31 27 22 14 19 16         -0.000641971
  -5586828.742 9  -4137126.54049  20100894.700    20100894.2004   20100899.0824
        -0.000          -0.000
  -5293688.319 9  -4106561.29446  22949535.445    22949535.0274   22949541.2124
        -0.000          -0.000
   3316872.164 9   2579067.43347  22560777.863    22560777.6494   22560783.4274
        -0.000          -0.000
  -8625010.359 9  -6702593.98146  22776293.881    22776293.2804   22776299.8374
        -0.000          -0.000
  -7204433.568 9  -5588949.45946  23660373.502    23660373.0254   23660379.9074
        -0.000          -0.000
   6101884.961 9   4744321.24145  23921931.636    23921930.7824   23921936.4054
        -0.000          -0.000
   6130188.798 9   4760399.56646  23193262.105    23193261.6994   23193269.3774
        -0.000          -0.000
  -5080939.999 9  -3947389.43648  21016582.856    21016582.4434   21016587.8844
        -0.000          -0.000
   2632027.189 9   2010821.15448  21520894.419    21520893.6754   21520900.3224
        -0.000          -0.000
 97  3  6 16 28 29.9990000  0  9 18  3 29 31 27 22 14 19 16         -0.000657479
  -5643931.554 9  -4181622.24249  20090028.401    20090027.9134   20090032.7964
        -0.000          -0.000
  -5344965.395 9  -4146517.43646  22939777.816    22939777.3134   22939783.5624
        -0.000          -0.000
   3369449.616 9   2620036.80847  22570783.032    22570782.8524   22570788.6404
        -0.000          -0.000
  -8728461.413 9  -6783205.15246  22756607.803    22756607.1894   22756613.7414
        -0.000          -0.000
  -7297306.402 9  -5661317.87346  23642700.413    23642699.9004   23642706.7114
        -0.000          -0.000
   6183904.291 9   4808232.39545  23937539.458    23937538.5764   23937544.2004
        -0.000          -0.000
   6213361.380 9   4825209.23846  23209089.387    23209089.0024   23209096.7434
        -0.000          -0.000
  -5138832.870 9  -3992500.76148  21005566.172    21005565.7604   21005571.2184
        -0.000          -0.000
   2681910.652 9   2049691.33548  21530386.987    21530386.2344   21530392.9214
        -0.000          -0.000
 97  3  6 16 28 59.9990000  0  9 18  3 29 31 27 22 14 19 16         -0.000672996
  -5700669.901 9  -4225833.94949  20079231.442    20079230.9584   20079235.8364
        -0.000          -0.000
  -5395843.539 9  -4186162.73746  22930096.021    22930095.5554   22930101.7054
        -0.000          -0.000
   3422313.620 9   2661229.45847  22580842.804    22580842.6184   22580848.4754
        -0.000          -0.000
  -8831672.569 9  -6863629.39746  22736967.322    22736966.7364   22736973.2424
        -0.000          -0.000
  -7390141.317 9  -5733656.73446  23625034.385    23625033.9194   23625040.7874
        -0.000          -0.000
   6266019.279 9   4872218.07645  23953165.473    23953164.6094   23953170.3094
        -0.000          -0.000
   6296594.928 9   4890066.40346  23224928.249    23224927.8874   23224935.6364
        -0.000          -0.000
  -5196590.293 9  -4037506.54748  20994575.335    20994574.9284   20994580.3554
        -0.000          -0.000
   2732179.998 9   2088862.20048  21539952.966    21539952.2214   21539958.8944
        -0.000          -0.000
 97  3  6 16 29 29.9990000  0  9 18  3 29 31 27 22 14 19 16         -0.000688506
  -5757022.685 9  -4269745.21949  20068507.841    20068507.3914   20068512.2464
        -0.000          -0.000
  -5446294.077 9  -4225474.82846  22920495.559    22920495.1014   22920501.2814
        -0.000          -0.000
   3475495.265 9   2702669.62047  22590963.037    22590962.8424   22590968.6924
        -0.000          -0.000
  -8934634.895 9  -6943859.73546  22717374.241    22717373.6204   22717380.1684
        -0.000          -0.000
  -7482916.363 9  -5805948.94246  23607379.931    23607379.4214   23607386.2414
        -0.000          -0.000
   6348244.755 9   4936289.84046  23968812.428    23968811.6774   23968817.3844
        -0.000          -0.000
   6379917.878 9   4954993.23446  23240784.170    23240783.8004   23240791.6644
        -0.000          -0.000
  -5254183.003 9  -4082383.98448  20983615.790    20983615.4054   20983620.8154
        -0.000          -0.000
   2782829.909 9   2128329.60948  21549591.337    21549590.6094   21549597.3224
        -0.000          -0.000
 97  3  6 16 29 59.9990000  0  9 18  3 29 31 27 22 14 19 16         -0.000704007
  -5812981.303 9  -4313349.34349  20057859.302    20057858.8534   20057863.7254
        -0.000          -0.000
  -5496286.001 9  -4264429.56246  22910982.419    22910981.9884   22910988.0824
        -0.000          -0.000
   3529000.988 9   2744362.31247  22601144.895    22601144.6934   22601150.6344
        -0.000          -0.000
  -9037356.771 9  -7023902.72447  22697826.904    22697826.2824   22697832.7794
        -0.000          -0.000
  -7575632.900 9  -5878195.54746  23589736.477    23589735.9964   23589742.9014
        -0.000          -0.000
   6430576.073 9   5000444.08046  23984479.726    23984478.8314   23984484.5984
        -0.000          -0.000
   6463343.836 9   5020000.32046  23256659.735    23256659.3394   23256667.1864
        -0.000          -0.000
  -5311590.412 9  -4127117.02748  20972691.574    20972691.1584   20972696.5804
        -0.000          -0.000
   2833838.243 9   2168076.31148  21559297.964    21559297.2294   21559303.9664
        -0.000          -0.000
 97  3  6 16 30 29.9990000  0  9 18  3 29 31 27 22 14 19 16         -0.000719489
  -5868537.173 9  -4356639.63749  20047287.401    20047286.9424   20047291.8134
        -0.000          -0.000
  -5545781.050 9  -4302997.12446  22901563.821    22901563.4074   22901569.5024
        -0.000          -0.000
   3582828.092 9   2786305.43847  22611387.912    22611387.7324   22611393.6414
        -0.000          -0.000
  -9139826.837 9  -7103749.49147  22678327.473    22678326.8514   22678333.3204
        -0.000          -0.000
  -7668284.211 9  -5950391.33546  23572105.518    23572105.0714   23572111.9224
        -0.000          -0.000
   6513024.052 9   5064689.22946  24000169.219    24000168.2304   24000174.0454
        -0.000          -0.000
   6546885.527 9   5085097.59646  23272557.286    23272556.9434   23272564.7684
        -0.000          -0.000
  -5368807.583 9  -4171701.83448  20961803.478    20961803.0964   20961808.4994
        -0.000          -0.000
   2885209.527 9   2208105.82648  21569073.647    21569072.9214   21569079.6494
        -0.000          -0.000
 97  3  6 16 30 59.9990000  0  9 18  3 29 31 27 22 14 19 16         -0.000734961
  -5923690.982 9  -4399616.64549  20036791.982    20036791.5284   20036796.4094
        -0.000          -0.000
  -5594761.978 9  -4341164.06746  22892243.087    22892242.6804   22892248.6924
        -0.000          -0.000
   3636959.138 9   2828485.38447  22621688.786    22621688.5714   22621694.5394
        -0.000          -0.000
  -9242063.572 9  -7183414.43047  22658872.418    22658871.8394   22658878.2734
        -0.000          -0.000
  -7760880.930 9  -6022544.58246  23554484.956    23554484.4504   23554491.3834
        -0.000          -0.000
   6595569.479 9   5129010.32246  24015877.200    24015876.1354   24015881.9664
        -0.000          -0.000
   6630546.672 9   5150287.95346  23288477.724    23288477.3124   23288485.0864
        -0.000          -0.000
  -5425833.832 9  -4216137.87248  20950951.771    20950951.3884   20950956.7824
        -0.000          -0.000
   2936939.046 9   2248414.48548  21578917.526    21578916.7774   21578923.4894
        -0.000          -0.000
 97  3  6 16 31 29.9990000  0  9 18  3 29 31 27 22 14 19 16         -0.000750439
  -5978444.662 9  -4442281.85849  20026372.763    20026372.2914   20026377.1594
        -0.000          -0.000
  -5643237.625 9  -4378937.29146  22883018.454    22883018.0464   22883024.0984
        -0.000          -0.000
   3691374.268 9   2870886.71147  22632043.623    22632043.4834   22632049.3934
        -0.000          -0.000
  -9344084.409 9  -7262911.14247  22639458.451    22639457.8904   22639464.4134
        -0.000          -0.000
  -7853432.959 9  -6094662.99846  23536872.900    23536872.4434   23536879.2324
        -0.000          -0.000
   6678180.281 9   5193382.34146  24031597.567    24031596.4224   24031602.3454
        -0.000          -0.000
   6714301.481 9   5215551.28746  23304415.972    23304415.5084   23304423.2104
        -0.000          -0.000
  -5482682.070 9  -4260435.19448  20940133.943    20940133.5374   20940138.9604
        -0.000          -0.000
   2989007.719 9   2288987.42448  21588825.938    21588825.1874   21588831.9334
        -0.000          -0.000
 97  3  6 16 31 59.9990000  0  9 18  3 29 31 27 22 14 19 16         -0.000765925
  -6032799.276 9  -4484636.11049  20016029.427    20016028.9524   20016033.8174
        -0.000          -0.000
  -5691223.250 9  -4416328.68446  22873887.102    22873886.6784   22873892.7004
        -0.000          -0.000
   3746052.684 9   2913493.17547  22642448.671    22642448.5294   22642454.5134
        -0.000          -0.000
  -9445872.677 9  -7342226.61647  22620088.779    22620088.2094   22620094.7334
        -0.000          -0.000
  -7945934.531 9  -6166742.10146  23519270.422    23519269.9784   23519276.8244
        -0.000          -0.000
   6760847.746 9   5257798.52046  24047328.677    24047327.6714   24047333.5104
        -0.000          -0.000
   6798129.916 9   5280872.00546  23320368.160    23320367.7254   23320375.3674
        -0.000          -0.000
  -5539365.601 9  -4304604.17348  20929347.390    20929347.0054   20929352.4324
        -0.000          -0.000
   3041417.805 9   2329826.40148  21598799.243    21598798.5134   21598805.2774
        -0.000          -0.000
 97  3  6 16 32 29.9990000  0  9 18  3 29 31 27 22 14 19 16         -0.000781412
  -6086728.279 9  -4526658.71549  20005767.085    20005766.6164   20005771.4854
        -0.000          -0.000
  -5738726.287 9  -4453344.03546  22864847.626    22864847.1664   22864853.1994
        -0.000          -0.000
   3801006.859 9   2956314.53347  22652906.138    22652905.9794   22652911.9624
        -0.000          -0.000
  -9547397.435 9  -7421336.77247  22600769.253    22600768.7024   22600775.1694
        -0.000          -0.000
  -8038369.042 9  -6238768.94646  23501680.607    23501680.1164   23501686.9864
        -0.000          -0.000
   6843592.594 8   5322275.00046  24063074.491    24063073.5214   24063079.4024
        -0.000          -0.000
   6882040.742 9   5346256.90846  23336335.889    23336335.4614   23336343.2244
        -0.000          -0.000
  -5595862.673 9  -4348627.86048  20918596.360    20918595.9674   20918601.3714
        -0.000          -0.000
   3094198.627 9   2370954.26048  21608843.151    21608842.4004   21608849.2244
        -0.000          -0.000
 97  3  6 16 32 59.9990000  0  9 18  3 29 31 27 22 14 19 16         -0.000796900
  -6140227.192 9  -4568346.19049  19995586.572    19995586.1144   19995590.9754
        -0.000          -0.000
  -5785784.512 9  -4490012.78046  22855892.695    22855892.2454   22855898.3644
        -0.000          -0.000
   3856227.248 9   2999343.32647  22663414.356    22663414.1154   22663420.1654
        -0.000          -0.000
  -9648645.598 9  -7500231.39747  22581502.399    22581501.8224   22581508.3174
        -0.000          -0.000
  -8130729.667 9  -6310738.24246  23484105.167    23484104.5434   23484111.3064
        -0.000          -0.000
   6926414.986 8   5386811.87345  24078834.975    24078834.0604   24078840.0364
        -0.000          -0.000
   6966021.594 9   5411696.36946  23352317.034    23352316.5974   23352324.4044
        -0.000          -0.000
  -5652165.774 9  -4392500.40648  20907882.243    20907881.8454   20907887.2344
        -0.000          -0.000
   3147334.519 9   2412358.79448  21618954.630    21618953.8704   21618960.6914
        -0.000          -0.000
 97  3  6 16 33 29.9990000  0  9 18  3 29 31 27 22 14 19 16         -0.000812399
  -6193315.327 9  -4609713.57749  19985484.228    19985483.7584   19985488.6374
        -0.000          -0.000
  -5832425.780 9  -4526356.62646  22847017.102    22847016.6404   22847022.8374
        -0.000          -0.000
   3911703.461 9   3042571.45847  22673971.158    22673970.9664   22673976.9944
        -0.000          -0.000
  -9749611.994 9  -7578906.46947  22562289.057    22562288.4634   22562295.0224
        -0.000          -0.000
  -8223031.616 9  -6382661.79346  23466540.615    23466540.0424   23466546.7984
        -0.000          -0.000
   7009306.502 8   5451402.64045  24094608.667    24094607.7114   24094613.7854
        -0.000          -0.000
   7050033.772 9   5477160.24646  23368304.148    23368303.7204   23368311.5224
        -0.000          -0.000
  -5708305.836 9  -4436245.90448  20897199.166    20897198.7704   20897204.1654
        -0.000          -0.000
   3200811.910 9   2454029.43548  21629131.111    21629130.3554   21629137.1484
        -0.000          -0.000
 97  3  6 16 33 59.9990000  0  9 18  3 29 31 27 22 14 19 16         -0.000827898
  -6245988.594 9  -4650757.68549  19975460.860    19975460.4064   19975465.2574
        -0.000          -0.000
  -5878628.673 9  -4562358.87746  22838225.060    22838224.5964   22838230.7044
        -0.000          -0.000
   3967454.864 9   3086014.02347  22684580.349    22684580.1424   22684586.2454
        -0.000          -0.000
  -9850268.453 9  -7657340.01547  22543134.753    22543134.1134   22543140.7054
        -0.000          -0.000
  -8315269.698 9  -6454535.58846  23448988.231    23448987.7444   23448994.4404
        -0.000          -0.000
   7092283.207 8   5516059.75945  24110398.456    24110397.5894   24110403.7324
        -0.000          -0.000
   7134092.518 9   5542660.43246  23384300.094    23384299.6964   23384307.5514
        -0.000          -0.000
  -5764268.285 9  -4479853.00348  20886549.839    20886549.4734   20886554.8274
        -0.000          -0.000
   3254658.555 9   2495987.80348  21639377.817    21639377.0714   21639383.8584
        -0.000          -0.000
 97  3  6 16 34 29.9990000  0  9 18  3 29 31 27 22 14 19 16         -0.000843396
  -6298238.147 9  -4691471.63149  19965518.134    19965517.6704   19965522.5414
        -0.000          -0.000
  -5924372.942 9  -4598003.76346  22829520.137    22829519.7524   22829525.8254
        -0.000          -0.000
   4023481.154 9   3129670.79247  22695241.893    22695241.7114   22695247.7284
        -0.000          -0.000
  -9950621.247 9  -7735536.95347  22524038.191    22524037.5944   22524044.1554
        -0.000          -0.000
  -8407449.416 9  -6526363.89546  23431446.914    23431446.4874   23431453.2144
        -0.000          -0.000
   7175346.082 8   5580784.04445  24126204.801    24126203.9164   24126210.1824
        -0.000          -0.000
   7218205.118 9   5608202.55146  23400306.283    23400305.8944   23400313.7314
        -0.000          -0.000
  -5820055.417 9  -4523323.48948  20875933.904    20875933.5324   20875938.9024
        -0.000          -0.000
   3308880.739 9   2538238.79848  21649696.053    21649695.2784   21649702.1094
        -0.000          -0.000
 97  3  6 16 34 59.9990000  0  9 18  3 29 31 27 22 14 19 16         -0.000858904
  -6350081.497 9  -4731869.05049  19955652.677    19955652.2294   19955657.0814
        -0.000          -0.000
  -5969648.769 9  -4633283.62146  22820904.415    22820904.0274   22820910.0814
        -0.000          -0.000
   4079772.927 9   3173534.42847  22705953.926    22705953.7754   22705959.7884
        -0.000          -0.000
 -10050692.239 9  -7813514.30547  22504995.311    22504994.6774   22505001.2244
        -0.000          -0.000
  -8499584.026 9  -6598157.05246  23413914.299    23413913.7954   23413920.5234
        -0.000          -0.000
   7258459.330 8   5645547.57245  24142020.837    24142019.8174   24142026.2274
        -0.000          -0.000
   7302361.516 9   5673778.81146  23416320.835    23416320.3994   23416328.3364
        -0.000          -0.000
  -5875700.282 9  -4566683.11648  20865345.023    20865344.6524   20865350.0274
        -0.000          -0.000
   3363453.883 9   2580763.27748  21660080.969    21660080.2184   21660087.0374
        -0.000          -0.000
 97  3  6 16 35 29.9990000  0  9 18  3 29 31 27 22 14 19 16         -0.000874423
  -6401502.940 9  -4771937.71649  19945867.521    19945867.0934   19945871.9214
        -0.000          -0.000
  -6014414.659 9  -4668166.13946  22812385.790    22812385.4044   22812391.4214
        -0.000          -0.000
   4136344.158 9   3217615.81647  22716719.202    22716719.0224   22716725.1004
        -0.000          -0.000
 -10150483.401 9  -7891273.60647  22486005.630    22486004.9834   22486011.5524
        -0.000          -0.000
  -8591675.038 9  -6669916.23846  23396389.879    23396389.3974   23396396.2074
        -0.000          -0.000
   7341618.321 8   5710346.75945  24157845.573    24157844.6334   24157851.0184
        -0.000          -0.000
   7386574.199 9   5739398.92746  23432345.910    23432345.6054   23432353.4954
        -0.000          -0.000
  -5931196.805 9  -4609927.16048  20854784.439    20854784.0434   20854789.4314
        -0.000          -0.000
   3418386.701 9   2623568.00748  21670534.435    21670533.6624   21670540.5024
        -0.000          -0.000
 97  3  6 16 35 59.9990000  0  9 18  3 29 31 27 22 14 19 16         -0.000889946
  -6452463.289 9  -4811647.08549  19936170.088    19936169.6374   19936174.4764
        -0.000          -0.000
  -6058648.300 9  -4702633.90446  22803968.453    22803968.0424   22803974.0124
        -0.000          -0.000
   4193186.217 9   3261908.23947  22727536.046    22727535.8544   22727541.9124
        -0.000          -0.000
 -10250004.574 9  -7968822.52547  22467067.254    22467066.6634   22467073.2734
        -0.000          -0.000
  -8683704.397 9  -6741627.38246  23378877.175    23378876.7714   23378883.5004
        -0.000          -0.000
   7424824.123 8   5775182.39045  24173679.245    24173678.2104   24173684.6244
        -0.000          -0.000
   7470880.285 9   5805091.78546  23448388.929    23448388.6084   23448396.7124
        -0.000          -0.000
  -5986528.730 9  -4653042.94248  20844255.124    20844254.7034   20844260.1014
        -0.000          -0.000
   3473673.160 9   2666648.30948  21681055.118    21681054.3684   21681061.2304
        -0.000          -0.000
 97  3  6 16 36 29.9990000  0  9 18  3 29 31 27 22 14 19 16         -0.000905459
  -6502917.619 9  -4850962.15549  19926568.959    19926568.5144   19926573.3524
        -0.000          -0.000
  -6102331.367 9  -4736672.65246  22795655.815    22795655.4364   22795661.4444
        -0.000          -0.000
   4250312.457 9   3306422.09247  22738406.768    22738406.6184   22738412.6954
        -0.000          -0.000
 -10349244.692 9  -8046152.44747  22448182.492    22448181.8784   22448188.5154
        -0.000          -0.000
  -8775645.041 9  -6813269.39646  23361381.471    23361381.0034   23361387.6854
        -0.000          -0.000
   7508098.453 8   5840071.43445  24189525.955    24189524.8304   24189531.2444
        -0.000          -0.000
   7555309.969 9   5870880.98946  23464455.468    23464455.1164   23464463.3364
        -0.000          -0.000
  -6041689.148 9  -4696025.08948  20833758.420    20833758.0194   20833763.4124
        -0.000          -0.000
   3529310.740 9   2710002.20348  21691642.629    21691641.8794   21691648.7734
        -0.000          -0.000
 97  3  6 16 36 59.9990000  0  9 18  3 29 31 27 22 14 19 16         -0.000920964
  -6552881.947 9  -4889895.40649  19917061.074    19917060.6364   19917065.4824
        -0.000          -0.000
  -6145479.143 9  -4770294.30046  22787445.156    22787444.7204   22787450.7064
        -0.000          -0.000
   4307723.191 9   3351157.63847  22749331.765    22749331.6364   22749337.7424
        -0.000          -0.000
 -10448200.970 9  -8123261.19347  22429351.678    22429351.0634   22429357.7344
        -0.000          -0.000
  -8867509.600 9  -6884852.13846  23343900.205    23343899.7454   23343906.4284
        -0.000          -0.000
   7591444.009 8   5905015.96945  24205386.016    24205384.9114   24205391.3924
        -0.000          -0.000
   7639848.973 9   5936755.36046  23480542.778    23480542.5184   23480550.6894
        -0.000          -0.000
  -6096673.134 9  -4738869.74748  20823295.285    20823294.9134   20823300.3174
        -0.000          -0.000
   3585283.546 9   2753617.32348  21702293.937    21702293.1954   21702300.0864
        -0.000          -0.000
 97  3  6 16 37 29.9990000  0  9 18  3 29 31 27 22 14 19 16         -0.000936463
  -6602368.118 9  -4928456.06549  19907644.179    19907643.7454   19907648.5894
        -0.000          -0.000
  -6188106.247 9  -4803510.21946  22779333.431    22779333.0064   22779339.0374
        -0.000          -0.000
   4365395.904 9   3396097.32947  22760306.607    22760306.4874   22760312.5364
        -0.000          -0.000
 -10546879.072 9  -8200153.19247  22410573.812    22410573.1834   22410579.8584
        -0.000          -0.000
  -8959311.687 9  -6956386.17146  23326430.849    23326430.3484   23326437.0214
        -0.000          -0.000
   7674866.298 8   5970020.30245  24221260.773    24221259.7514   24221266.1274
        -0.000          -0.000
   7724475.799 9   6002698.16746  23496646.811    23496646.5704   23496654.7474
        -0.000          -0.000
  -6151486.271 9  -4781581.27948  20812864.727    20812864.3544   20812869.7574
        -0.000          -0.000
   3641587.399 9   2797490.39448  21713008.265    21713007.5174   21713014.4324
        -0.000          -0.000
 97  3  6 16 37 59.9990000  0  9 18  3 29 31 27 22 14 19 16         -0.000951951
  -6651391.347 9  -4966655.99349  19898315.381    19898314.9434   19898319.7944
        -0.000          -0.000
  -6230212.052 9  -4836319.93046  22771320.960    22771320.5434   22771326.5404
        -0.000          -0.000
   4423343.895 9   3441251.52147  22771333.819    22771333.6934   22771339.7514
        -0.000          -0.000
 -10645265.895 9  -8276818.20247  22391851.433    22391850.7554   22391857.4624
        -0.000          -0.000
  -9051051.593 9  -7027871.77246  23308973.254    23308972.8134   23308979.4804
        -0.000          -0.000
   7758367.971 8   6035086.50745  24237150.670    24237149.5114   24237156.1314
        -0.000          -0.000
   7809182.905 9   6068703.53946  23512766.214    23512765.9914   23512774.1684
        -0.000          -0.000
  -6206130.771 9  -4824161.40548  20802466.223    20802465.8534   20802471.2594
        -0.000          -0.000
   3698221.954 9   2841621.16148  21723785.538    21723784.7974   21723791.6864
        -0.000          -0.000
 97  3  6 16 38 29.9990000  0  9 18  3 29 31 27 22 14 19 16         -0.000967431
  -6700002.628 9  -5004534.92349  19889064.968    19889064.5474   19889069.3974
        -0.000          -0.000
  -6271806.923 9  -4868731.50546  22763405.732    22763405.3134   22763411.3264
        -0.000          -0.000
   4481586.117 9   3486634.97247  22782417.029    22782416.9314   22782422.9734
        -0.000          -0.000
 -10743341.775 9  -8353240.92347  22373188.144    22373187.5044   22373194.1904
        -0.000          -0.000
  -9142750.967 9  -7099325.78146  23291523.536    23291523.0044   23291529.5974
        -0.000          -0.000
   7841940.737 9   6100208.10745  24253054.039    24253053.0504   24253059.5034
        -0.000          -0.000
   7893932.203 9   6134741.78146  23528893.641    23528893.4054   23528901.6424
        -0.000          -0.000
  -6260596.891 9  -4866602.52848  20792101.665    20792101.2984   20792106.6874
        -0.000          -0.000
   3755189.721 9   2886011.57148  21734626.197    21734625.4624   21734632.3534
        -0.000          -0.000
 97  3  6 16 38 59.9990000  0  9 18  3 29 31 27 22 14 19 16         -0.000982909
  -6748219.833 9  -5042106.78049  19879889.560    19879889.1394   19879893.9964
        -0.000          -0.000
  -6312887.720 9  -4900742.49846  22755588.300    22755587.9244   22755593.8624
        -0.000          -0.000
   4540123.176 9   3532248.18346  22793556.339    22793556.2194   22793562.2444
        -0.000          -0.000
 -10841094.086 9  -8429411.52247  22354586.517    22354585.9024   22354592.5524
        -0.000          -0.000
  -9234402.620 9  -7170742.60446  23274082.714    23274082.2184   23274088.8414
        -0.000          -0.000
   7925566.089 9   6165370.70945  24268967.462    24268966.5744   24268972.7264
        -0.000          -0.000
   7978697.505 9   6200792.47946  23545024.142    23545023.8294   23545032.1984
        -0.000          -0.000
  -6314875.544 9  -4908897.57948  20781772.785    20781772.3984   20781777.8014
        -0.000          -0.000
   3812506.999 9   2930674.32348  21745533.332    21745532.6114   21745539.5444
        -0.000          -0.000
 97  3  6 16 39 29.9990000  0  9 18  3 29 31 27 22 14 19 16         -0.000998382
  -6796037.132 9  -5079367.02049  19870790.235    19870789.8184   19870794.6774
        -0.000          -0.000
  -6353447.700 9  -4932347.66646  22747869.999    22747869.5984   22747875.5344
        -0.000          -0.000
   4598961.593 9   3578096.19946  22804753.055    22804752.8984   22804758.9044
        -0.000          -0.000
 -10938520.047 9  -8505327.81647  22336046.944    22336046.3374   22336052.9664
        -0.000          -0.000
  -9325986.656 9  -7242106.75546  23256654.810    23256654.3334   23256660.9064
        -0.000          -0.000
   8009225.172 9   6230559.57845  24284887.315    24284886.3334   24284892.4784
        -0.000          -0.000
   8063476.919 9   6266854.19546  23561157.399    23561157.0294   23561165.3394
        -0.000          -0.000
  -6368965.965 9  -4951045.95748  20771479.728    20771479.3444   20771484.7484
        -0.000          -0.000
   3870175.097 9   2975610.43948  21756507.200    21756506.5244   21756513.4684
        -0.000          -0.000
 97  3  6 16 39 59.9990000  0  9 18  3 29 31 27 22 14 19 16         -0.001013838
  -6843434.817 9  -5116300.28949  19861770.768    19861770.3534   19861775.2144
        -0.000          -0.000
  -6393480.238 9  -4963541.83146  22740252.101    22740251.6724   22740257.5894
        -0.000          -0.000
   4658121.989 9   3624195.11246  22816010.914    22816010.8344   22816016.8794
        -0.000          -0.000
 -11035592.568 9  -8580968.70947  22317574.666    22317574.0554   22317580.6354
        -0.000          -0.000
  -9417472.694 9  -7313394.54646  23239245.526    23239245.0854   23239251.6884
        -0.000          -0.000
   8092927.828 9   6295782.41845  24300815.461    24300814.4264   24300820.7674
        -0.000          -0.000
   8148284.252 9   6332937.64746  23577295.902    23577295.4774   23577303.9164
        -0.000          -0.000
  -6422850.620 9  -4993033.99748  20761225.809    20761225.4534   20761230.8594
        -0.000          -0.000
   3928199.493 9   3020824.19548  21767548.910    21767548.2504   21767555.2114
        -0.000          -0.000
 97  3  6 16 40 29.9980000  0  8 18  3 29 31 27 14 19 16            -0.001029315
  -6890384.558 9  -5152884.50849  19852836.557    19852836.1274   19852841.0094
        -0.000          -0.000
  -6432988.440 9  -4994327.42346  22732733.961    22732733.5564   22732739.4914
        -0.000          -0.000
   4717580.971 9   3670526.70046  22827325.698    22827325.5514   22827331.6404
        -0.000          -0.000
 -11132306.997 9  -8656330.55447  22299170.515    22299169.8664   22299176.4374
        -0.000          -0.000
  -9508843.123 9  -7384592.25346  23221858.190    23221857.8524   23221864.4264
        -0.000          -0.000
   8233125.030 9   6399047.16246  23593440.734    23593440.3214   23593448.7204
        -0.000          -0.000
  -6476521.982 9  -5034855.83248  20751012.491    20751012.1334   20751017.5354
        -0.000          -0.000
   3986584.368 9   3066318.84348  21778659.253    21778658.5484   21778665.5084
        -0.000          -0.000
 97  3  6 16 40 59.9980000  0  8 18  3 29 31 27 14 19 16            -0.001044690
  -6936862.505 9  -5189101.09649  19843992.114    19843991.6704   19843996.5294
        -0.000          -0.000
  -6471986.707 9  -5024715.66946  22725312.842    22725312.4544   22725318.3514
        -0.000          -0.000
   4777314.961 9   3717072.57746  22838692.870    22838692.6824   22838698.7164
        -0.000          -0.000
 -11228690.926 9  -8731434.88047  22280829.280    22280828.6334   22280835.1304
        -0.000          -0.000
  -9600103.999 9  -7455704.59546  23204491.792    23204491.4254   23204498.0254
        -0.000          -0.000
   8318005.593 9   6465187.68146  23609593.071    23609592.6184   23609601.1344
        -0.000          -0.000
  -6530009.284 9  -5076534.24348  20740834.206    20740833.8504   20740839.2504
        -0.000          -0.000
   4045300.076 9   3112071.28048  21789832.529    21789831.8044   21789838.8064
        -0.000          -0.000
 97  3  6 16 41 29.9980000  0  8 18  3 29 31 27 14 19 16            -0.001060045
  -6982859.930 9  -5224943.25349  19835239.093    19835238.6604   19835243.5164
        -0.000          -0.000
  -6510469.771 9  -5054702.45346  22717989.766    22717989.3334   22717995.2554
        -0.000          -0.000
   4837327.270 9   3763835.29746  22850112.798    22850112.6764   22850118.8344
        -0.000          -0.000
 -11324742.803 9  -8806280.46947  22262551.199    22262550.5574   22262556.9484
        -0.000          -0.000
  -9691264.453 9  -7526738.67546  23187144.517    23187144.1744   23187150.7684
        -0.000          -0.000
   8402941.032 9   6531370.95946  23625755.945    23625755.4604   23625763.9984
        -0.000          -0.000
  -6583307.782 9  -5118065.53548  20730691.843    20730691.4914   20730696.8924
        -0.000          -0.000
   4104331.320 9   3158069.58748  21801065.853    21801065.1664   21801072.1684
        -0.000          -0.000
 97  3  6 16 41 59.9980000  0  8 18  3 29 31 27 14 19 16            -0.001075387
  -7028356.301 9  -5260394.97649  19826581.449    19826581.0144   19826585.8694
        -0.000          -0.000
  -6548426.647 9  -5084279.22446  22710766.791    22710766.3944   22710772.3034
        -0.000          -0.000
   4897616.325 9   3810813.69146  22861585.493    22861585.3144   22861591.5464
        -0.000          -0.000
 -11420442.315 9  -8880851.47247  22244340.178    22244339.5244   22244345.9184
        -0.000          -0.000
  -9782328.400 9  -7597697.54746  23169815.710    23169815.2514   23169821.8284
        -0.000          -0.000
   8487947.375 9   6597609.48946  23641932.164    23641931.7914   23641940.2984
        -0.000          -0.000
  -6636411.815 9  -5159445.29748  20720586.494    20720586.1174   20720591.5224
        -0.000          -0.000
   4163694.817 9   3204326.79148  21812362.412    21812361.7064   21812368.7564
        -0.000          -0.000
 97  3  6 16 42 29.9980000  0  8 18  3 29 31 27 14 19 16            -0.001090727
  -7073352.639 9  -5295457.06549  19818018.951    19818018.5214   19818023.3694
        -0.000          -0.000
  -6585858.160 9  -5113446.62446  22703643.787    22703643.3554   22703649.2954
        -0.000          -0.000
   4958173.600 9   3858001.06946  22873109.230    22873109.0954   22873115.3184
        -0.000          -0.000
 -11515802.045 9  -8955157.71147  22226193.740    22226193.1374   22226199.5314
        -0.000          -0.000
  -9873317.015 9  -7668597.74246  23152501.128    23152500.6574   23152507.2054
        -0.000          -0.000
   8573010.519 9   6663892.25346  23658119.253    23658118.8954   23658127.5034
        -0.000          -0.000
  -6689324.397 9  -5200675.87648  20710517.539    20710517.1874   20710522.5894
        -0.000          -0.000
   4223376.730 9   3250832.11048  21823719.558    21823718.8244   21823725.8614
        -0.000          -0.000
 97  3  6 16 42 59.9980000  0  8 18  3 29 31 27 14 19 16            -0.001106065
  -7117859.657 9  -5330137.86549  19809549.577    19809549.1344   19809553.9704
        -0.000          -0.000
  -6622768.670 9  -5142208.03746  22696619.955    22696619.4974   22696625.5164
        -0.000          -0.000
   5019014.787 9   3905409.69246  22884686.975    22884686.8404   22884693.1324
        -0.000          -0.000
 -11610818.500 9  -9029196.46847  22208112.750    22208112.1244   22208118.4974
        -0.000          -0.000
  -9964235.334 9  -7739443.14046  23135200.014    23135199.4554   23135206.0654
        -0.000          -0.000
   8658118.877 9   6730210.27946  23674314.960    23674314.6124   23674323.2754
        -0.000          -0.000
  -6742052.736 9  -5241762.89148  20700483.669    20700483.2944   20700488.7004
        -0.000          -0.000
   4283366.956 9   3297577.68448  21835135.383    21835134.6414   21835141.7094
        -0.000          -0.000
 97  3  6 16 43 29.9980000  0  8 18  3 29 31 27 14 19 16            -0.001121399
  -7161873.685 9  -5364434.51749  19801173.991    19801173.5334   19801178.3924
        -0.000          -0.000
  -6659139.207 9  -5170548.69046  22689698.845    22689698.3894   22689704.4094
        -0.000          -0.000
   5080145.892 9   3953044.20646  22896319.869    22896319.6784   22896326.1354
        -0.000          -0.000
 -11705470.398 9  -9102951.14447  22190101.036    22190100.4344   22190106.7794
        -0.000          -0.000
 -10055082.172 9  -7810232.85446  23117912.390    23117911.9034   23117918.4534
        -0.000          -0.000
   8743276.333 9   6796566.53546  23690520.067    23690519.6144   23690528.4164
        -0.000          -0.000
  -6794587.430 9  -5282699.01448  20690486.655    20690486.3144   20690491.6954
        -0.000          -0.000
   4343693.284 9   3344585.14847  21846615.146    21846614.4244   21846621.4724
        -0.000          -0.000
 97  3  6 16 43 59.9980000  0  8 18  3 29 31 27 14 19 16            -0.001136730
  -7205390.831 9  -5398343.98949  19792892.933    19792892.5064   19792897.3604
        -0.000          -0.000
  -6694972.367 9  -5198470.60346  22682880.041    22682879.5404   22682885.6244
        -0.000          -0.000
   5141562.280 9   4000901.02746  22908007.047    22908006.8774   22908013.3744
        -0.000          -0.000
 -11799757.876 9  -9176421.87047  22172158.667    22172158.1044   22172164.4134
        -0.000          -0.000
 -10145852.433 9  -7880962.88746  23100639.287    23100638.8314   23100645.3764
        -0.000          -0.000
   8828462.125 9   6862944.89945  23706730.577    23706730.1624   23706738.8684
        -0.000          -0.000
  -6846935.897 9  -5323490.02648  20680525.095    20680524.7414   20680530.1164
        -0.000          -0.000
   4404346.908 9   3391847.64647  21858157.209    21858156.4834   21858163.5404
        -0.000          -0.000
 97  3  6 16 44 29.9980000  0  8 18  3 29 31 27 14 19 16            -0.001152055
  -7248406.191 9  -5431862.46249  19784707.391    19784706.9724   19784711.8124
        -0.000          -0.000
  -6730271.906 9  -5225976.70746  22676162.755    22676162.2504   22676168.3544
        -0.000          -0.000
   5203275.817 9   4048989.37946  22919750.692    22919750.6074   22919757.1604
        -0.000          -0.000
 -11893680.247 9  -9249608.08247  22154285.841    22154285.2674   22154291.5004
        -0.000          -0.000
 -10236540.352 9  -7951628.77446  23083381.973    23083381.4884   23083387.9724
        -0.000          -0.000
   8913675.640 9   6929344.83945  23722946.188    23722945.8064   23722954.7214
        -0.000          -0.000
  -6899092.122 9  -5364131.24048  20670600.058    20670599.7124   20670605.1034
        -0.000          -0.000
   4465320.961 9   3439359.83047  21869760.244    21869759.5104   21869766.6124
        -0.000          -0.000
 97  3  6 16 44 59.9980000  0  8 18  3 29 31 27 14 19 16            -0.001167378
  -7290941.265 9  -5465006.68449  19776613.251    19776612.8264   19776617.6704
        -0.000          -0.000
  -6765041.842 9  -5253070.14846  22669546.196    22669545.7904   22669551.8334
        -0.000          -0.000
   5265273.056 9   4097298.81246  22931548.527    22931548.3904   22931554.9684
        -0.000          -0.000
 -11987238.265 9  -9322510.37847  22136482.302    22136481.7024   22136487.9894
        -0.000          -0.000
 -10327163.356 9  -8022244.05046  23066136.894    23066136.4774   23066142.9674
        -0.000          -0.000
   8998914.269 9   6995764.35045  23739166.803    23739166.3674   23739175.3304
        -0.000          -0.000
  -6951068.134 9  -5404632.02648  20660709.340    20660709.0094   20660714.3814
        -0.000          -0.000
   4526607.913 9   3487115.82847  21881422.796    21881422.0674   21881429.2064
        -0.000          -0.000
 97  3  6 16 45 29.9980000  0  8 18  3 29 31 27 14 19 16            -0.001182698
  -7333001.012 9  -5497780.52149  19768609.552    19768609.1274   19768613.9674
        -0.000          -0.000
  -6799268.982 9  -5279740.61646  22663032.962    22663032.5394   22663038.5824
        -0.000          -0.000
   5327550.357 9   4145826.46746  22943399.571    22943399.4544   22943406.0784
        -0.000          -0.000
 -12080424.606 9  -9395123.06247  22118749.517    22118748.9094   22118755.2124
        -0.000          -0.000
 -10417730.889 9  -8092816.12246  23048902.474    23048902.0374   23048908.5354
        -0.000          -0.000
   9084183.564 8   7062207.77045  23755393.071    23755392.6444   23755401.6414
        -0.000          -0.000
  -7002863.852 9  -5444992.32348  20650852.963    20650852.6324   20650858.0314
        -0.000          -0.000
   4588216.184 9   3535122.21547  21893146.543    21893145.7714   21893152.9684
        -0.000          -0.000
 97  3  6 16 45 59.9980000  0  8 18  3 29 31 27 14 19 16            -0.001198008
  -7374589.578 9  -5530187.20549  19760695.532    19760695.0954   19760699.9364
        -0.000          -0.000
  -6832963.312 9  -5305995.91146  22656621.049    22656620.6884   22656626.6734
        -0.000          -0.000
   5390114.577 9   4194577.70046  22955305.264    22955305.1234   22955311.7554
        -0.000          -0.000
 -12173237.198 9  -9467444.52047  22101087.825    22101087.2354   22101093.5234
        -0.000          -0.000
 -10508233.327 9  -8163337.46346  23031680.455    23031679.9504   23031686.3944
        -0.000          -0.000
   9169485.116 8   7128676.32445  23771625.517    23771625.1464   23771634.0644
        -0.000          -0.000
  -7054464.565 9  -5485200.66848  20641033.678    20641033.3504   20641038.7504
        -0.000          -0.000
   4650138.345 9   3583373.17847  21904929.931    21904929.1934   21904936.3754
        -0.000          -0.000
 97  3  6 16 46 29.9980000  0  8 18  3 29 31 27 14 19 16            -0.001213310
  -7415720.520 9  -5562237.29849  19752868.580    19752868.1444   19752872.9884
        -0.000          -0.000
  -6866123.854 9  -5331835.26546  22650310.866    22650310.4664   22650316.3884
        -0.000          -0.000
   5452956.711 9   4243545.49646  22967263.798    22967263.6834   22967270.3664
        -0.000          -0.000
 -12265668.718 9  -9539469.03547  22083498.704    22083498.0924   22083504.3594
        -0.000          -0.000
 -10598679.149 9  -8233814.68546  23014469.119    23014468.6254   23014475.0654
        -0.000          -0.000
   9254815.181 8   7195167.08745  23787863.325    23787863.0954   23787871.9584
        -0.000          -0.000
  -7105869.645 9  -5525256.57148  20631251.639    20631251.3024   20631256.7204
        -0.000          -0.000
   4712372.796 9   3631867.48847  21916772.814    21916772.1044   21916779.2824
        -0.000          -0.000
 97  3  6 16 46 59.9980000  0  8 18  3 29 31 27 14 19 16            -0.001228591
  -7456405.945 9  -5593940.23649  19745126.458    19745126.0244   19745130.8494
        -0.000          -0.000
  -6898739.029 9  -5357249.64646  22644104.414    22644103.9934   22644109.9144
        -0.000          -0.000
   5516064.867 9   4292720.55646  22979273.012    22979272.8504   22979279.6354
        -0.000          -0.000
 -12357728.072 9  -9611203.54547  22065980.396    22065979.8004   22065986.0434
        -0.000          -0.000
 -10689062.798 9  -8304243.46346  22997269.763    22997269.2224   22997275.5994
        -0.000          -0.000
   9340156.902 8   7261666.95645  23804103.422    23804103.0724   23804112.1894
        -0.000          -0.000
  -7157088.757 9  -5565167.56748  20621504.983    20621504.6294   20621510.0404
        -0.000          -0.000
   4774905.917 9   3680594.52247  21928672.483    21928671.7864   21928679.0454
        -0.000          -0.000
 97  3  6 16 47 29.9980000  0  8 18  3 29 31 27 14 19 16            -0.001243839
  -7496629.684 9  -5625283.41949  19737472.126    19737471.6934   19737476.5334
        -0.000          -0.000
  -6930806.251 9  -5382237.06346  22638002.254    22638001.8274   22638007.7104
        -0.000          -0.000
   5579447.791 9   4342109.73646  22991334.446    22991334.2814   22991341.1414
        -0.000          -0.000
 -12449407.270 9  -9682641.83647  22048534.394    22048533.7784   22048539.9754
        -0.000          -0.000
 -10779353.883 9  -8374600.11646  22980087.813    22980087.3174   22980093.7804
        -0.000          -0.000
   9425507.796 9   7328173.92745  23820345.403    23820345.0184   23820354.2714
        -0.000          -0.000
  -7208114.766 9  -5604928.09248  20611795.086    20611794.7124   20611800.1124
        -0.000          -0.000
   4837734.235 9   3729551.58447  21940628.360    21940627.6694   21940634.9524
        -0.000          -0.000
 97  3  6 16 47 59.9980000  0  8 18  3 29 31 27 14 19 16            -0.001259045
  -7536372.982 9  -5656252.22949  19729909.257    19729908.8184   19729913.6504
        -0.000          -0.000
  -6962315.451 9  -5406789.67146  22632006.210    22632005.8094   22632011.6554
        -0.000          -0.000
   5643110.529 9   4391716.96446  23003449.136    23003448.9934   23003455.8104
        -0.000          -0.000
 -12540700.727 9  -9753779.54547  22031161.823    22031161.1954   22031167.3584
        -0.000          -0.000
 -10869536.432 9  -8444872.20346  22962926.680    22962926.1974   22962932.6064
        -0.000          -0.000
   9510873.807 9   7394692.76045  23836590.228    23836589.7624   23836598.8294
        -0.000          -0.000
  -7258935.400 9  -5644528.58348  20602124.267    20602123.8864   20602129.2724
        -0.000          -0.000
   4900846.765 9   3778730.11047  21952638.334    21952637.6254   21952644.9544
        -0.000          -0.000
 97  3  6 16 48 29.9980000  0  8 18  3 29 31 27 14 19 16            -0.001274214
  -7575636.907 9  -5686847.50549  19722437.576    19722437.1314   19722441.9784
        -0.000          -0.000
  -6993258.682 9  -5430901.24646  22626117.879    22626117.5054   22626123.3364
        -0.000          -0.000
   5707051.514 9   4441541.00746  23015616.910    23015616.7204   23015623.4854
        -0.000          -0.000
 -12631623.956 9  -9824628.75847  22013859.668    22013859.0424   22013865.2504
        -0.000          -0.000
 -10959625.411 9  -8515071.38046  22945783.300    22945782.7954   22945789.1894
        -0.000          -0.000
   9596242.885 9   7461213.91245  23852835.562    23852835.0954   23852844.2814
        -0.000          -0.000
  -7309583.502 9  -5683994.63448  20592486.273    20592485.8794   20592491.2574
        -0.000          -0.000
   4964230.185 9   3828119.71347  21964699.916    21964699.1954   21964706.5174
        -0.000          -0.000
 97  3  6 16 48 59.9980000  0  8 18  3 29 31 27 14 19 16            -0.001289342
  -7614414.021 9  -5717063.44749  19715058.537    19715058.1094   19715062.9384
        -0.000          -0.000
  -7023634.643 9  -5454570.80546  22620337.495    22620337.1074   22620342.9644
        -0.000          -0.000
   5771274.690 9   4491584.93046  23027838.223    23027838.0394   23027844.7944
        -0.000          -0.000
 -12722183.304 9  -9895194.42747  21996626.710    21996626.1034   21996632.3314
        -0.000          -0.000
 -11049613.824 9  -8585192.16946  22928659.054    22928658.5504   22928664.9364
        -0.000          -0.000
   9681612.992 9   7527735.87645  23869081.072    23869080.7294   23869089.8274
        -0.000          -0.000
  -7360061.899 9  -5723328.44648  20582880.551    20582880.1494   20582885.5544
        -0.000          -0.000
   5027879.776 9   3877716.72347  21976812.074    21976811.3504   21976818.6924
        -0.000          -0.000
 97  3  6 16 49 29.9980000  0  8 18  3 29 31 27 14 19 16            -0.001304445
  -7652693.543 9  -5746891.65649  19707774.199    19707773.7724   19707778.5944
        -0.000          -0.000
  -7053452.840 9  -5477805.74546  22614663.305    22614662.8944   22614668.7474
        -0.000          -0.000
   5835778.010 9   4541847.14346  23040112.933    23040112.7714   23040119.4964
        -0.000          -0.000
 -12812363.508 9  -9965464.66747  21979465.910    21979465.3034   21979471.5474
        -0.000          -0.000
 -11139515.770 9  -8655245.59746  22911551.186    22911550.7344   22911557.1034
        -0.000          -0.000
   9766997.319 9   7594268.96845  23885329.338    23885328.9204   23885337.9304
        -0.000          -0.000
  -7410359.899 9  -5762521.69048  20573309.146    20573308.7754   20573314.1524
        -0.000          -0.000
   5091807.616 9   3927530.55647  21988977.161    21988976.4794   21988983.8374
        -0.000          -0.000
 97  3  6 16 49 59.9980000  0  8 18  3 29 31 27 14 19 16            -0.001319536
  -7690473.654 9  -5776330.71549  19700584.891    19700584.4694   19700589.2914
        -0.000          -0.000
  -7082714.194 9  -5500606.77446  22609095.053    22609094.6594   22609100.5124
        -0.000          -0.000
   5900554.078 9   4592321.89546  23052439.506    23052439.3194   23052446.0714
        -0.000          -0.000
 -12902163.357 9 -10035438.51747  21962377.475    21962376.9034   21962383.1614
        -0.000          -0.000
 -11229351.795 9  -8725247.64647  22894455.877    22894455.4984   22894461.8364
        -0.000          -0.000
   9852386.300 9   7660805.64745  23901578.571    23901578.2214   23901587.3154
        -0.000          -0.000
  -7460482.176 9  -5801578.00948  20563771.211    20563770.8384   20563776.2144
        -0.000          -0.000
   5156012.348 9   3977560.13547  22001194.994    22001194.2704   22001201.6404
        -0.000          -0.000
 97  3  6 16 50 29.9980000  0  8 18  3 29 31 27 14 19 16            -0.001334617
  -7727749.690 9  -5805376.98749  19693491.549    19693491.1104   19693495.9364
        -0.000          -0.000
  -7111433.135 9  -5522985.15346  22603629.981    22603629.5834   22603635.4584
        -0.000          -0.000
   5965605.259 9   4643011.03746  23064818.304    23064818.2194   23064824.9354
        -0.000          -0.000
 -12991568.519 9 -10105104.81847  21945364.200    21945363.6014   21945369.8564
        -0.000          -0.000
 -11319104.720 9  -8795184.94347  22877376.480    22877376.0124   22877382.3904
        -0.000          -0.000
   9937774.235 9   7727341.52046  23917827.551    23917827.3124   23917836.2364
        -0.000          -0.000
  -7510415.192 9  -5840486.85248  20554269.268    20554268.9064   20554274.2614
        -0.000          -0.000
   5220509.912 9   4027817.90447  22013468.543    22013467.8334   22013475.1874
        -0.000          -0.000
 97  3  6 16 50 59.9980000  0  8 18  3 29 31 27 14 19 16            -0.001349695
  -7764512.309 9  -5834023.19449  19686495.836    19686495.4234   19686500.2294
        -0.000          -0.000
  -7139632.236 9  -5544958.44747  22598263.901    22598263.4884   22598269.3554
        -0.000          -0.000
   6030921.010 9   4693906.31646  23077247.586    23077247.4744   23077254.2434
        -0.000          -0.000
 -13080549.859 9 -10174440.86747  21928431.544    21928430.9934   21928437.2184
        -0.000          -0.000
 -11408763.638 9  -8865049.00246  22860314.930    22860314.5144   22860320.8444
        -0.000          -0.000
  10023168.140 9   7793882.03246  23934077.675    23934077.3534   23934086.5034
        -0.000          -0.000
  -7560139.671 9  -5879233.19548  20544807.026    20544806.6664   20544812.0624
        -0.000          -0.000
   5285298.883 9   4078302.74347  22025797.578    22025796.8684   22025804.2044
        -0.000          -0.000
 97  3  6 16 51 29.9980000  0  8 18  3 29 31 27 14 19 16            -0.001364769
  -7800747.795 9  -5862258.64949  19679600.476    19679600.0764   19679604.8854
        -0.000          -0.000
  -7167313.538 9  -5566528.27546  22592996.308    22592995.8944   22593001.7514
        -0.000          -0.000
   6096514.415 9   4745017.93846  23089729.713    23089729.5424   23089736.3084
        -0.000          -0.000
 -13169079.022 9 -10243424.57447  21911584.976    21911584.3964   21911590.6694
        -0.000          -0.000
 -11498324.270 9  -8934836.45947  22843272.063    22843271.6424   22843278.0284
        -0.000          -0.000
  10108589.859 9   7860444.22946  23950333.164    23950332.7294   23950341.9314
        -0.000          -0.000
  -7609650.079 9  -5917812.73248  20535385.518    20535385.1594   20535390.5744
        -0.000          -0.000
   5350388.904 9   4129022.16147  22038183.862    22038183.1534   22038190.5454
        -0.000          -0.000
 97  3  6 16 51 59.9980000  0  8 18  3 29 31 27 14 19 16            -0.001379842
  -7836444.871 9  -5890074.56049  19672807.582    19672807.1794   19672812.0024
        -0.000          -0.000
  -7194474.911 9  -5587692.96946  22587827.590    22587827.1934   22587833.0984
        -0.000          -0.000
   6162396.556 9   4796354.55646  23102266.711    23102266.5134   23102273.3994
        -0.000          -0.000
 -13257148.727 9 -10312050.26447  21894825.836    21894825.2184   21894831.4694
        -0.000          -0.000
 -11587778.277 9  -9004540.84847  22826249.555    22826249.1074   22826255.4964
        -0.000          -0.000
  10194023.768 9   7927015.89746  23966590.826    23966590.4344   23966599.7784
        -0.000          -0.000
  -7658953.064 9  -5956230.63848  20526003.488    20526003.1244   20526008.5424
        -0.000          -0.000
   5415783.478 9   4179978.90247  22050628.137    22050627.3884   22050634.7764
        -0.000          -0.000
 97  3  6 16 52 29.9980000  0  9 18  3 29  2 31 27 14 19 16         -0.001394875
  -7871599.922 9  -5917468.11949  19666117.802    19666117.3904   19666122.2034
        -0.000          -0.000
  -7221110.190 9  -5608447.70946  22582759.091    22582758.6624   22582764.5644
        -0.000          -0.000
   6228573.493 9   4847920.88046  23114859.812    23114859.6454   23114866.6024
        -0.000          -0.000
  -4216513.90818  -2972740.03655  24533475.938    24533475.2295   24533485.0705
        -0.000          -0.000
 -13344758.168 9 -10380317.30147  21878154.260    21878153.6294   21878159.9134
        -0.000          -0.000
 -11677122.150 9  -9074159.39847  22809247.927    22809247.4674   22809253.8884
        -0.000          -0.000
  10279478.266 8   7993603.63546  23982852.400    23982852.0274   23982861.2854
        -0.000          -0.000
  -7708052.168 9  -5994489.68148  20516660.213    20516659.8524   20516665.2824
        -0.000          -0.000
   5481485.030 9   4231174.83847  22063130.706    22063130.0034   22063137.4154
        -0.000          -0.000
 97  3  6 16 52 59.9980000  0  9 18  3 29  2 31 27 14 19 16         -0.001409956
  -7906213.617 9  -5944439.83849  19659531.070    19659530.6504   19659535.4654
        -0.000          -0.000
  -7247183.930 9  -5628764.89546  22577797.411    22577796.9664   22577802.8694
        -0.000          -0.000
   6295036.339 9   4899709.99246  23127507.460    23127507.2604   23127514.0524
        -0.000          -0.000
  -4331821.898 8  -3062590.38545  24511533.489    24511532.8194   24511542.6814
        -0.000          -0.000
 -13431911.884 9 -10448229.22547  21861569.463    21861568.8514   21861575.0614
        -0.000          -0.000
 -11766377.813 9  -9143709.22447  22792263.123    22792262.6054   22792269.0424
        -0.000          -0.000
  10364951.655 9   8060206.05846  23999117.537    23999117.2464   23999126.6034
        -0.000          -0.000
  -7756951.026 9  -6032592.68148  20507355.037    20507354.7044   20507360.1024
        -0.000          -0.000
   5547489.778 9   4282607.03247  22075691.106    22075690.3674   22075697.7714
        -0.000          -0.000
 97  3  6 16 53 29.9980000  0  9 18  3 29  2 31 27 14 19 16         -0.001425019
  -7940295.691 9  -5970997.30949  19653045.440    19653045.0204   19653049.8244
        -0.000          -0.000
  -7272669.220 9  -5648623.54446  22572947.703    22572947.2644   22572953.1674
        -0.000          -0.000
   6361771.124 9   4951711.00946  23140206.632    23140206.5584   23140213.3394
        -0.000          -0.000
  -4446941.225 8  -3152293.73545  24489627.042    24489626.4544   24489636.3084
        -0.000          -0.000
 -13518633.433 9 -10515804.40347  21845066.857    21845066.2454   21845072.4664
        -0.000          -0.000
 -11855562.827 9  -9213203.99747  22775291.691    22775291.2144   22775297.6644
        -0.000          -0.000
  10450422.818 9   8126806.78745  24015382.420    24015381.9464   24015391.4514
        -0.000          -0.000
  -7805652.729 9  -6070542.05848  20498087.476    20498087.1204   20498092.4994
        -0.000          -0.000
   5613788.351 9   4334268.17347  22088307.323    22088306.6634   22088314.0504
        -0.000          -0.000
 97  3  6 16 53 59.9980000  0  9 18  3 29  2 31 27 14 19 16         -0.001440055
  -7973865.261 9  -5997155.42649  19646657.353    19646656.9624   19646661.7794
        -0.000          -0.000
  -7297550.943 9  -5668011.88746  22568212.757    22568212.3514   22568218.2544
        -0.000          -0.000
   6428747.122 9   5003899.99146  23152951.909    23152951.7264   23152958.4754
        -0.000          -0.000
  -4561867.236 8  -3241846.43145  24467757.356    24467756.7754   24467766.6684
        -0.000          -0.000
 -13604950.461 9 -10583064.35047  21828641.173    21828640.6164   21828646.8244
        -0.000          -0.000
 -11944687.448 9  -9282651.71547  22758331.864    22758331.3854   22758337.7424
        -0.000          -0.000
  10535869.387 8   8193388.33645  24031642.550    24031641.9304   24031651.7274
        -0.000          -0.000
  -7854155.820 9  -6108336.66948  20488857.619    20488857.2794   20488862.6644
        -0.000          -0.000
   5680364.272 9   4386145.44047  22100976.389    22100975.7224   22100983.1374
        -0.000          -0.000
 97  3  6 16 54 29.9980000  0  9 18  3 29  2 31 27 14 19 16         -0.001455044
  -8006947.618 9  -6022933.89549  19640362.025    19640361.6214   19640366.4474
        -0.000          -0.000
  -7321810.391 9  -5686915.33746  22563596.339    22563595.9584   22563601.8764
        -0.000          -0.000
   6495946.934 9   5056263.34746  23165739.681    23165739.6024   23165746.3304
        -0.000          -0.000
  -4676606.995 8  -3331253.98445  24445923.137    24445922.5204   24445932.4024
        -0.000          -0.000
 -13690870.806 9 -10650015.21447  21812291.097    21812290.5164   21812296.6834
        -0.000          -0.000
 -12033745.366 9  -9352047.44547  22741384.771    22741384.2174   22741390.5844
        -0.000          -0.000
  10621301.278 8   8259958.43645  24047899.938    24047899.2354   24047909.0044
        -0.000          -0.000
  -7902455.342 9  -6145972.65649  20479666.551    20479666.2224   20479671.5874
        -0.000          -0.000
   5747194.374 9   4438220.76047  22113693.823    22113693.1494   22113700.5694
        -0.000          -0.000
 97  3  6 16 54 59.9980000  0  9 18  3 29  2 31 27 14 19 16         -0.001469984
  -8039530.315 9  -6048323.02449  19634161.718    19634161.3234   19634166.1494
        -0.000          -0.000
  -7345446.405 9  -5705332.99546  22559098.600    22559098.2214   22559104.0614
        -0.000          -0.000
   6563369.728 9   5108800.44546  23178569.940    23178569.8194   23178576.5754
        -0.000          -0.000
  -4791143.073 8  -3420502.81345  24424127.700    24424126.9894   24424136.9224
        -0.000          -0.000
 -13776378.218 9 -10716644.29947  21796019.599    21796019.0104   21796025.1444
        -0.000          -0.000
 -12122726.173 9  -9421383.11047  22724452.297    22724451.7004   22724457.9834
        -0.000          -0.000
  10706714.925 8   8326514.31545  24064153.773    24064153.1324   24064162.8564
        -0.000          -0.000
  -7950542.328 9  -6183443.02949  20470515.934    20470515.5874   20470520.9454
        -0.000          -0.000
   5814278.044 9   4490493.67347  22126459.520    22126458.8114   22126466.2294
        -0.000          -0.000
 97  3  6 16 55 29.9980000  0  9 18  3 29  2 31 27 14 19 16         -0.001484866
  -8071599.439 9  -6073311.95849  19628059.186    19628058.7784   19628063.6034
        -0.000          -0.000
  -7368466.105 9  -5723270.41846  22554718.083    22554717.7244   22554723.5174
        -0.000          -0.000
   6631046.428 9   5161535.41446  23191448.537    23191448.3944   23191455.1994
        -0.000          -0.000
  -4905468.085 8  -3509587.16845  24402372.245    24402371.6504   24402381.6234
        -0.000          -0.000
 -13861450.516 9 -10782934.33647  21779830.896    21779830.2574   21779836.4084
        -0.000          -0.000
 -12211597.518 9  -9490633.44347  22707540.589    22707540.0074   22707546.3724
        -0.000          -0.000
  10792126.271 8   8393068.41245  24080406.964    24080406.4124   24080416.3184
        -0.000          -0.000
  -7998415.628 9  -6220746.89449  20461405.961    20461405.5944   20461410.9564
        -0.000          -0.000
   5881620.782 9   4542968.44447  22139274.417    22139273.7504   22139281.2524
        -0.000          -0.000
 97  3  6 16 55 59.9980000  0  9 18  3 29  2 31 27 14 19 16         -0.001499712
  -8103174.439 9  -6097915.86649  19622050.688    19622050.2974   19622055.1174
        -0.000          -0.000
  -7390907.723 9  -5740757.39646  22550447.622    22550447.2604   22550453.0254
        -0.000          -0.000
   6698979.595 9   5214470.22046  23204375.902    23204375.7644   23204382.6324
        -0.000          -0.000
  -5019632.409 8  -3598546.30045  24380647.510    24380646.8304   24380656.8534
        -0.000          -0.000
 -13946089.782 9 -10848886.94447  21763724.488    21763723.9084   21763730.0204
        -0.000          -0.000
 -12300363.931 9  -9559802.03447  22690648.847    22690648.3014   22690654.6274
        -0.000          -0.000
  10877515.402 8   8459605.20445  24096656.077    24096655.5924   24096665.5284
        -0.000          -0.000
  -8046100.871 9  -6257904.21749  20452331.727    20452331.3764   20452336.7514
        -0.000          -0.000
   5949212.513 9   4595637.25747  22152136.766    22152136.0954   22152143.6154
        -0.000          -0.000
 97  3  6 16 56 29.9980000  0  9 18  3 29  2 31 27 14 19 16         -0.001514527
  -8134229.241 9  -6122114.42549  19616141.192    19616140.7884   19616145.6084
        -0.000          -0.000
  -7412780.714 9  -5757801.27546  22546285.334    22546284.9624   22546290.7054
        -0.000          -0.000
   6767199.237 9   5267628.26446  23217357.721    23217357.6474   23217364.4064
        -0.000          -0.000
  -5133627.112 8  -3687373.25845  24358955.005    24358954.2374   24358964.3834
        -0.000          -0.000
 -14030264.248 9 -10914477.37847  21747706.600    21747706.0064   21747712.0974
        -0.000          -0.000
 -12389012.883 9  -9628879.10947  22673779.474    22673778.9394   22673785.2774
        -0.000          -0.000
  10962880.704 8   8526123.42245  24112900.853    24112900.3164   24112910.3004
        -0.000          -0.000
  -8093598.076 9  -6294915.02249  20443293.315    20443292.9834   20443298.3464
        -0.000          -0.000
   6017065.579 9   4648509.68847  22165048.857    22165048.1764   22165055.6634
        -0.000          -0.000
 97  3  6 16 56 59.9980000  0  9 18  3 29  2 31 27 14 19 16         -0.001529337
  -8164747.390 9  -6145894.81449  19610333.795    19610333.3894   19610338.2164
        -0.000          -0.000
  -7434116.617 9  -5774426.65147  22542225.250    22542224.8934   22542230.6184
        -0.000          -0.000
   6835713.698 9   5321016.03146  23230395.783    23230395.6524   23230402.5044
        -0.000          -0.000
  -5247460.326 8  -3776074.37645  24337293.207    24337292.4034   24337302.5574
        -0.000          -0.000
 -14113975.317 9 -10979706.72047  21731776.883    21731776.2854   21731782.3224
        -0.000          -0.000
 -12477559.920 9  -9697876.75047  22656929.485    22656929.0044   22656935.3084
        -0.000          -0.000
  11048204.661 8   8592609.40445  24129137.599    24129137.2054   24129147.1334
        -0.000          -0.000
  -8140917.686 9  -6331787.44049  20434288.724    20434288.3574   20434293.7094
        -0.000          -0.000
   6085174.478 9   4701581.46447  22178009.587    22178008.9344   22178016.4554
        -0.000          -0.000
 97  3  6 16 57 29.9980000  0  9 18  3 29  2 31 27 14 19 16         -0.001544123
  -8194728.962 9  -6169257.09249  19604628.485    19604628.0684   19604632.9054
        -0.000          -0.000
  -7454888.598 9  -5790612.59946  22538272.526    22538272.1194   22538277.8684
        -0.000          -0.000
   6904543.995 9   5374649.89346  23243493.872    23243493.6744   23243500.6434
        -0.000          -0.000
  -5361124.935 8  -3864644.11245  24315663.480    24315662.6774   24315672.9124
        -0.000          -0.000
 -14197211.309 9 -11044565.87847  21715937.590    21715936.9804   21715942.9364
        -0.000          -0.000
 -12565991.256 9  -9766784.25147  22640101.581    22640100.9944   22640107.3424
        -0.000          -0.000
  11133509.455 8   8659080.53345  24145370.685    24145370.2784   24145380.0334
        -0.000          -0.000
  -8188032.148 9  -6368500.00249  20425323.131    20425322.7634   20425328.1134
        -0.000          -0.000
   6153553.933 9   4754864.07447  22191021.865    22191021.2264   22191028.7344
        -0.000          -0.000
 97  3  6 16 57 59.9980000  0  9 18  3 29  2 31 27 14 19 16         -0.001558894
  -8224179.724 9  -6192205.74749  19599024.178    19599023.7684   19599028.6094
        -0.000          -0.000
  -7475104.953 9  -5806365.60746  22534425.430    22534425.0724   22534430.8214
        -0.000          -0.000
   6973674.559 9   5428517.74146  23256649.070    23256648.9174   23256655.9094
        -0.000          -0.000
  -5474613.354 8  -3953076.56645  24294067.193    24294066.4284   24294076.7344
        -0.000          -0.000
 -14279980.430 9 -11109061.24547  21700187.088    21700186.4844   21700192.4554
        -0.000          -0.000
 -12654324.881 9  -9835615.61447  22623292.246    22623291.6814   22623298.0204
        -0.000          -0.000
  11218770.709 8   8725517.71245  24161595.245    24161595.0354   24161604.9604
        -0.000          -0.000
  -8234937.773 9  -6405049.83649  20416397.210    20416396.8824   20416402.2444
        -0.000          -0.000
   6222191.830 9   4808348.06047  22204083.238    22204082.5844   22204090.1234
        -0.000          -0.000
 97  3  6 16 58 29.9980000  0  9 18  3 29  2 31 27 14 19 16         -0.001573649
  -8253097.336 9  -6214738.95849  19593521.332    19593520.9284   19593525.7814
        -0.000          -0.000
  -7494772.707 9  -5821691.13446  22530682.717    22530682.3634   22530688.1434
        -0.000          -0.000
   7043085.343 9   5482603.91646  23269857.624    23269857.4624   23269864.5374
        -0.000          -0.000
  -5587919.081 8  -4041366.64045  24272505.801    24272505.1044   24272515.4004
        -0.000          -0.000
 -14362302.043 9 -11173207.90247  21684521.807    21684521.1894   21684527.0854
        -0.000          -0.000
 -12742567.077 9  -9904375.74147  22606500.243    22606499.7264   22606506.0454
        -0.000          -0.000
  11303987.721 9   8791920.32645  24177811.586    24177811.4194   24177821.3914
        -0.000          -0.000
  -8281638.264 9  -6441439.82249  20407510.408    20407510.0554   20407515.4284
        -0.000          -0.000
   6291058.973 9   4862010.67847  22217188.288    22217187.6414   22217195.1554
        -0.000          -0.000
 97  3  6 16 58 59.9980000  0  8 18  3 29  2 31 27 19 16            -0.001588388
  -8281475.348 9  -6236851.70749  19588121.189    19588120.7864   19588125.6324
        -0.000          -0.000
  -7513864.149 9  -5836567.57346  22527049.791    22527049.3784   22527055.1394
        -0.000          -0.000
   7112778.537 9   5536910.18046  23283119.936    23283119.7324   23283126.7534
        -0.000          -0.000
  -5701026.071 9  -4129501.85746  24250982.264    24250981.5554   24250991.6964
        -0.000          -0.000
 -14444168.721 9 -11237000.06047  21668943.021    21668942.4334   21668948.3044
        -0.000          -0.000
 -12830701.786 9  -9973052.10647  22589728.741    22589728.2374   22589734.4944
        -0.000          -0.000
  -8328113.848 9  -6477654.55849  20398666.408    20398666.0574   20398671.4144
        -0.000          -0.000
   6360168.871 9   4915862.46047  22230339.498    22230338.8774   22230346.4194
        -0.000          -0.000
 97  3  6 16 59 29.9980000  0  8 18  3 29  2 31 27 19 16            -0.001603069
  -8309313.507 9  -6258543.78749  19582823.788    19582823.3834   19582828.2274
        -0.000          -0.000
  -7532368.258 9  -5850986.36646  22523528.512    22523528.1064   22523533.9324
        -0.000          -0.000
   7182738.525 9   5591424.31946  23296432.902    23296432.7454   23296439.9134
        -0.000          -0.000
  -5813922.993 9  -4217473.40646  24229498.670    24229497.9084   24229508.0374
        -0.000          -0.000
 -14525566.084 9 -11300426.52947  21653453.574    21653452.9864   21653458.8714
        -0.000          -0.000
 -12918728.532 9 -10041644.34647  22572977.752    22572977.2934   22572983.5464
        -0.000          -0.000
  -8374364.266 9  -6513693.84449  20389865.208    20389864.8604   20389870.2304
        -0.000          -0.000
   6429527.349 9   4969907.94647  22243538.043    22243537.4094   22243544.9534
        -0.000          -0.000
 97  3  6 16 59 59.9980000  0  8 18  3 29  2 31 27 19 16            -0.001617722
  -8336577.987 9  -6279788.85149  19577635.543    19577635.1354   19577639.9814
        -0.000          -0.000
  -7550290.220 9  -5864951.53746  22520118.072    22520117.6774   22520123.5514
        -0.000          -0.000
   7252960.561 9   5646142.66946  23309795.851    23309795.7144   23309802.8954
        -0.000          -0.000
  -5926589.778 9  -4305265.60645  24208058.837    24208058.1304   24208068.2874
        -0.000          -0.000
 -14606476.963 9 -11363473.92647  21638056.681    21638056.0864   21638062.0104
        -0.000          -0.000
 -13006636.052 9 -10110143.67447  22556249.481    22556249.0644   22556255.2274
        -0.000          -0.000
  -8420381.527 9  -6549551.44849  20381108.394    20381108.0534   20381113.4284
        -0.000          -0.000
   6499137.929 9   5024149.86247  22256784.540    22256783.9194   22256791.5444
        -0.000          -0.000
 97  3  6 17  0 29.9980000  0  8 18  3 29  2 31 27 19 16            -0.001632351
  -8363271.831 9  -6300589.26449  19572555.903    19572555.5024   19572560.3404
        -0.000          -0.000
  -7567623.164 9  -5878457.71746  22516819.702    22516819.3014   22516825.2164
        -0.000          -0.000
   7323427.487 9   5701051.83246  23323205.354    23323205.2014   23323212.4514
        -0.000          -0.000
  -6039033.781 9  -4392884.21745  24186661.379    24186660.7944   24186670.8014
        -0.000          -0.000
 -14686902.979 9 -11426143.50347  21622752.068    21622751.4814   21622757.4044
        -0.000          -0.000
 -13094436.685 9 -10178559.71647  22539541.538    22539541.1804   22539547.3094
        -0.000          -0.000
  -8466167.671 9  -6585228.96249  20372395.580    20372395.2444   20372400.6164
        -0.000          -0.000
   6568997.813 9   5078586.04947  22270078.480    22270077.8564   22270085.5604
        -0.000          -0.000
 97  3  6 17  0 59.9980000  0  8 18  3 29  2 31 27 19 16            -0.001646955
  -8389392.848 9  -6320943.31749  19567585.239    19567584.8134   19567589.6794
        -0.000          -0.000
  -7584350.219 9  -5891491.78346  22513636.639    22513636.3144   22513642.1574
        -0.000          -0.000
   7394146.899 9   5756157.72146  23336662.812    23336662.7944   23336670.0164
        -0.000          -0.000
  -6151243.719 9  -4480320.44545  24165308.408    24165307.7664   24165317.7464
        -0.000          -0.000
 -14766827.545 9 -11488422.33847  21607542.882    21607542.3104   21607548.2354
        -0.000          -0.000
 -13182143.111 9 -10246902.34247  22522851.510    22522851.1944   22522857.2864
        -0.000          -0.000
  -8511725.939 9  -6620728.91049  20363726.146    20363725.8264   20363731.1694
        -0.000          -0.000
   6639118.897 9   5133225.76947  22283422.142    22283421.4984   22283429.2114
        -0.000          -0.000
 97  3  6 17  1 29.9980000  0  8 18  3 29  2 31 27 19 16            -0.001661539
  -8414948.438 9  -6340856.77949  19562722.189    19562721.7894   19562726.6544
        -0.000          -0.000
  -7600490.715 9  -5904068.79446  22510565.236    22510564.8904   22510570.7274
        -0.000          -0.000
   7465119.355 9   5811460.78646  23350168.606    23350168.3954   23350175.6544
        -0.000          -0.000
  -6263229.505 9  -4567582.00745  24143998.238    24143997.5984   24144007.3564
        -0.000          -0.000
 -14846259.208 9 -11550317.10547  21592427.514    21592426.9244   21592432.8494
        -0.000          -0.000
 -13269763.210 9 -10315177.71547  22506177.905    22506177.5784   22506183.6954
        -0.000          -0.000
  -8557065.404 9  -6656058.36249  20355098.320    20355097.9994   20355103.3504
        -0.000          -0.000
   6709480.167 9   5188052.63647  22296811.585    22296810.9194   22296818.6494
        -0.000          -0.000
 97  3  6 17  1 59.9980000  0  8 18  3 29  2 31 27 19 16            -0.001676078
  -8439937.717 9  -6360328.95849  19557966.892    19557966.4824   19557971.3594
        -0.000          -0.000
  -7616016.685 9  -5916166.96946  22507610.757    22507610.4364   22507616.2064
        -0.000          -0.000
   7536376.331 9   5866985.56246  23363728.413    23363728.2274   23363735.6134
        -0.000          -0.000
  -6374977.539 9  -4654658.30445  24122733.265    24122732.6004   24122742.3394
        -0.000          -0.000
 -14925183.838 9 -11611816.77447  21577408.608    21577407.9914   21577413.9254
        -0.000          -0.000
 -13357270.247 9 -10383365.00047  22489525.873    22489525.5054   22489531.6914
        -0.000          -0.000
  -8602171.588 9  -6691206.03649  20346514.898    20346514.6014   20346519.9494
        -0.000          -0.000
   6780093.135 9   5243075.64347  22310248.878    22310248.1774   22310255.9394
        -0.000          -0.000
 97  3  6 17  2 29.9980000  0  8 18  3 29  2 31 27 19 16            -0.001690571
  -8464396.102 9  -6379387.45449  19553312.595    19553312.2144   19553317.0954
        -0.000          -0.000
  -7630925.665 9  -5927784.33746  22504773.781    22504773.4104   22504779.1164
        -0.000          -0.000
   7607915.749 9   5922730.42646  23377342.096    23377341.8634   23377349.2964
        -0.000          -0.000
  -6486520.245 9  -4741574.59245  24101507.268    24101506.5244   24101516.3634
        -0.000          -0.000
 -15003608.338 9 -11672926.73147  21562484.851    21562484.2334   21562490.1674
        -0.000          -0.000
 -13444690.244 9 -10451484.45147  22472890.395    22472890.0314   22472896.1514
        -0.000          -0.000
  -8647087.252 9  -6726205.25249  20337967.749    20337967.4484   20337972.8064
        -0.000          -0.000
   6850939.873 9   5298280.80547  22323730.642    22323729.9134   22323737.6634
        -0.000          -0.000
 97  3  6 17  2 59.9980000  0  8 18  3 29  2 31 27 19 16            -0.001705000
  -8488301.016 9  -6398014.67349  19548763.671    19548763.2934   19548768.1514
        -0.000          -0.000
  -7645200.049 9  -5938907.22946  22502057.427    22502057.0604   22502062.8104
        -0.000          -0.000
   7679772.410 9   5978722.49246  23391016.047    23391015.8964   23391023.2714
        -0.000          -0.000
  -6597835.771 9  -4828313.88945  24080324.579    24080323.8984   24080333.5204
        -0.000          -0.000
 -15081494.595 9 -11733617.28647  21547663.516    21547662.9334   21547668.8404
        -0.000          -0.000
 -13531985.993 9 -10519507.07647  22456278.613    22456278.2024   22456284.2914
        -0.000          -0.000
  -8691798.344 9  -6761045.06049  20329459.520    20329459.2084   20329464.5714
        -0.000          -0.000
   6922044.810 9   5353687.15547  22337261.502    22337260.8264   22337268.5704
        -0.000          -0.000
 97  3  6 17  3 29.9980000  0  8 18  3 29  2 31 27 19 16            -0.001719366
  -8511659.561 9  -6416216.14949  19544318.702    19544318.3304   19544323.2044
        -0.000          -0.000
  -7658851.704 9  -5949544.87646  22499459.585    22499459.1994   22499464.9314
        -0.000          -0.000
   7751936.559 9   6034954.16146  23404748.563    23404748.3504   23404755.8044
        -0.000          -0.000
  -6708926.507 9  -4914878.01345  24059184.604    24059183.9944   24059193.6624
        -0.000          -0.000
 -15158834.167 9 -11793881.85547  21532946.241    21532945.7024   21532951.5514
        -0.000          -0.000
 -13619148.819 9 -10587426.12847  22439692.039    22439691.6154   22439697.6984
        -0.000          -0.000
  -8736288.155 9  -6795712.44149  20320993.381    20320993.0994   20320998.4424
        -0.000          -0.000
   6993394.599 9   5409284.30847  22350839.009    22350838.3274   22350846.0554
        -0.000          -0.000
 97  3  6 17  3 59.9980000  0  8 18  3 29  2 31 27 19 16            -0.001733675
  -8534478.416 9  -6433997.08849  19539976.430    19539976.0764   19539980.9444
        -0.000          -0.000
  -7671880.341 9  -5959697.07246  22496980.275    22496979.9054   22496985.6624
        -0.000          -0.000
   7824384.228 9   6091406.72746  23418534.888    23418534.8064   23418542.3124
        -0.000          -0.000
  -6819797.117 9  -5001270.60145  24038086.482    24038085.8804   24038095.5914
        -0.000          -0.000
 -15235632.484 9 -11853724.66847  21518332.038    21518331.4894   21518337.3254
        -0.000          -0.000
 -13706195.226 9 -10655254.46447  22423127.650    22423127.2124   22423133.3344
        -0.000          -0.000
  -8780560.932 9  -6830210.70549  20312568.561    20312568.2524   20312573.5874
        -0.000          -0.000
   7064978.160 9   5465063.60947  22364460.922    22364460.2764   22364468.0654
        -0.000          -0.000
 97  3  6 17  4 29.9980000  0  8 18  3 29  2 31 27 19 16            -0.001747940
  -8556746.789 9  -6451349.08249  19535738.936    19535738.5604   19535743.4384
        -0.000          -0.000
  -7684297.150 9  -5969372.49346  22494617.427    22494617.0804   22494622.8454
        -0.000          -0.000
   7897101.535 9   6148069.42346  23432372.789    23432372.5754   23432380.1204
        -0.000          -0.000
  -6930446.168 9  -5087490.56145  24017030.710    24017029.9764   24017039.7194
        -0.000          -0.000
 -15311896.895 9 -11913151.44747  21503819.358    21503818.8164   21503824.6194
        -0.000          -0.000
 -13793131.420 9 -10722996.93147  22406584.244    22406583.7954   22406589.9354
        -0.000          -0.000
  -8824601.921 9  -6864528.35549  20304187.829    20304187.5434   20304192.8774
        -0.000          -0.000
   7136789.124 9   5521020.11247  22378126.173    22378125.5164   22378133.3364
        -0.000          -0.000
 97  3  6 17  4 59.9980000  0  8 18  3 29  2 31 27 19 16            -0.001762181
  -8578460.500 9  -6468268.87049  19531606.939    19531606.5704   19531611.4474
        -0.000          -0.000
  -7696137.738 9  -5978598.92946  22492364.290    22492363.9104   22492369.6374
        -0.000          -0.000
   7970059.728 9   6204919.79946  23446256.222    23446256.1544   23446263.6794
        -0.000          -0.000
  -7040886.344 9  -5173547.74845  23996014.664    23996013.8454   23996023.6334
        -0.000          -0.000
 -15387657.169 9 -11972185.39547  21489402.654    21489402.1174   21489407.8944
        -0.000          -0.000
 -13879956.200 9 -10790652.56647  22390062.011    22390061.5334   22390067.6514
        -0.000          -0.000
  -8868397.548 9  -6898654.81449  20295853.792    20295853.5134   20295858.8594
        -0.000          -0.000
   7208806.565 9   5577137.50847  22391830.697    22391830.0684   22391837.9434
        -0.000          -0.000
 97  3  6 17  5 29.9980000  0  8 18  3 29  2 31 27 19 16            -0.001776402
  -8599616.241 9  -6484753.87649  19527581.160    19527580.7974   19527585.6724
        -0.000          -0.000
  -7707400.146 9  -5987374.82646  22490221.124    22490220.7044   22490226.5014
        -0.000          -0.000
   8043249.905 9   6261950.96646  23460184.037    23460183.9324   23460191.5224
        -0.000          -0.000
  -7151122.736 8  -5259446.15145  23975037.323    23975036.5984   23975046.1934
        -0.000          -0.000
 -15462935.495 9 -12030843.80447  21475077.708    21475077.1734   21475082.9134
        -0.000          -0.000
 -13966673.883 9 -10858224.74547  22373560.104    22373559.6474   22373565.7344
        -0.000          -0.000
  -8911943.049 9  -6932586.37049  20287567.345    20287567.0794   20287572.4444
        -0.000          -0.000
   7281020.361 9   5633407.89647  22405572.646    22405571.9854   22405579.8304
        -0.000          -0.000
 97  3  6 17  5 59.9980000  0  8 18  3 29  2 31 27 19 16            -0.001790595
  -8620185.146 9  -6500781.60849  19523667.055    19523666.6774   19523671.5694
        -0.000          -0.000
  -7718055.022 9  -5995677.31546  22488193.542    22488193.1784   22488198.9404
        -0.000          -0.000
   8116684.962 9   6319172.92945  23474158.305    23474158.2584   23474165.7904
        -0.000          -0.000
  -7261146.981 9  -5345179.24245  23954100.368    23954099.6024   23954109.2524
        -0.000          -0.000
 -15537721.587 9 -12089118.64847  21460846.418    21460845.8864   21460851.5944
        -0.000          -0.000
 -14053264.551 9 -10925697.96247  22357082.387    22357081.9644   22357088.0584
        -0.000          -0.000
  -8955231.730 9  -6966317.80449  20279329.806    20279329.5024   20279334.8514
        -0.000          -0.000
   7353458.281 9   5689852.92847  22419357.282    22419356.5624   22419364.3884
        -0.000          -0.000
 97  3  6 17  6 29.9980000  0  9 18  3 29  2 31 10 27 19 16         -0.001804706
  -8640177.245 9  -6516359.87449  19519862.704    19519862.3304   19519867.1994
        -0.000          -0.000
  -7728125.952 9  -6003524.78846  22486277.133    22486276.7254   22486282.5514
        -0.000          -0.000
   8190357.860 8   6376580.23345  23488177.902    23488177.8434   23488185.2404
        -0.000          -0.000
  -7370971.265 8  -5430756.50845  23933201.411    23933200.7604   23933210.3394
        -0.000          -0.000
 -15612020.480 9 -12147013.85947  21446707.781    21446707.2434   21446712.9324
        -0.000          -0.000
  -6970194.62418  -5405246.23055  24193765.789    24193764.7065   24193771.6825
        -0.000          -0.000
 -14139736.798 9 -10993078.90047  22340627.329    22340626.8964   22340632.9714
        -0.000          -0.000
  -8998280.830 9  -6999862.55249  20271137.865    20271137.5634   20271142.8844
        -0.000          -0.000
   7426111.501 9   5746465.72147  22433182.793    22433182.0614   22433189.9574
        -0.000          -0.000
 97  3  6 17  6 59.9980000  0  9 18  3 29  2 31 10 27 19 16         -0.001818861
  -8659590.586 9  -6531487.16649  19516168.492    19516168.1184   19516172.9884
        -0.000          -0.000
  -7737609.163 9  -6010914.30646  22484472.583    22484472.0944   22484477.9664
        -0.000          -0.000
   8264275.686 9   6434178.39945  23502244.141    23502243.9754   23502251.4534
        -0.000          -0.000
  -7480594.852 8  -5516177.38945  23912340.612    23912339.9324   23912349.4894
        -0.000          -0.000
 -15685820.477 9 -12204520.32347  21432664.084    21432663.5364   21432669.2474
        -0.000          -0.000
  -7054528.096 8  -5470960.59345  24177717.340    24177716.3954   24177723.4064
        -0.000          -0.000
 -14226094.004 9 -11060370.20247  22324194.026    22324193.6224   22324199.7624
        -0.000          -0.000
  -9041103.022 9  -7033230.49149  20262989.080    20262988.7754   20262994.1034
        -0.000          -0.000
   7498980.492 9   5803246.64847  22447049.317    22447048.6814   22447056.5784
        -0.000          -0.000
 97  3  6 17  7 29.9980000  0  9 18  3 29  2 31 10 27 19 16         -0.001832979
  -8678434.691 9  -6546170.89149  19512582.594    19512582.2004   19512587.0854
        -0.000          -0.000
  -7746479.312 9  -6017826.11046  22482784.621    22482784.1324   22482790.0094
        -0.000          -0.000
   8338454.143 9   6491979.63545  23516360.003    23516359.9034   23516367.3674
        -0.000          -0.000
  -7589991.725 9  -5601421.61645  23891523.035    23891522.3334   23891531.8184
        -0.000          -0.000
 -15759098.773 9 -12261620.27147  21418719.676    21418719.1294   21418724.7764
        -0.000          -0.000
  -7138382.879 8  -5536301.96245  24161760.164    24161759.5624   24161766.5074
        -0.000          -0.000
 -14312339.264 9 -11127574.26247  22307782.037    22307781.6644   22307787.7794
        -0.000          -0.000
  -9083701.313 9  -7066423.96049  20254882.917    20254882.6064   20254887.9414
        -0.000          -0.000
   7572071.128 9   5860200.29147  22460958.040    22460957.4424   22460965.3044
        -0.000          -0.000
 97  3  6 17  7 59.9980000  0  9 18  3 29  2 31 10 27 19 16         -0.001847057
  -8696707.966 9  -6560409.82349  19509105.285    19509104.9084   19509109.7864
        -0.000          -0.000
  -7754739.232 9  -6024262.41146  22481212.808    22481212.3504   22481218.2034
        -0.000          -0.000
   8412898.209 9   6549987.83745  23530526.361    23530526.1964   23530533.7964
        -0.000          -0.000
  -7699142.526 9  -5686474.09946  23870752.241    23870751.5124   23870761.0224
        -0.000          -0.000
 -15831823.342 9 -12318288.73847  21404880.662    21404880.0604   21404885.7034
        -0.000          -0.000
  -7221767.218 8  -5601276.82845  24145892.880    24145892.0764   24145899.3994
        -0.000          -0.000
 -14398466.538 9 -11194686.39647  22291392.498    22291392.1314   22291398.2484
        -0.000          -0.000
  -9126074.260 9  -7099441.83949  20246819.575    20246819.2594   20246824.6104
        -0.000          -0.000
   7645381.764 9   5917325.35247  22474908.628    22474908.0654   22474916.0124
        -0.000          -0.000
 97  3  6 17  8 29.9980000  0  9 18  3 29  2 31 10 27 19 16         -0.001861102
  -8714420.568 9  -6574211.86249  19505734.684    19505734.3314   19505739.2074
        -0.000          -0.000
  -7762412.976 9  -6030241.94046  22479752.469    22479752.0814   22479757.9124
        -0.000          -0.000
   8487607.033 9   6608202.36145  23544743.238    23544743.0134   23544750.6814
        -0.000          -0.000
  -7808041.407 9  -5771330.28146  23850029.428    23850028.7894   23850038.1954
        -0.000          -0.000
 -15903986.340 9 -12374519.62347  21391148.428    21391147.8564   21391153.4864
        -0.000          -0.000
  -7304693.368 8  -5665894.60445  24130112.801    24130112.0314   24130119.0334
        -0.000          -0.000
 -14484478.838 9 -11261708.92947  22275024.860    22275024.4914   22275030.6054
        -0.000          -0.000
  -9168239.155 9  -7132297.59549  20238795.843    20238795.5534   20238800.8764
        -0.000          -0.000
   7718902.411 9   5974614.05847  22488899.177    22488898.6604   22488906.6364
        -0.000          -0.000
 97  3  6 17  8 59.9980000  0  9 18  3 29  2 31 10 27 19 16         -0.001875109
  -8731571.009 9  -6587575.85349  19502471.121    19502470.7604   19502475.6434
        -0.000          -0.000
  -7769494.509 9  -6035760.01746  22478404.893    22478404.5254   22478410.3684
        -0.000          -0.000
   8562577.468 9   6666620.70545  23559009.765    23559009.6074   23559017.2004
        -0.000          -0.000
  -7916690.871 9  -5855992.09946  23829354.010    23829353.3624   23829362.7504
        -0.000          -0.000
 -15975584.176 9 -12430310.12047  21377523.751    21377523.1794   21377528.8294
        -0.000          -0.000
  -7387152.101 8  -5730148.18445  24114421.516    24114420.8134   24114427.8054
        -0.000          -0.000
 -14570365.738 9 -11328633.75847  22258681.163    22258680.7264   22258686.8134
        -0.000          -0.000
  -9210205.611 9  -7164998.72849  20230809.903    20230809.6024   20230814.9474
        -0.000          -0.000
   7792639.008 9   6032071.04347  22502930.853    22502930.2754   22502938.3044
        -0.000          -0.000
 97  3  6 17  9 29.9980000  0  9 18  3 29  2 31 10 27 19 16         -0.001889074
  -8748165.049 9  -6600506.28949  19499313.341    19499312.9874   19499317.8814
        -0.000          -0.000
  -7775982.626 9  -6040815.69246  22477170.236    22477169.8394   22477175.6934
        -0.000          -0.000
   8637793.439 9   6725230.41046  23573323.001    23573322.8584   23573330.4504
        -0.000          -0.000
  -8025091.619 9  -5940460.12246  23808725.960    23808725.2534   23808734.8264
        -0.000          -0.000
 -16046623.572 9 -12485665.47447  21364005.358    21364004.8374   21364010.4704
        -0.000          -0.000
  -7469122.382 8  -5794021.13945  24098823.125    24098822.4024   24098829.3894
        -0.000          -0.000
 -14656123.390 9 -11395457.86447  22242362.030    22242361.5944   22242367.6674
        -0.000          -0.000
  -9251970.027 9  -7197542.43049  20222862.443    20222862.1344   20222867.4884
        -0.000          -0.000
   7866592.430 9   6089696.97447  22517003.812    22517003.2424   22517011.3514
        -0.000          -0.000
 97  3  6 17  9 59.9980000  0  9 18  3 29  2 31 10 27 19 16         -0.001903000
  -8764198.141 9  -6612999.61949  19496262.332    19496261.9894   19496266.8854
        -0.000          -0.000
  -7781888.689 9  -6045417.80446  22476046.358    22476045.9274   22476051.7884
        -0.000          -0.000
   8713238.151 9   6784018.32345  23587679.798    23587679.5394   23587687.3654
        -0.000          -0.000
  -8133250.496 9  -6024739.68446  23788143.934    23788143.2514   23788152.8404
        -0.000          -0.000
 -16117109.853 9 -12540589.82347  21350592.257    21350591.7134   21350597.3264
        -0.000          -0.000
  -7550587.214 8  -5857500.23745  24083321.006    24083320.0954   24083327.1484
        -0.000          -0.000
 -14741745.115 9 -11462176.05647  22226068.772    22226068.3534   22226074.2844
        -0.000          -0.000
  -9293529.867 9  -7229926.71849  20214953.861    20214953.5294   20214958.8964
        -0.000          -0.000
   7940763.391 9   6147492.42547  22531118.168    22531117.5824   22531125.7454
        -0.000          -0.000
 97  3  6 17 10 29.9980000  0  9 18  3 29  2 31 10 27 19 16         -0.001916883
  -8779661.001 9  -6625048.61849  19493319.863    19493319.5164   19493324.4024
        -0.000          -0.000
  -7787205.938 9  -6049561.11246  22475034.505    22475034.1084   22475039.9054
        -0.000          -0.000
   8788916.808 9   6842988.54845  23602080.981    23602080.7994   23602088.6644
        -0.000          -0.000
  -8241179.204 9  -6108839.89046  23767605.732    23767605.0604   23767614.5414
        -0.000          -0.000
 -16187059.833 9 -12595096.27647  21337281.201    21337280.6584   21337286.2464
        -0.000          -0.000
  -7631528.763 9  -5920571.61045  24067918.539    24067917.5474   24067924.6274
        -0.000          -0.000
 -14827233.632 9 -11528790.45547  22209800.802    22209800.4054   22209806.3774
        -0.000          -0.000
  -9334880.335 9  -7262147.86149  20207085.128    20207084.7964   20207090.1584
        -0.000          -0.000
   8015161.168 9   6205464.60146  22545275.554    22545275.0214   22545283.2314
        -0.000          -0.000
 97  3  6 17 10 59.9980000  0  9 18  3 29  2 31 10 27 19 16         -0.001930725
  -8794559.014 9  -6636657.47949  19490484.912    19490484.5584   19490489.4534
        -0.000          -0.000
  -7791916.108 9  -6053231.37246  22474138.146    22474137.8084   22474143.6124
        -0.000          -0.000
   8864826.358 9   6902138.68646  23616526.199    23616525.9994   23616533.9084
        -0.000          -0.000
  -8348885.215 9  -6192766.57146  23747110.003    23747109.2584   23747118.6584
        -0.000          -0.000
 -16256489.602 9 -12649197.38347  21324069.135    21324068.5944   21324074.1934
        -0.000          -0.000
  -7711944.321 9  -5983233.11046  24052616.090    24052615.1314   24052621.9184
        -0.000          -0.000
 -14912611.116 9 -11595318.32947  22193553.982    22193553.6234   22193559.5344
        -0.000          -0.000
  -9376005.857 9  -7294193.72149  20199259.195    20199258.9044   20199264.2374
        -0.000          -0.000
   8089759.731 9   6263593.24947  22559471.374    22559470.7334   22559478.9874
        -0.000          -0.000
 97  3  6 17 11 29.9980000  0  9 18  3 29  2 31 10 27 19 16         -0.001944525
  -8808888.989 9  -6647823.71149  19487758.030    19487757.6764   19487762.5864
        -0.000          -0.000
  -7796012.617 9  -6056423.45646  22473358.647    22473358.3174   22473364.1224
        -0.000          -0.000
   8940976.318 9   6961476.13946  23631017.087    23631016.8474   23631025.0734
        -0.000          -0.000
  -8456358.489 9  -6276511.87846  23726658.478    23726657.7574   23726667.1124
        -0.000          -0.000
 -16325398.823 9 -12702892.86047  21310956.124    21310955.5724   21310961.2004
        -0.000          -0.000
  -7791836.839 9  -6045487.05445  24037413.008    24037412.0864   24037418.8724
        -0.000          -0.000
 -14997890.077 9 -11661769.43247  22177325.916    22177325.5574   22177331.4734
        -0.000          -0.000
  -9416890.570 9  -7326051.93649  20191479.078    20191478.7704   20191484.1184
        -0.000          -0.000
   8164528.410 9   6321854.43446  22573699.410    22573698.8434   22573707.1074
        -0.000          -0.000
 97  3  6 17 11 59.9980000  0  9 18  3 29  2 31 10 27 19 16         -0.001958290
  -8822638.959 9  -6658537.98749  19485141.491    19485141.1374   19485146.0604
        -0.000          -0.000
  -7799506.287 9  -6059145.78546  22472693.780    22472693.4684   22472699.3054
        -0.000          -0.000
   9017391.545 9   7021020.31446  23645558.527    23645558.3014   23645566.5754
        -0.000          -0.000
  -8563598.682 9  -6360075.56246  23706251.268    23706250.5644   23706260.0504
        -0.000          -0.000
 -16393761.940 9 -12756162.79747  21297946.987    21297946.4294   21297952.1254
        -0.000          -0.000
  -7871228.680 9  -6107350.83845  24022305.234    24022304.2854   24022311.0854
        -0.000          -0.000
 -15083071.292 9 -11728144.37047  22161116.460    22161116.0894   22161121.9764
        -0.000          -0.000
  -9457531.649 9  -7357720.30849  20183745.382    20183745.0744   20183750.4164
        -0.000          -0.000
   8239454.647 9   6380238.41246  22587957.559    22587957.0234   22587965.2084
        -0.000          -0.000
 97  3  6 17 12 29.9980000  0  9 18  3 29  2 31 10 27 19 16         -0.001972030
  -8835811.969 9  -6668802.68049  19482634.757    19482634.3834   19482639.3194
        -0.000          -0.000
  -7802407.672 9  -6061406.61046  22472141.730    22472141.3914   22472147.1724
        -0.000          -0.000
   9094075.661 9   7080774.00146  23660151.128    23660150.8384   23660159.2914
        -0.000          -0.000
  -8670620.067 9  -6443468.76346  23685885.739    23685885.0534   23685894.4354
        -0.000          -0.000
 -16461573.461 9 -12809002.92147  21285042.896    21285042.3524   21285048.0494
        -0.000          -0.000
  -7950150.135 9  -6168848.08145  24007287.103    24007286.0324   24007292.8484
        -0.000          -0.000
 -15168181.734 9 -11794464.16347  22144920.522    22144920.1014   22144925.9764
        -0.000          -0.000
  -9497939.612 9  -7389207.02749  20176056.040    20176055.7274   20176061.0624
        -0.000          -0.000
   8314518.287 9   6438729.45846  22602241.855    22602241.2744   22602249.3954
        -0.000          -0.000
 97  3  6 17 12 59.9980000  0  9 18  3 29  2 31 10 27 19 16         -0.001985743
  -8848406.499 9  -6678616.62049  19480238.111    19480237.7524   19480242.6864
        -0.000          -0.000
  -7804705.973 9  -6063197.48246  22471704.433    22471704.0634   22471709.8364
        -0.000          -0.000
   9171033.069 8   7140740.61646  23674795.812    23674795.5704   23674804.0474
        -0.000          -0.000
  -8777396.653 9  -6526671.20046  23665566.688    23665566.0304   23665575.5194
        -0.000          -0.000
 -16528807.344 9 -12861392.94647  21272248.710    21272248.1794   21272253.8344
        -0.000          -0.000
  -8028605.076 9  -6229981.83445  23992357.635    23992356.5874   23992363.3944
        -0.000          -0.000
 -15253211.934 9 -11860721.42447  22128739.774    22128739.3434   22128745.2394
        -0.000          -0.000
  -9538098.288 9  -7420499.50849  20168414.093    20168413.7684   20168419.0864
        -0.000          -0.000
   8389722.523 9   6497330.04846  22616552.844    22616552.2764   22616560.3994
        -0.000          -0.000
 97  3  6 17 13 29.9980000  0  9 18  3 29  2 31 10 27 19 16         -0.001999439
  -8860417.538 9  -6687975.88849  19477952.488    19477952.1444   19477957.0874
        -0.000          -0.000
  -7806430.508 9  -6064541.27546  22471376.250    22471375.8604   22471381.6324
        -0.000          -0.000
   9248243.038 9   7200904.04846  23689488.465    23689488.3484   23689496.7734
        -0.000          -0.000
  -8883933.484 9  -6609686.83846  23645293.326    23645292.7244   23645302.0704
        -0.000          -0.000
 -16595453.383 9 -12913324.89847  21259566.407    21259565.8694   21259571.5144
        -0.000          -0.000
  -8106603.059 9  -6290759.48145  23977515.232    23977514.1924   23977520.8914
        -0.000          -0.000
 -15338153.100 9 -11926909.32047  22112575.992    22112575.5924   22112581.5074
        -0.000          -0.000
  -9578029.365 9  -7451614.62849  20160815.397    20160815.1084   20160820.4494
        -0.000          -0.000
   8465077.524 9   6556048.11646  22630892.478    22630891.9304   22630900.0814
        -0.000          -0.000
 97  3  6 17 13 59.9980000  0  9 18  3 29  2 31 10 27 19 16         -0.002013119
  -8871835.379 9  -6696872.92349  19475779.773    19475779.4384   19475784.3714
        -0.000          -0.000
  -7807581.500 9  -6065438.15246  22471157.214    22471156.8624   22471162.5804
        -0.000          -0.000
   9325687.852 8   7261250.45845  23704225.806    23704225.7174   23704234.1194
        -0.000          -0.000
  -8990220.726 9  -6692507.98246  23625067.528    23625066.8574   23625076.1174
        -0.000          -0.000
 -16661496.326 9 -12964786.91047  21246998.905    21246998.3394   21247003.9414
        -0.000          -0.000
  -8184134.773 9  -6351173.83446  23962761.437    23962760.4464   23962767.0914
        -0.000          -0.000
 -15422992.631 9 -11993018.01547  22096431.544    22096431.0894   22096437.0624
        -0.000          -0.000
  -9617734.845 9  -7482553.96249  20153259.653    20153259.3994   20153264.7424
        -0.000          -0.000
   8540614.213 9   6614907.76346  22645266.633    22645266.1094   22645274.3304
        -0.000          -0.000
 97  3  6 17 14 29.9970000  0  9 18  3 29  2 31 10 27 19 16         -0.002026767
  -8882658.661 9  -6705306.66749  19473720.156    19473719.8344   19473724.7664
        -0.000          -0.000
  -7808135.198 9  -6065869.59546  22471051.872    22471051.4654   22471057.2284
        -0.000          -0.000
   9403343.483 8   7321761.14345  23719003.118    23719003.1964   23719011.6014
        -0.000          -0.000
  -9096236.313 9  -6775117.44246  23604893.264    23604892.6234   23604902.0254
        -0.000          -0.000
 -16726948.819 9 -13015788.83447  21234543.623    21234543.0924   21234548.7034
        -0.000          -0.000
  -8261160.056 9  -6411193.55345  23948103.988    23948102.9434   23948109.5674
        -0.000          -0.000
 -15507717.451 9 -12059037.33247  22080308.916    22080308.4904   22080314.4574
        -0.000          -0.000
  -9657225.581 9  -7513325.96249  20145744.880    20145744.5914   20145749.9244
        -0.000          -0.000
   8616345.216 9   6673918.81046  22659677.824    22659677.3124   22659685.5524
        -0.000          -0.000
 97  3  6 17 14 59.9970000  0  9 18  3 29  2 31 10 27 19 16         -0.002040383
  -8892912.961 9  -6713297.04849  19471768.843    19471768.5054   19471773.4484
        -0.000          -0.000
  -7808095.829 9  -6065838.91546  22471059.442    22471058.9604   22471064.7604
        -0.000          -0.000
   9481183.108 8   7382415.24145  23733815.806    23733815.7614   23733824.1094
        -0.000          -0.000
  -9201993.715 9  -6857525.71346  23584768.276    23584767.5964   23584776.9554
        -0.000          -0.000
 -16791843.130 9 -13066355.80547  21222194.640    21222194.1314   21222199.7454
        -0.000          -0.000
  -8337673.575 9  -6470814.47845  23933543.942    23933542.9534   23933549.6074
        -0.000          -0.000
 -15592333.661 9 -12124972.00947  22064206.961    22064206.5384   22064212.4584
        -0.000          -0.000
  -9696525.034 9  -7543948.90749  20138266.446    20138266.1684   20138271.5054
        -0.000          -0.000
   8692263.063 9   6733075.47146  22674124.673    22674124.1104   22674132.3764
        -0.000          -0.000
 97  3  6 17 15 29.9970000  0  9 18  3 29  2 31 10 27 19 16         -0.002053948
  -8902565.308 9  -6720818.38249  19469932.100    19469931.7674   19469936.7124
        -0.000          -0.000
  -7807429.745 9  -6065319.88746  22471186.168    22471185.7124   22471191.4804
        -0.000          -0.000
   9559231.554 8   7443231.99645  23748667.963    23748667.8994   23748676.5034
        -0.000          -0.000
  -9307477.147 9  -6939720.51946  23564695.308    23564694.6824   23564703.9794
        -0.000          -0.000
 -16856150.060 9 -13116465.08047  21209957.403    21209956.9224   21209962.5344
        -0.000          -0.000
  -8413631.820 9  -6530002.74846  23919089.639    23919088.7094   23919095.2034
        -0.000          -0.000
 -15676805.604 9 -12190794.27647  22048132.366    22048131.9964   22048137.9414
        -0.000          -0.000
  -9735614.492 9  -7574408.22649  20130827.961    20130827.6684   20130832.9954
        -0.000          -0.000
   8768378.933 9   6792386.42546  22688609.213    22688608.5934   22688616.8634
        -0.000          -0.000
 97  3  6 17 15 59.9970000  0  9 18  3 29  2 31 10 27 19 16         -0.002067456
  -8911640.945 9  -6727890.32249  19468205.109    19468204.7524   19468209.7014
        -0.000          -0.000
  -7806136.146 9  -6064311.90146  22471432.345    22471431.8914   22471437.6594
        -0.000          -0.000
   9637499.127 8   7504219.52545  23763561.696    23763561.8794   23763570.6024
        -0.000          -0.000
  -9412698.445 9  -7021711.06546  23544672.286    23544671.7134   23544680.9204
        -0.000          -0.000
 -16919888.133 9 -13166131.09347  21197828.494    21197827.9794   21197833.5554
        -0.000          -0.000
  -8489034.391 9  -6588758.02745  23904741.030    23904740.2734   23904746.7164
        -0.000          -0.000
 -15761146.060 9 -12256514.07547  22032082.874    22032082.5074   22032088.4724
        -0.000          -0.000
  -9774484.742 9  -7604696.73149  20123431.190    20123430.9094   20123436.2254
        -0.000          -0.000
   8844672.010 9   6851835.45946  22703127.372    22703126.8024   22703135.1224
        -0.000          -0.000
 97  3  6 17 16 29.9970000  0  9 18  3 29  2 31 10 27 19 16         -0.002080909
  -8920154.981 9  -6734524.65849  19466584.980    19466584.6344   19466589.5644
        -0.000          -0.000
  -7804216.303 9  -6062815.92146  22471797.709    22471797.2784   22471802.9764
        -0.000          -0.000
   9715998.561 8   7565387.68045  23778499.470    23778499.7174   23778508.7954
        -0.000          -0.000
  -9517677.730 9  -7103513.03046  23524695.383    23524694.7624   23524703.9804
        -0.000          -0.000
 -16983078.949 9 -13215370.67147  21185803.656    21185803.1344   21185808.7204
        -0.000          -0.000
  -8563885.875 9  -6647083.88045  23890497.089    23890496.4944   23890502.9244
        -0.000          -0.000
 -15845359.555 9 -12322134.95247  22016057.605    22016057.2214   22016063.1804
        -0.000          -0.000
  -9813133.328 9  -7634812.50949  20116076.585    20116076.3104   20116081.6384
        -0.000          -0.000
   8921123.504 9   6911407.92346  22717675.691    22717675.1014   22717683.4734
        -0.000          -0.000
 97  3  6 17 16 59.9970000  0  9 18  3 29  2 31 10 27 19 16         -0.002094316
  -8928110.406 9  -6740723.71149  19465071.084    19465070.7424   19465075.6944
        -0.000          -0.000
  -7801690.618 9  -6060847.86046  22472278.271    22472277.8764   22472283.5814
        -0.000          -0.000
   9794742.243 8   7626746.19445  23793483.844    23793484.1944   23793493.3764
        -0.000          -0.000
  -9622436.120 9  -7185142.87946  23504760.470    23504759.8044   23504769.0734
        -0.000          -0.000
 -17045718.249 9 -13264180.49347  21173883.845    21173883.2964   21173888.8554
        -0.000          -0.000
  -8638203.612 9  -6704993.83645  23876354.828    23876354.2844   23876360.9154
        -0.000          -0.000
 -15929454.193 9 -12387663.22247  22000054.856    22000054.5194   22000060.4434
        -0.000          -0.000
  -9851551.091 9  -7664748.42649  20108765.908    20108765.6414   20108771.0104
        -0.000          -0.000
   8997706.955 9   6971083.20246  22732249.123    22732248.5624   22732256.8944
        -0.000          -0.000
 97  3  6 17 17 29.9970000  0  9 18  3 29  2 31 10 27 19 16         -0.002107682
  -8935500.130 9  -6746481.95849  19463664.871    19463664.5454   19463669.4914
        -0.000          -0.000
  -7798576.399 9  -6058421.20746  22472870.879    22472870.4954   22472876.1834
        -0.000          -0.000
   9873738.240 8   7688301.29245  23808516.625    23808516.8264   23808525.9354
        -0.000          -0.000
  -9726974.305 9  -7266601.13346  23484867.411    23484866.7454   23484875.9814
        -0.000          -0.000
 -17107797.519 9 -13312553.93348  21162070.499    21162069.9844   21162075.5434
        -0.000          -0.000
  -8711991.468 9  -6762490.89245  23862313.362    23862312.8854   23862319.5444
        -0.000          -0.000
 -16013422.860 9 -12453093.32247  21984076.179    21984075.8214   21984081.7314
        -0.000          -0.000
  -9889721.807 9  -7694491.84049  20101502.265    20101502.0204   20101507.3704
        -0.000          -0.000
   9074415.434 9   7030855.92146  22746846.341    22746845.7064   22746854.1294
        -0.000          -0.000
 97  3  6 17 17 59.9970000  0  9 18  3 29  2 31 10 27 19 16         -0.002121011
  -8942329.772 9  -6751803.77949  19462365.282    19462364.9454   19462369.8914
        -0.000          -0.000
  -7794883.494 9  -6055543.62246  22473573.624    22473573.1894   22473578.9334
        -0.000          -0.000
   9952975.742 8   7750044.62145  23823595.351    23823595.5674   23823604.6244
        -0.000          -0.000
  -9831275.520 9  -7347874.73846  23465019.519    23465018.8254   23465027.9864
        -0.000          -0.000
 -17169324.848 9 -13360497.29348  21150362.187    21150361.6804   21150367.2404
        -0.000          -0.000
  -8785261.995 9  -6819584.82745  23848370.401    23848369.9874   23848376.4384
        -0.000          -0.000
 -16097266.361 9 -12518425.89347  21968121.239    21968120.9464   21968126.7634
        -0.000          -0.000
  -9927644.057 9  -7724041.64849  20094285.930    20094285.6464   20094291.0034
        -0.000          -0.000
   9151263.708 9   7090737.56546  22761470.136    22761469.5224   22761478.0814
        -0.000          -0.000
 97  3  6 17 18 29.9970000  0  9 18  3 29  2 31 10 27 19 16         -0.002134301
  -8948576.969 9  -6756671.74349  19461176.495    19461176.1584   19461181.1104
        -0.000          -0.000
  -7790589.696 9  -6052197.79946  22474390.703    22474390.3634   22474396.0064
        -0.000          -0.000
  10032446.893 9   7811969.97045  23838718.557    23838718.7384   23838727.6204
        -0.000          -0.000
  -9935324.341 9  -7428951.67146  23445219.599    23445218.9634   23445228.0924
        -0.000          -0.000
 -17230282.084 9 -13407996.42348  21138762.423    21138761.9004   21138767.4684
        -0.000          -0.000
  -8858015.037 9  -6876275.57545  23834526.087    23834525.5924   23834532.0054
        -0.000          -0.000
 -16180973.386 9 -12583652.11447  21952192.231    21952191.9744   21952197.8524
        -0.000          -0.000
  -9965329.817 9  -7753407.17349  20087114.518    20087114.2304   20087119.5844
        -0.000          -0.000
   9228261.383 9   7150735.60946  22776122.272    22776121.7394   22776130.4024
        -0.000          -0.000
 97  3  6 17 18 59.9970000  0  9 18  3 29  2 31 10 27 19 16         -0.002147556
  -8954231.929 9  -6761078.22349  19460100.421    19460100.0634   19460105.0214
        -0.000          -0.000
  -7785695.334 9  -6048384.02046  22475322.008    22475321.7184   22475327.2924
        -0.000          -0.000
  10112143.480 9   7874071.07345  23853884.643    23853884.6194   23853893.3294
        -0.000          -0.000
 -10039113.365 9  -7509826.16346  23425469.092    23425468.4464   23425477.6194
        -0.000          -0.000
 -17290647.778 9 -13455034.61348  21127275.247    21127274.7024   21127280.2464
        -0.000          -0.000
  -8930251.260 9  -6932563.58645  23820779.953    23820779.5374   23820785.8974
        -0.000          -0.000
 -16264546.757 9 -12648774.19247  21936288.696    21936288.4244   21936294.2994
        -0.000          -0.000
 -10002782.414 9  -7782591.01249  20079987.505    20079987.2444   20079992.5924
        -0.000          -0.000
   9305404.419 9   7210846.92946  22790802.246    22790801.6664   22790810.4274
        -0.000          -0.000
 97  3  6 17 19 29.9970000  0  9 18  3 29  2 31 10 27 19 16         -0.002160781
  -8959295.709 9  -6765024.04649  19459136.819    19459136.4804   19459141.4454
        -0.000          -0.000
  -7780190.618 9  -6044094.64146  22476369.488    22476369.1834   22476374.8904
        -0.000          -0.000
  10192053.985 8   7936338.79745  23869091.255    23869091.1924   23869100.0814
        -0.000          -0.000
 -10142639.443 9  -7590495.77046  23405768.656    23405768.0244   23405777.2484
        -0.000          -0.000
 -17350416.073 9 -13501607.29948  21115901.671    21115901.1464   21115906.6914
        -0.000          -0.000
  -9001989.658 8  -6988463.63945  23807128.801    23807128.1784   23807134.5844
        -0.000          -0.000
 -16348005.077 9 -12713806.63547  21920407.144    21920406.8284   21920412.6814
        -0.000          -0.000
 -10039996.566 9  -7811589.05449  20072905.876    20072905.6174   20072910.9714
        -0.000          -0.000
   9382708.208 9   7271083.51046  22805512.736    22805512.1424   22805521.0234
        -0.000          -0.000
 97  3  6 17 19 59.9970000  0  9 18  3 29  2 31 10 27 19 16         -0.002173961
  -8963739.078 9  -6768486.42949  19458291.257    19458290.9354   19458295.9154
        -0.000          -0.000
  -7774044.332 9  -6039305.31646  22477539.060    22477538.7644   22477544.5594
        -0.000          -0.000
  10272201.649 8   7998791.30045  23884343.052    23884342.9534   23884351.9764
        -0.000          -0.000
 -10245886.077 9  -7670947.64546  23386121.456    23386120.7954   23386130.0294
        -0.000          -0.000
 -17409560.010 9 -13547693.46848  21104646.887    21104646.3784   21104651.9744
        -0.000          -0.000
  -9073206.227 8  -7043957.11045  23793576.800    23793576.0204   23793582.5524
        -0.000          -0.000
 -16431346.721 9 -12778748.14747  21904547.792    21904547.4684   21904553.2934
        -0.000          -0.000
 -10076969.373 9  -7840399.03149  20065870.199    20065869.9674   20065875.3144
        -0.000          -0.000
   9460191.153 9   7331459.70146  22820257.311    22820256.7544   22820265.6024
        -0.000          -0.000
 97  3  6 17 20 29.9970000  0  9 18  3 29  2 31 10 27 19 16         -0.002187091
  -8967549.806 9  -6771455.84449  19457566.137    19457565.8084   19457570.7874
        -0.000          -0.000
  -7767258.472 9  -6034017.64246  22478830.255    22478829.9904   22478835.7884
        -0.000          -0.000
  10352600.402 9   8061439.48545  23899642.618    23899642.4914   23899651.4554
        -0.000          -0.000
 -10348858.707 9  -7751185.98946  23366526.421    23366525.7014   23366534.9494
        -0.000          -0.000
 -17468054.922 9 -13593273.91048  21093515.637    21093515.1434   21093520.7524
        -0.000          -0.000
  -9143881.710 8  -7099028.93845  23780127.816    23780126.9304   23780133.5894
        -0.000          -0.000
 -16514578.223 9 -12843603.83747  21888709.323    21888708.9924   21888714.8364
        -0.000          -0.000
 -10113695.717 9  -7869016.95849  20058881.428    20058881.1764   20058886.5224
        -0.000          -0.000
   9537844.292 9   7391968.52946  22835034.381    22835033.7844   22835042.6094
        -0.000          -0.000
 97  3  6 17 20 59.9970000  0  9 18  3 29  2 31 10 27 19 16         -0.002200183
  -8970748.964 9  -6773948.71449  19456957.368    19456957.0594   19456962.0304
        -0.000          -0.000
  -7759872.935 9  -6028262.67146  22480235.753    22480235.4664   22480241.2304
        -0.000          -0.000
  10433232.614 9   8124269.59645  23914986.608    23914986.6394   23914995.4344
        -0.000          -0.000
 -10451561.283 9  -7831213.90646  23346982.773    23346982.0514   23346991.2184
        -0.000          -0.000
 -17525920.444 9 -13638363.91448  21082504.223    21082503.7364   21082509.3344
        -0.000          -0.000
  -9214019.914 8  -7153682.08745  23766780.978    23766780.1704   23766786.9404
        -0.000          -0.000
 -16597710.841 9 -12908382.47147  21872889.678    21872889.3644   21872895.1894
        -0.000          -0.000
 -10150162.404 9  -7897432.56249  20051942.058    20051941.8004   20051947.1344
        -0.000          -0.000
   9615650.199 9   7452596.34946  22849840.400    22849839.8344   22849848.7734
        -0.000          -0.000
 97  3  6 17 21 29.9970000  0  8 18  3  2 31 10 27 19 16            -0.002213215
  -8973338.275 9  -6775966.37349  19456464.662    19456464.3404   19456469.3164
        -0.000          -0.000
  -7751899.674 9  -6022049.73246  22481753.065    22481752.7864   22481758.5344
        -0.000          -0.000
 -10553984.952 9  -7911024.51346  23327492.180    23327491.4844   23327500.5884
        -0.000          -0.000
 -17583171.817 9 -13682975.35848  21071609.654    21071609.1694   21071614.7484
        -0.000          -0.000
  -9283611.775 8  -7207909.53745  23753537.947    23753537.2784   23753544.1814
        -0.000          -0.000
 -16680739.706 9 -12973080.26347  21857089.884    21857089.5224   21857095.3014
        -0.000          -0.000
 -10186363.752 9  -7925641.39749  20045053.206    20045052.9294   20045058.2804
        -0.000          -0.000
   9693601.383 9   7513337.39446  22864674.225    22864673.6064   22864682.5654
        -0.000          -0.000
 97  3  6 17 21 59.9970000  0  8 18  3  2 31 10 27 19 16            -0.002226221
  -8975322.318 9  -6777512.40649  19456087.121    19456086.8114   19456091.7814
        -0.000          -0.000
  -7743344.515 9  -6015383.37246  22483381.046    22483380.7994   22483386.4994
        -0.000          -0.000
 -10656118.031 9  -7990608.66546  23308056.816    23308056.1284   23308065.1844
        -0.000          -0.000
 -17639812.534 9 -13727110.97848  21060831.322    21060830.8104   21060836.3534
        -0.000          -0.000
  -9352632.612 8  -7261692.03945  23740403.669    23740402.8724   23740409.8134
        -0.000          -0.000
 -16763633.391 9 -13037672.72247  21841315.754    21841315.3824   21841321.1674
        -0.000          -0.000
 -10222310.783 9  -7953652.07549  20038212.679    20038212.4144   20038217.7724
        -0.000          -0.000
   9771690.924 9   7574186.25146  22879534.408    22879533.7284   22879542.6004
        -0.000          -0.000
 97  3  6 17 22 29.9970000  0  8 18  3  2 31 10 27 19 16            -0.002239195
  -8976733.991 9  -6778612.42849  19455818.532    19455818.2274   19455823.1944
        -0.000          -0.000
  -7734223.390 9  -6008276.00346  22485116.812    22485116.5274   22485122.2024
        -0.000          -0.000
 -10757969.517 9  -8069973.40546  23288675.099    23288674.4864   23288683.4404
        -0.000          -0.000
 -17695863.987 9 -13770787.42448  21050165.088    21050164.5644   21050170.1344
        -0.000          -0.000
  -9421109.205 8  -7315050.45645  23727372.952    23727372.1134   23727379.0974
        -0.000          -0.000
 -16846382.935 9 -13102152.86247  21825569.048    21825568.6534   21825574.4174
        -0.000          -0.000
 -10258012.739 9  -7981471.77549  20031418.815    20031418.5774   20031423.9374
        -0.000          -0.000
   9849897.058 9   7635125.95246  22894416.674    22894416.0564   22894424.8664
        -0.000          -0.000
 97  3  6 17 22 59.9970000  0  8 18  3  2 31 10 27 19 16            -0.002252135
  -8977563.022 9  -6779258.44849  19455660.794    19455660.4864   19455665.4704
        -0.000          -0.000
  -7724518.175 9  -6000713.49746  22486963.694    22486963.3404   22486969.0304
        -0.000          -0.000
 -10859530.674 9  -8149111.89546  23269348.671    23269347.9664   23269356.9294
        -0.000          -0.000
 -17751337.459 9 -13814013.49648  21039608.814    21039608.3224   21039613.8814
        -0.000          -0.000
  -9489043.160 8  -7367986.04145  23714445.509    23714444.7524   23714451.4064
        -0.000          -0.000
 -16928967.681 9 -13166504.58047  21809853.667    21809853.2534   21809859.0334
        -0.000          -0.000
 -10293471.592 9  -8009102.05149  20024671.217    20024670.9694   20024676.3364
        -0.000          -0.000
   9928213.202 9   7696151.38246  22909319.826    22909319.1784   22909327.9974
        -0.000          -0.000
 97  3  6 17 23 29.9970000  0  8 18  3  2 31 10 27 19 16            -0.002265028
  -8977808.456 9  -6779449.71749  19455614.062    19455613.7594   19455618.7644
        -0.000          -0.000
  -7714205.190 9  -5992677.39446  22488926.154    22488925.8114   22488931.5234
        -0.000          -0.000
 -10960808.812 9  -8228029.86646  23250076.059    23250075.3884   23250084.2664
        -0.000          -0.000
 -17806209.772 9 -13856771.12748  21029166.946    21029166.4514   21029172.0354
        -0.000          -0.000
  -9556432.946 8  -7420497.55545  23701621.623    23701620.9994   23701627.4994
        -0.000          -0.000
 -17011388.669 9 -13230728.69647  21794169.452    21794169.0414   21794174.8424
        -0.000          -0.000
 -10328705.752 9  -8036557.24149  20017966.385    20017966.1704   20017971.5154
        -0.000          -0.000
  10006641.202 9   7757263.97546  22924244.364    22924243.7064   22924252.5124
        -0.000          -0.000
 97  3  6 17 23 59.9970000  0  8 18  3  2 31 10 27 19 16            -0.002277875
  -8977492.665 9  -6779203.66049  19455674.211    19455673.8974   19455678.8944
        -0.000          -0.000
  -7703285.026 9  -5984168.16946  22491004.222    22491003.8424   22491009.5644
        -0.000          -0.000
 -11061824.759 9  -8306743.51146  23230853.293    23230852.5954   23230861.5614
        -0.000          -0.000
 -17860479.067 9 -13899058.87348  21018839.801    21018839.3404   21018844.8974
        -0.000          -0.000
  -9623294.703 8  -7472597.61745  23688898.304    23688897.6284   23688904.2674
        -0.000          -0.000
 -17093656.989 9 -13294833.85447  21778514.286    21778513.9184   21778519.7314
        -0.000          -0.000
 -10363736.585 9  -8063853.99449  20011300.287    20011300.0354   20011305.3924
        -0.000          -0.000
  10085172.240 9   7818456.86046  22939188.437    22939187.8204   22939196.6134
        -0.000          -0.000
 97  3  6 17 24 29.9970000  0  8 18  3  2 31 10 27 19 16            -0.002290670
  -8976586.030 9  -6778497.21849  19455846.723    19455846.4184   19455851.4144
        -0.000          -0.000
  -7691735.173 9  -5975168.28246  22493202.090    22493201.7304   22493207.4444
        -0.000          -0.000
 -11162565.037 9  -8385242.35946  23211683.010    23211682.2874   23211691.3374
        -0.000          -0.000
 -17914123.501 9 -13940859.71948  21008631.603    21008631.1184   21008636.6884
        -0.000          -0.000
  -9689616.213 8  -7524276.75545  23676277.915    23676276.9344   23676283.8024
        -0.000          -0.000
 -17175772.278 9 -13358819.76347  21762888.252    21762887.8464   21762893.7344
        -0.000          -0.000
 -10398534.735 9  -8090969.43749  20004678.377    20004678.1494   20004683.5074
        -0.000          -0.000
  10163814.873 9   7879736.68946  22954153.765    22954153.1304   22954161.9944
        -0.000          -0.000
 97  3  6 17 24 59.9970000  0  8 18  3  2 31 10 27 19 16            -0.002303413
  -8975090.095 9  -6777331.57249  19456131.441    19456131.1314   19456136.1474
        -0.000          -0.000
  -7679565.335 9  -5965685.28546  22495517.960    22495517.6074   22495523.3034
        -0.000          -0.000
 -11263037.511 9  -8463532.54846  23192563.659    23192562.9534   23192571.9984
        -0.000          -0.000
 -17967140.931 9 -13982171.98248  20998542.709    20998542.2414   20998547.7664
        -0.000          -0.000
  -9755389.843 8  -7575528.94645  23663761.685    23663760.7294   23663767.5304
        -0.000          -0.000
 -17257758.935 9 -13422705.43947  21747286.678    21747286.2974   21747292.1474
        -0.000          -0.000
 -10433096.704 9  -8117900.84449  19998101.463    19998101.2434   19998106.5874
        -0.000          -0.000
  10242576.781 9   7941109.43546  22969141.724    22969141.1444   22969150.1014
        -0.000          -0.000
 97  3  6 17 25 29.9970000  0  8 18  3  2 31 10 27 19 16            -0.002316094
  -8972997.407 9  -6775700.92949  19456529.684    19456529.3854   19456534.4034
        -0.000          -0.000
  -7666770.934 9  -5955715.61346  22497952.643    22497952.2824   22497957.9764
        -0.000          -0.000
 -11363235.654 9  -8541608.95346  23173496.515    23173495.8434   23173504.8784
        -0.000          -0.000
 -18019512.370 9 -14022980.88148  20988576.760    20988576.2714   20988581.8104
        -0.000          -0.000
  -9820594.946 8  -7626338.08245  23651353.632    23651352.7094   23651359.4834
        -0.000          -0.000
 -17339612.424 9 -13486487.36647  21731710.402    21731710.0504   21731715.8944
        -0.000          -0.000
 -10467398.972 9  -8144629.88549  19991573.982    19991573.7514   19991579.0814
        -0.000          -0.000
  10321485.623 9   8002596.71846  22984157.650    22984157.0594   22984166.0064
        -0.000          -0.000
 97  3  6 17 25 59.9970000  0  8 18  3  2 31 10 27 19 16            -0.002328731
  -8970287.787 9  -6773589.55749  19457045.318    19457045.0384   19457050.0414
        -0.000          -0.000
  -7653366.262 9  -5945270.41346  22500503.428    22500503.1064   22500508.8644
        -0.000          -0.000
 -11463167.054 9  -8619477.49046  23154480.149    23154479.5074   23154488.5944
        -0.000          -0.000
 -18071264.551 9 -14063307.23248  20978728.560    20978728.1094   20978733.6534
        -0.000          -0.000
  -9885239.029 8  -7676710.08845  23639052.042    23639051.2364   23639058.0274
        -0.000          -0.000
 -17421340.981 9 -13550171.92647  21716157.900    21716157.5974   21716163.3974
        -0.000          -0.000
 -10501442.698 9  -8171157.46649  19985095.666    19985095.4164   19985100.7644
        -0.000          -0.000
  10400530.516 9   8064190.01246  22999199.433    22999198.9254   22999207.7964
        -0.000          -0.000
 97  3  6 17 26 29.9970000  0  8 18  3  2 31 10 27 19 16            -0.002341333
  -8966952.170 9  -6770990.39549  19457680.107    19457679.8284   19457684.8254
        -0.000          -0.000
  -7639365.909 9  -5934361.04646  22503167.573    22503167.2524   22503172.9994
        -0.000          -0.000
 -11562830.833 9  -8697137.51946  23135514.697    23135514.1174   23135523.0914
        -0.000          -0.000
 -18122404.358 9 -14103156.40948  20968997.004    20968996.5464   20969002.0834
        -0.000          -0.000
  -9949326.868 8  -7726648.70045  23626856.381    23626855.6784   23626862.6024
        -0.000          -0.000
 -17502951.782 9 -13613764.73547  21700627.851    21700627.5684   21700633.3464
        -0.000          -0.000
 -10535235.004 9  -8197489.13849  19978665.190    19978664.9784   19978670.3194
        -0.000          -0.000
  10479695.498 9   8125876.85446  23014264.159    23014263.6774   23014272.5774
        -0.000          -0.000
 97  3  6 17 26 59.9970000  0  8 18  3  2 31 10 27 19 16            -0.002353891
  -8962999.072 9  -6767910.08249  19458432.378    19458432.0984   19458437.1024
        -0.000          -0.000
  -7624764.718 9  -5922983.49246  22505945.979    22505945.6484   22505951.5134
        -0.000          -0.000
 -11662216.829 9  -8774581.07546  23116602.130    23116601.5394   23116610.5054
        -0.000          -0.000
 -18172926.483 9 -14142524.27448  20959382.942    20959382.5014   20959388.0334
        -0.000          -0.000
 -10012848.515 8  -7776146.12045  23614768.584    23614767.8564   23614774.9754
        -0.000          -0.000
 -17584437.984 9 -13677260.43947  21685121.505    21685121.2434   21685127.0454
        -0.000          -0.000
 -10568775.453 9  -8223624.55849  19972282.657    19972282.4474   19972287.7854
        -0.000          -0.000
  10558985.191 9   8187660.87846  23029352.558    23029352.0114   23029361.0154
        -0.000          -0.000
 97  3  6 17 27 29.9970000  0  8 18  3  2 31 10 27 19 16            -0.002366410
  -8958423.001 9  -6764344.33049  19459303.163    19459302.8854   19459307.9024
        -0.000          -0.000
  -7609561.804 9  -5911137.06746  22508839.001    22508838.7054   22508844.5774
        -0.000          -0.000
 -11761312.640 9  -8851798.51546  23097744.750    23097744.1754   23097753.1624
        -0.000          -0.000
 -18222835.098 9 -14181414.08148  20949885.619    20949885.2064   20949890.7434
        -0.000          -0.000
 -10075808.193 9  -7825205.63445  23602787.793    23602787.1814   23602794.1134
        -0.000          -0.000
 -17665791.705 9 -13740652.92447  21669640.433    21669640.1504   21669645.9934
        -0.000          -0.000
 -10602067.001 9  -8249566.02949  19965947.472    19965947.2724   19965952.6264
        -0.000          -0.000
  10638372.406 9   8249520.88946  23044459.566    23044458.9634   23044468.0284
        -0.000          -0.000
 97  3  6 17 27 59.9970000  0  8 18  3  2 31 10 27 19 16            -0.002378894
  -8953235.304 9  -6760301.98649  19460290.355    19460290.0624   19460295.0804
        -0.000          -0.000
  -7593765.621 9  -5898828.34846  22511844.941    22511844.6344   22511850.4744
        -0.000          -0.000
 -11860102.932 9  -8928777.89646  23078945.558    23078944.8494   23078953.9224
        -0.000          -0.000
 -18272117.920 9 -14219816.24948  20940507.431    20940506.9994   20940512.5404
        -0.000          -0.000
 -10138214.661 9  -7873834.06045  23590912.384    23590911.6614   23590918.6314
        -0.000          -0.000
 -17747008.795 9 -13803938.94947  21654185.292    21654185.0594   21654190.8574
        -0.000          -0.000
 -10635108.647 9  -8275312.76849  19959659.895    19959659.6754   19959665.0124
        -0.000          -0.000
  10717842.398 9   8311445.40646  23059582.256    23059581.6444   23059590.7644
        -0.000          -0.000
 97  3  6 17 28 29.9970000  0  8 18  3  2 31 10 27 19 16            -0.002391326
  -8947464.027 9  -6755804.90249  19461388.618    19461388.3414   19461393.3614
        -0.000          -0.000
  -7577375.319 9  -5886056.67446  22514963.939    22514963.6054   22514969.5294
        -0.000          -0.000
 -11958575.392 9  -9005509.61546  23060206.808    23060206.1524   23060215.1334
        -0.000          -0.000
 -18320746.771 9 -14257708.83148  20931253.623    20931253.2254   20931258.7784
        -0.000          -0.000
 -10200054.722 8  -7922021.14045  23579144.792    23579143.9784   23579150.9274
        -0.000          -0.000
 -17828081.604 9 -13867112.53647  21638757.662    21638757.4204   21638763.1494
        -0.000          -0.000
 -10667896.989 9  -8300862.12949  19953420.502    19953420.2754   19953425.6074
        -0.000          -0.000
  10797400.382 9   8373438.47546  23074721.637    23074721.1424   23074730.2444
        -0.000          -0.000
 97  3  6 17 28 59.9970000  0  8 18  3  2 31 10 27 19 16            -0.002403694
  -8941108.779 9  -6750852.78049  19462597.996    19462597.7044   19462602.7554
        -0.000          -0.000
  -7560375.389 9  -5872809.98946  22518198.962    22518198.5964   22518204.5084
        -0.000          -0.000
 -12056719.088 9  -9081985.14246  23041530.582    23041529.9414   23041538.9584
        -0.000          -0.000
 -18368705.435 9 -14295079.18548  20922127.405    20922126.9834   20922132.5264
        -0.000          -0.000
 -10261314.122 8  -7969755.75645  23567487.551    23567486.7684   23567493.7784
        -0.000          -0.000
 -17909010.497 9 -13930173.99347  21623357.433    21623357.1824   21623362.8854
        -0.000          -0.000
 -10700411.645 9  -8326198.22749  19947233.170    19947232.9384   19947238.2654
        -0.000          -0.000
  10877061.141 9   8435511.66246  23089880.795    23089880.3284   23089889.2444
        -0.000          -0.000
 97  3  6 17 29 29.9970000  0  8 18  3  2 31 10 27 19 16            -0.002416008
  -8934157.951 9  -6745436.56649  19463920.713    19463920.4384   19463925.4754
        -0.000          -0.000
  -7542781.925 9  -5859100.79746  22521546.908    22521546.5474   22521552.4174
        -0.000          -0.000
 -12154549.069 9  -9158216.21946  23022914.072    23022913.4694   23022922.4954
        -0.000          -0.000
 -18415992.791 9 -14331926.44448  20913128.894    20913128.4624   20913134.0264
        -0.000          -0.000
 -10321991.223 8  -8017036.66446  23555941.167    23555940.2624   23555947.4144
        -0.000          -0.000
 -17989805.459 9 -13993131.07147  21607982.602    21607982.3354   21607988.1104
        -0.000          -0.000
 -10732655.271 9  -8351323.13149  19941097.387    19941097.1664   19941102.5114
        -0.000          -0.000
  10956820.076 9   8497661.32646  23105058.569    23105058.0014   23105067.0304
        -0.000          -0.000
 97  3  6 17 29 59.9970000  0  8 18  3  2 31 10 27 19 16            -0.002428257
  -8926612.240 9  -6739556.81149  19465356.652    19465356.3744   19465361.4334
        -0.000          -0.000
  -7524581.308 9  -5844918.49346  22525010.366    22525010.0004   22525015.8174
        -0.000          -0.000
 -12252083.068 9  -9234216.65746  23004353.998    23004353.3384   23004362.2524
        -0.000          -0.000
 -18462594.887 9 -14368239.73248  20904260.788    20904260.3524   20904265.9034
        -0.000          -0.000
 -10382079.601 9  -8063858.81046  23544506.752    23544505.9674   23544512.9284
        -0.000          -0.000
 -18070467.926 9 -14055984.92347  21592633.066    21592632.7814   21592638.4984
        -0.000          -0.000
 -10764625.447 9  -8376234.95949  19935013.655    19935013.4574   19935018.7864
        -0.000          -0.000
  11036700.772 9   8559905.84146  23120259.625    23120258.9474   23120268.1134
        -0.000          -0.000
 97  3  6 17 30 29.9970000  0  8 18  3  2 31 10 27 19 16            -0.002440434
  -8918457.465 9  -6733202.45649  19466908.473    19466908.1804   19466913.2594
        -0.000          -0.000
  -7505753.701 9  -5830247.62946  22528593.019    22528592.7794   22528598.6084
        -0.000          -0.000
 -12349329.829 9  -9309993.27946  22985848.547    22985847.8494   22985856.7184
        -0.000          -0.000
 -18508517.870 9 -14404023.84448  20895521.911    20895521.4914   20895527.0304
        -0.000          -0.000
 -10441570.000 9  -8110214.99646  23533186.237    23533185.3754   23533192.4184
        -0.000          -0.000
 -18150995.876 9 -14118733.94347  21577309.121    21577308.7904   21577314.4964
        -0.000          -0.000
 -10796328.015 9  -8400938.25749  19928980.841    19928980.6644   19928985.9914
        -0.000          -0.000
  11116706.411 9   8622247.74546  23135484.309    23135483.6584   23135492.8624
        -0.000          -0.000
 97  3  6 17 30 59.9970000  0  8 18  3  2 31 10 27 19 16            -0.002452556
  -8909692.692 9  -6726372.78349  19468576.370    19468576.0854   19468581.1684
        -0.000          -0.000
  -7486307.243 9  -5815094.55446  22532293.517    22532293.2984   22532299.1644
        -0.000          -0.000
 -12446295.954 9  -9385551.22046  22967396.392    22967395.7734   22967404.6594
        -0.000          -0.000
 -18553785.738 9 -14439297.47548  20886907.738    20886907.2854   20886912.8514
        -0.000          -0.000
 -10500489.641 9  -8156126.42246  23521974.110    23521973.3674   23521980.4154
        -0.000          -0.000
 -18231393.120 9 -14181381.12047  21562010.026    21562009.6614   21562015.3644
        -0.000          -0.000
 -10827765.766 9  -8425435.20649  19922998.480    19922998.2754   19923003.6174
        -0.000          -0.000
  11196821.533 9   8684674.93646  23150729.832    23150729.2544   23150738.4864
        -0.000          -0.000
 97  3  6 17 31 29.9970000  0  8 18  3  2 31 10 27 19 16            -0.002464628
  -8900327.608 9  -6719075.33649  19470358.488    19470358.2014   19470363.2924
        -0.000          -0.000
  -7466253.226 9  -5799468.04146  22536109.659    22536109.4664   22536115.2654
        -0.000          -0.000
 -12542988.189 9  -9460895.73746  22948996.447    22948995.8304   22949004.6454
        -0.000          -0.000
 -18598407.061 9 -14474067.30748  20878416.574    20878416.1234   20878421.6684
        -0.000          -0.000
 -10558856.911 9  -8201607.41946  23510867.231    23510866.4564   23510873.4754
        -0.000          -0.000
 -18311642.676 9 -14243913.21547  21546739.035    21546738.6734   21546744.3764
        -0.000          -0.000
 -10858953.594 9  -8449737.40949  19917063.656    19917063.4544   19917068.8064
        -0.000          -0.000
  11277037.657 9   8747180.84646  23165994.437    23165993.9264   23166003.3024
        -0.000          -0.000
 97  3  6 17 31 59.9970000  0  8 18  3  2 31 10 27 19 16            -0.002476643
  -8890374.272 9  -6711319.50349  19472252.584    19472252.3104   19472257.4064
        -0.000          -0.000
  -7445577.482 9  -5783357.07246  22540044.168    22540043.9634   22540049.7384
        -0.000          -0.000
 -12639385.626 9  -9536010.54346  22930652.545    22930651.9704   22930660.7384
        -0.000          -0.000
 -18642372.948 9 -14508326.40348  20870050.038    20870049.6054   20870055.2124
        -0.000          -0.000
 -10616679.806 9  -8246664.23646  23499863.849    23499863.1134   23499870.1754
        -0.000          -0.000
 -18391718.046 9 -14306309.57747  21531501.210    21531500.8224   21531506.5144
        -0.000          -0.000
 -10889882.819 9  -8473838.10149  19911178.025    19911177.8284   19911183.1864
        -0.000          -0.000
  11357361.319 9   8809770.55246  23181279.586    23181279.1644   23181288.5584
        -0.000          -0.000
 97  3  6 17 32 29.9970000  0  8 18  3  2 31 10 27 19 16            -0.002488621
  -8879838.710 9  -6703109.99349  19474257.404    19474257.1424   19474262.2394
        -0.000          -0.000
  -7424314.829 9  -5766788.77946  22544090.351    22544090.1214   22544095.9184
        -0.000          -0.000
 -12735481.075 9  -9610890.04246  22912366.137    22912365.5194   22912374.3084
        -0.000          -0.000
 -18685699.310 9 -14542087.17848  20861805.274    20861804.8434   20861810.4304
        -0.000          -0.000
 -10673968.996 9  -8291305.16946  23488962.094    23488961.4004   23488968.4334
        -0.000          -0.000
 -18471632.797 9 -14368580.79547  21516293.893    21516293.5604   21516299.2324
        -0.000          -0.000
 -10920559.690 9  -8497742.15149  19905340.420    19905340.2304   19905345.5884
        -0.000          -0.000
  11437754.617 9   8872414.51346  23196578.079    23196577.6144   23196587.0334
        -0.000          -0.000
 97  3  6 17 32 59.9970000  0  8 18  3  2 31 10 27 19 16            -0.002500564
  -8868710.741 9  -6694438.86849  19476375.012    19476374.7564   19476379.8434
        -0.000          -0.000
  -7402471.881 9  -5749768.30546  22548247.011    22548246.7344   22548252.5284
        -0.000          -0.000
 -12831267.279 9  -9685528.55846  22894138.573    22894137.9284   22894146.7174
        -0.000          -0.000
 -18728376.582 9 -14575342.17148  20853684.069    20853683.6154   20853689.1624
        -0.000          -0.000
 -10730713.283 9  -8335521.52046  23478164.100    23478163.3854   23478170.4564
        -0.000          -0.000
 -18551385.113 9 -14430725.43847  21501117.536    21501117.2174   21501122.8864
        -0.000          -0.000
 -10950963.075 9  -8521433.09949  19899554.831    19899554.6254   19899559.9894
        -0.000          -0.000
  11518227.711 9   8935120.64046  23211891.752    23211891.2324   23211900.7024
        -0.000          -0.000
 97  3  6 17 33 29.9970000  0  8 18  3  2 31 10 27 19 16            -0.002512472
  -8856981.073 9  -6685298.88549  19478607.101    19478606.8314   19478611.9254
        -0.000          -0.000
  -7380054.668 9  -5732300.34346  22552512.895    22552512.5814   22552518.3344
        -0.000          -0.000
 -12926762.330 9  -9759940.21646  22875966.426    22875965.8094   22875974.5134
        -0.000          -0.000
 -18770402.275 9 -14608089.44148  20845686.868    20845686.4114   20845691.9054
        -0.000          -0.000
 -10786893.089 8  -8379298.01246  23467473.373    23467472.7174   23467479.8394
        -0.000          -0.000
 -18630979.786 9 -14492747.23747  21485971.081    21485970.8024   21485976.4844
        -0.000          -0.000
 -10981092.376 9  -8544910.46949  19893821.404    19893821.2044   19893826.5854
        -0.000          -0.000
  11598772.398 9   8997882.56446  23227219.153    23227218.5914   23227228.0274
        -0.000          -0.000
 97  3  6 17 33 59.9970000  0  8 18  3  2 31 10 27 19 16            -0.002524347
  -8844638.425 9  -6675681.25849  19480955.851    19480955.5854   19480960.6974
        -0.000          -0.000
  -7357061.831 9  -5714383.84246  22556888.308    22556887.9714   22556893.8064
        -0.000          -0.000
 -13021971.456 9  -9834129.06746  22857848.755    22857848.1014   22857856.7714
        -0.000          -0.000
 -18811772.052 9 -14640325.60248  20837814.436    20837813.9624   20837819.4534
        -0.000          -0.000
 -10842490.595 9  -8422620.76145  23456893.532    23456892.8914   23456899.9554
        -0.000          -0.000
 -18710450.614 9 -14554672.53947  21470848.329    21470848.0414   21470853.6704
        -0.000          -0.000
 -11010947.977 9  -8568174.56949  19888140.062    19888139.8574   19888145.2534
        -0.000          -0.000
  11679372.553 9   9060687.70446  23242557.058    23242556.4634   23242565.8814
        -0.000          -0.000
 97  3  6 17 34 29.9970000  0  8 18  3  2 31 10 27 19 16            -0.002536177
  -8831649.057 9  -6665559.69249  19483427.692    19483427.4244   19483432.5364
        -0.000          -0.000
  -7333482.753 9  -5696010.53946  22561375.220    22561374.9654   22561380.7694
        -0.000          -0.000
 -13116879.670 9  -9908083.44546  22839788.249    22839787.6444   22839796.2054
        -0.000          -0.000
 -18852462.525 9 -14672032.44548  20830071.206    20830070.7624   20830076.2644
        -0.000          -0.000
 -10897480.430 9  -8465469.99845  23446429.445    23446428.6054   23446435.6034
        -0.000          -0.000
 -18789793.361 9 -14616498.03147  21455749.884    21455749.5844   21455755.2154
        -0.000          -0.000
 -11040530.889 9  -8591226.18249  19882510.574    19882510.4044   19882515.7894
        -0.000          -0.000
  11760042.981 9   9123547.59146  23257908.111    23257907.6454   23257917.2624
        -0.000          -0.000
 97  3  6 17 34 59.9970000  0  8 18  3  2 31 10 27 19 16            -0.002547961
  -8818036.581 9  -6654952.59249  19486018.072    19486017.8104   19486022.9084
        -0.000          -0.000
  -7309323.117 9  -5677184.85346  22565972.685    22565972.4424   22565978.2684
        -0.000          -0.000
 -13211499.508 9  -9981813.12746  22821782.660    22821782.0104   22821790.5414
        -0.000          -0.000
 -18892480.684 9 -14703215.41048  20822456.010    20822455.5644   20822461.0614
        -0.000          -0.000
 -10951875.856 9  -8507856.06845  23436078.384    23436077.5314   23436084.5364
        -0.000          -0.000
 -18869005.459 9 -14678221.72247  21440676.275    21440675.9694   21440681.6544
        -0.000          -0.000
 -11069866.982 9  -8614085.47049  19876928.133    19876927.9594   19876933.3214
        -0.000          -0.000
  11840779.331 9   9186458.84746  23273271.803    23273271.4294   23273280.9864
        -0.000          -0.000
 97  3  6 17 35 29.9970000  0  8 18  3  2 31 10 27 19 16            -0.002559691
  -8803806.236 9  -6643864.02849  19488726.085    19488725.7964   19488730.8984
        -0.000          -0.000
  -7284575.426 9  -5657900.94046  22570682.063    22570681.8124   22570687.6104
        -0.000          -0.000
 -13305812.370 9 -10055303.59246  22803835.442    22803834.8044   22803843.2304
        -0.000          -0.000
 -18931822.203 9 -14733871.11748  20814969.574    20814969.1374   20814974.6574
        -0.000          -0.000
 -11005673.900 9  -8549776.63346  23425841.034    23425840.1684   23425847.0994
        -0.000          -0.000
 -18948079.092 9 -14739837.52547  21425629.084    21425628.7664   21425634.3894
        -0.000          -0.000
 -11098964.956 9  -8636759.21049  19871390.985    19871390.8024   19871396.1554
        -0.000          -0.000
  11921572.178 9   9249414.13246  23288646.332    23288645.9764   23288655.5614
        -0.000          -0.000
 97  3  6 17 35 59.9970000  0  8 18  3  2 31 10 27 19 16            -0.002571358
  -8788960.283 9  -6632295.77649  19491551.155    19491550.8804   19491556.0124
        -0.000          -0.000
  -7259229.544 9  -5638150.90746  22575505.141    22575504.8934   22575510.7644
        -0.000          -0.000
 -13399795.181 9 -10128536.88147  22785951.039    22785950.4154   22785958.8484
        -0.000          -0.000
 -18970480.784 9 -14763994.67448  20807613.089    20807612.6304   20807618.1504
        -0.000          -0.000
 -11058875.091 9  -8591232.13446  23415717.045    23415716.2474   23415723.3884
        -0.000          -0.000
 -19027003.944 9 -14801337.38647  21410610.201    21410609.8734   21410615.5234
        -0.000          -0.000
 -11127828.523 9  -8659250.29449  19865898.451    19865898.2454   19865903.6004
        -0.000          -0.000
  12002433.713 9   9312422.94146  23304033.872    23304033.4944   23304043.2844
        -0.000          -0.000
 97  3  6 17 36 29.9970000  0  8 18  3  2 31 10 27 19 16            -0.002582962
  -8773506.891 9  -6620254.18849  19494491.839    19494491.5444   19494496.6894
        -0.000          -0.000
  -7233292.138 9  -5617939.94646  22580440.885    22580440.6074   22580446.4554
        -0.000          -0.000
 -13493449.870 9 -10201514.48247  22768129.110    22768128.5134   22768136.9074
        -0.000          -0.000
 -19008467.850 9 -14793594.96848  20800384.397    20800383.9244   20800389.4364
        -0.000          -0.000
 -11111481.989 9  -8632224.52546  23405706.402    23405705.5674   23405712.6474
        -0.000          -0.000
 -19105748.974 9 -14862697.13647  21395625.531    21395625.1674   21395630.8204
        -0.000          -0.000
 -11156445.043 9  -8681548.87449  19860452.896    19860452.6854   19860458.0454
        -0.000          -0.000
  12083377.331 9   9375495.70346  23319437.046    23319436.5704   23319446.5464
        -0.000          -0.000
 97  3  6 17 36 59.9970000  0  8 18  3  2 31 10 27 19 16            -0.002594521
  -8757477.618 9  -6607763.86549  19497542.084    19497541.8134   19497546.9494
        -0.000          -0.000
  -7206781.033 9  -5597281.94546  22585485.688    22585485.4444   22585491.4254
        -0.000          -0.000
 -13586812.561 9 -10274264.54647  22750362.605    22750362.0424   22750370.4694
        -0.000          -0.000
 -19045827.900 9 -14822706.68048  20793274.994    20793274.5464   20793280.0374
        -0.000          -0.000
 -11163513.798 9  -8672768.82046  23395805.105    23395804.2614   23395811.2964
        -0.000          -0.000
 -19184340.536 9 -14923937.28647  21380670.026    21380669.6514   21380675.3074
        -0.000          -0.000
 -11184814.634 9  -8703655.04349  19855054.375    19855054.1524   19855059.5234
        -0.000          -0.000
  12164377.204 9   9438612.29746  23334850.889    23334850.3894   23334860.4984
        -0.000          -0.000
 97  3  6 17 37 29.9970000  0  8 18  3  2 31 10 27 19 16            -0.002606036
  -8740860.079 9  -6594815.15549  19500704.319    19500704.0534   19500709.2044
        -0.000          -0.000
  -7179692.889 9  -5576174.30946  22590640.399    22590640.1854   22590646.1664
        -0.000          -0.000
 -13679890.351 9 -10346792.61447  22732650.414    22732649.8644   22732658.3044
        -0.000          -0.000
 -19082565.392 9 -14851333.28648  20786284.136    20786283.6854   20786289.1384
        -0.000          -0.000
 -11214974.283 9  -8712867.92146  23386012.598    23386011.7414   23386018.7984
        -0.000          -0.000
 -19262791.511 9 -14985067.90447  21365741.257    21365740.8954   21365746.5234
        -0.000          -0.000
 -11212926.260 9  -8725560.19949  19849704.881    19849704.6654   19849710.0364
        -0.000          -0.000
  12245441.348 9   9501778.98745  23350277.113    23350276.5394   23350286.6234
        -0.000          -0.000
 97  3  6 17 37 59.9970000  0  8 18  3  2 31 10 27 19 16            -0.002617511
  -8723652.183 9  -6581406.42549  19503978.918    19503978.6564   19503983.7984
        -0.000          -0.000
  -7152039.256 9  -5554626.02046  22595902.869    22595902.5924   22595908.5514
        -0.000          -0.000
 -13772691.552 9 -10419105.14947  22714990.870    22714990.2604   22714998.7724
        -0.000          -0.000
 -19118666.880 9 -14879464.29748  20779414.268    20779413.7914   20779419.2244
        -0.000          -0.000
 -11265867.455 9  -8752524.96946  23376327.813    23376327.0954   23376334.2064
        -0.000          -0.000
 -19341101.067 9 -15046088.32047  21350839.428    21350839.0924   21350844.6704
        -0.000          -0.000
 -11240772.450 9  -8747258.52249  19844405.925    19844405.7144   19844411.0644
        -0.000          -0.000
  12326573.502 9   9564998.66945  23365716.244    23365715.7124   23365725.6434
        -0.000          -0.000
 97  3  6 17 38 29.9970000  0  8 18  3  2 31 10 27 19 16            -0.002628945
  -8705839.963 9  -6567526.78949  19507368.525    19507368.2604   19507373.4094
        -0.000          -0.000
  -7123813.581 9  -5532632.00546  22601274.034    22601273.7644   22601279.6974
        -0.000          -0.000
 -13865203.800 9 -10491192.52347  22697386.301    22697385.7074   22697394.2704
        -0.000          -0.000
 -19154109.231 9 -14907081.69748  20772669.786    20772669.3214   20772674.7724
        -0.000          -0.000
 -11316196.685 9  -8791742.58546  23366750.355    23366749.7164   23366756.8174
        -0.000          -0.000
 -19419264.913 9 -15106995.18447  21335965.302    21335964.9794   21335970.5704
        -0.000          -0.000
 -11268334.795 9  -8768735.66449  19839161.014    19839160.8054   19839166.1394
        -0.000          -0.000
  12407777.694 9   9628274.47745  23381169.019    23381168.5334   23381178.4884
        -0.000          -0.000
 97  3  6 17 38 59.9970000  0  8 18  3  2 31 10 27 19 16            -0.002640332
  -8687412.434 9  -6553167.69049  19510875.211    19510874.9524   19510880.0564
        -0.000          -0.000
  -7094995.398 9  -5510176.28046  22606757.906    22606757.6774   22606763.5864
        -0.000          -0.000
 -13957407.352 9 -10563039.35847  22679840.499    22679839.9134   22679848.4714
        -0.000          -0.000
 -19188869.598 9 -14934167.68448  20766055.069    20766054.5904   20766060.1004
        -0.000          -0.000
 -11365958.982 9  -8830518.42346  23357281.042    23357280.3024   23357287.4284
        -0.000          -0.000
 -19497276.591 9 -15167783.48747  21321120.162    21321119.8264   21321125.4284
        -0.000          -0.000
 -11295618.132 9  -8789995.40249  19833969.152    19833968.9294   19833974.2594
        -0.000          -0.000
  12489041.205 8   9691596.50545  23396633.075    23396632.6084   23396642.6094
        -0.000          -0.000
 97  3  6 17 39 29.9970000  0  8 18  3  2 31 10 27 19 16            -0.002651670
  -8668382.985 9  -6538339.56649  19514496.377    19514496.1154   19514501.2384
        -0.000          -0.000
  -7065590.974 9  -5487263.75646  22612353.440    22612353.1844   22612359.0974
        -0.000          -0.000
 -14049288.096 9 -10634634.67247  22662356.140    22662355.5184   22662364.0574
        -0.000          -0.000
 -19222921.220 9 -14960701.39948  20759575.219    20759574.7654   20759580.2414
        -0.000          -0.000
 -11415148.205 9  -8868847.70646  23347920.745    23347919.9724   23347927.0904
        -0.000          -0.000
 -19575127.253 9 -15228446.32147  21306305.644    21306305.3524   21306310.9624
        -0.000          -0.000
 -11322637.963 9  -8811049.80949  19828827.423    19828827.2394   19828832.5674
        -0.000          -0.000
  12570334.193 8   9754941.50645  23412102.646    23412102.2294   23412112.2654
        -0.000          -0.000
 97  3  6 17 39 59.9970000  0  8 18  3  2 31 10 27 19 16            -0.002662955
  -8648764.944 9  -6523052.80249  19518229.581    19518229.3314   19518234.4634
        -0.000          -0.000
  -7035595.231 9  -5463890.45946  22618061.431    22618061.2224   22618067.0084
        -0.000          -0.000
 -14140846.840 9 -10705979.07247  22644933.027    22644932.4394   22644940.9754
        -0.000          -0.000
 -19256256.050 9 -14986676.57748  20753231.828    20753231.3774   20753236.8144
        -0.000          -0.000
 -11463754.509 9  -8906722.78046  23338671.379    23338670.5254   23338677.6184
        -0.000          -0.000
 -19652811.166 9 -15288979.22048  21291522.968    21291522.5964   21291528.1764
        -0.000          -0.000
 -11349404.149 9  -8831906.57549  19823733.982    19823733.7854   19823739.1154
        -0.000          -0.000
  12651638.803 8   9818295.57345  23427574.518    23427574.0284   23427584.2484
        -0.000          -0.000
 97  3  6 17 40 29.9970000  0  8 18  3  2 31 10 27 19 16            -0.002674182
  -8628565.531 9  -6507313.01549  19522073.425    19522073.1704   19522078.2964
        -0.000          -0.000
  -7004997.903 9  -5440048.38946  22623883.961    22623883.6624   22623889.4754
        -0.000          -0.000
 -14232087.193 9 -10777075.37247  22627570.604    22627569.9604   22627578.3744
        -0.000          -0.000
 -19288891.984 9 -15012107.15548  20747021.460    20747020.9964   20747026.4214
        -0.000          -0.000
 -11511760.596 9  -8944130.14446  23329536.146    23329535.2594   23329542.3994
        -0.000          -0.000
 -19730332.993 9 -15349385.81748  21276771.038    21276770.6884   21276776.2524
        -0.000          -0.000
 -11375924.253 9  -8852571.58649  19818687.351    19818687.1584   19818692.4854
        -0.000          -0.000
  12732935.671 8   9881643.56245  23443044.986    23443044.3874   23443054.5024
        -0.000          -0.000
 97  3  6 17 40 59.9970000  0  8 18  3  2 31 10 27 19 16            -0.002685355
  -8607811.497 9  -6491141.05849  19526022.820    19526022.5464   19526027.6874
        -0.000          -0.000
  -6973817.808 9  -5415752.21746  22629817.255    22629817.0434   22629822.8544
        -0.000          -0.000
 -14323027.939 9 -10847938.21347  22610265.054    22610264.4604   22610272.8784
        -0.000          -0.000
 -19320850.523 9 -15037009.89348  20740939.923    20740939.4764   20740944.8824
        -0.000          -0.000
 -11559152.343 9  -8981058.79946  23320517.826    23320516.9924   23320524.1234
        -0.000          -0.000
 -19807707.872 9 -15409677.91348  21262047.082    21262046.7514   21262052.3054
        -0.000          -0.000
 -11402211.847 9  -8873055.42149  19813684.996    19813684.8114   19813690.1394
        -0.000          -0.000
  12814208.071 9   9944972.53845  23458510.790    23458510.2404   23458520.3794
        -0.000          -0.000
 97  3  6 17 41 29.9970000  0  8 18  3  2 31 10 27 19 16            -0.002696477
  -8586501.951 9  -6474536.23449  19530077.922    19530077.6694   19530082.8194
        -0.000          -0.000
  -6942072.986 9  -5391015.99246  22635858.141    22635857.8724   22635863.6924
        -0.000          -0.000
 -14413674.644 9 -10918571.93847  22593015.513    22593014.8924   22593023.3444
        -0.000          -0.000
 -19352139.107 9 -15061390.58448  20734985.840    20734985.3984   20734990.8644
        -0.000          -0.000
 -11605941.934 9  -9017518.25246  23311614.100    23311613.2464   23311620.2804
        -0.000          -0.000
 -19884952.789 9 -15469868.73748  21247347.812    21247347.4784   21247353.0504
        -0.000          -0.000
 -11428256.675 9  -8893350.09049  19808728.814    19808728.6434   19808733.9764
        -0.000          -0.000
  12895481.937 9  10008302.63145  23473976.945    23473976.5144   23473986.4724
        -0.000          -0.000
 97  3  6 17 41 59.9970000  0  8 18  3  2 31 10 27 19 16            -0.002707564
  -8564629.548 9  -6457492.81949  19534240.118    19534239.8474   19534245.0094
        -0.000          -0.000
  -6909787.102 9  -5365858.16846  22642001.921    22642001.6784   22642007.4374
        -0.000          -0.000
 -14504043.280 9 -10988988.97247  22575818.931    22575818.2664   22575826.7284
        -0.000          -0.000
 -19382787.712 9 -15085272.59048  20729153.640    20729153.1664   20729158.5934
        -0.000          -0.000
 -11652159.773 9  -9053532.15546  23302819.343    23302818.3754   23302825.3744
        -0.000          -0.000
 -19962084.644 9 -15529971.45848  21232670.058    21232669.7694   21232675.3454
        -0.000          -0.000
 -11454052.683 9  -8913450.87249  19803820.026    19803819.8414   19803825.1724
        -0.000          -0.000
  12976768.075 9  10071642.30245  23489445.321    23489444.8154   23489454.8094
        -0.000          -0.000
 97  3  6 17 42 29.9970000  0  8 18  3  2 31 10 27 19 16            -0.002718622
  -8542175.625 9  -6439996.27249  19538512.984    19538512.7194   19538517.8714
        -0.000          -0.000
  -6876968.171 9  -5340284.97346  22648247.230    22648246.9654   22648252.7404
        -0.000          -0.000
 -14594125.201 9 -11059182.60947  22558676.809    22558676.1844   22558684.7034
        -0.000          -0.000
 -19412797.170 9 -15108656.55648  20723443.024    20723442.5594   20723447.9534
        -0.000          -0.000
 -11697806.982 9  -9089101.43946  23294133.001    23294132.0084   23294138.9584
        -0.000          -0.000
 -20039094.826 9 -15589979.37748  21218015.615    21218015.2344   21218020.7954
        -0.000          -0.000
 -11479577.807 9  -8933340.57549  19798962.764    19798962.5844   19798967.8934
        -0.000          -0.000
  13058081.416 9  10135003.15945  23504918.917    23504918.4334   23504928.4174
        -0.000          -0.000
 97  3  6 17 42 59.9970000  0  8 18  3  2 31 10 27 19 16            -0.002729657
  -8519132.718 9  -6422040.77949  19542897.918    19542897.6344   19542902.7994
        -0.000          -0.000
  -6843621.964 9  -5314300.92546  22654592.754    22654592.5524   22654598.2994
        -0.000          -0.000
 -14683911.275 9 -11129145.71547  22541590.995    22541590.4314   22541598.9264
        -0.000          -0.000
 -19442164.446 9 -15131540.12148  20717854.624    20717854.1484   20717859.5214
        -0.000          -0.000
 -11742913.442 9  -9124249.39746  23285549.366    23285548.5104   23285555.4994
        -0.000          -0.000
 -20115975.438 9 -15649886.33048  21203385.584    21203385.2724   21203390.8734
        -0.000          -0.000
 -11504825.742 9  -8953014.28649  19794158.267    19794158.0694   19794163.3654
        -0.000          -0.000
  13139438.218 9  10198397.87946  23520400.739    23520400.1754   23520410.4014
        -0.000          -0.000
 97  3  6 17 43 29.9970000  0  8 18  3  2 31 10 27 19 16            -0.002740671
  -8495484.160 9  -6403613.35149  19547398.072    19547397.8184   19547402.9754
        -0.000          -0.000
  -6809743.122 9  -5287901.82746  22661039.702    22661039.5094   22661045.2064
        -0.000          -0.000
 -14773390.212 9 -11198869.49147  22524563.722    22524563.1204   22524571.5694
        -0.000          -0.000
 -19470882.799 9 -15153918.03548  20712389.714    20712389.2224   20712394.5894
        -0.000          -0.000
 -11787490.438 9  -9158984.76446  23277066.650    23277065.8624   23277072.7834
        -0.000          -0.000
 -20192720.164 9 -15709687.40348  21188781.602    21188781.2524   21188786.8194
        -0.000          -0.000
 -11529791.057 9  -8972467.77549  19789407.492    19789407.2984   19789412.5954
        -0.000          -0.000
  13220833.111 9  10261822.27346  23535889.880    23535889.3124   23535899.5514
        -0.000          -0.000
 97  3  6 17 43 59.9970000  0  8 18  3  2 31 10 27 19 16            -0.002751666
  -8471249.511 9  -6384729.22949  19552009.788    19552009.5054   19552014.6774
        -0.000          -0.000
  -6775335.621 9  -5261090.79846  22667587.241    22667587.0054   22667592.7284
        -0.000          -0.000
 -14862577.719 9 -11268366.18447  22507591.836    22507591.2294   22507599.6484
        -0.000          -0.000
 -19498954.953 9 -15175792.41448  20707047.768    20707047.2694   20707052.6154
        -0.000          -0.000
 -11831520.745 9  -9193294.12646  23268688.029    23268687.1834   23268694.1724
        -0.000          -0.000
 -20269331.968 9 -15769384.89748  21174202.814    21174202.4854   21174208.0514
        -0.000          -0.000
 -11554486.292 9  -8991710.81749  19784708.113    19784707.9724   19784713.2724
        -0.000          -0.000
  13302229.842 9  10325248.10545  23551379.364    23551378.7604   23551389.0234
        -0.000          -0.000
 97  3  6 17 44 29.9970000  0  8 18  3  2 31 10 27 19 16            -0.002762623
  -8446433.941 9  -6365392.44149  19556732.081    19556731.8264   19556736.9834
        -0.000          -0.000
  -6740375.079 9  -5233848.81746  22674239.961    22674239.8104   22674245.4924
        -0.000          -0.000
 -14951465.231 9 -11337629.11247  22490677.089    22490676.4684   22490684.8364
        -0.000          -0.000
 -19526362.132 9 -15197148.62348  20701832.321    20701831.8304   20701837.1844
        -0.000          -0.000
 -11874980.957 9  -9227159.23446  23260417.860    23260417.0284   23260423.9634
        -0.000          -0.000
 -20345808.042 9 -15828976.61848  21159649.851    21159649.5604   21159655.1594
        -0.000          -0.000
 -11578918.872 9  -9010749.19149  19780058.775    19780058.6104   19780063.9154
        -0.000          -0.000
  13383629.301 9  10388676.04945  23566869.320    23566868.4864   23566879.0174
        -0.000          -0.000
 97  3  6 17 44 59.9970000  0  8 18  3  2 31 10 27 19 16            -0.002773532
  -8421049.162 9  -6345612.11749  19561562.653    19561562.3824   19561567.5544
        -0.000          -0.000
  -6704850.354 9  -5206167.22546  22681000.062    22680999.8904   22681005.6564
        -0.000          -0.000
 -15040052.379 9 -11406657.99847  22473819.403    22473818.8094   22473827.0704
        -0.000          -0.000
 -19553094.225 9 -15217978.79548  20696745.344    20696744.9024   20696750.2134
        -0.000          -0.000
 -11917858.467 9  -9260570.30846  23252258.634    23252257.7374   23252264.6914
        -0.000          -0.000
 -20422158.413 9 -15888470.39848  21145120.907    21145120.5584   21145126.1694
        -0.000          -0.000
 -11603095.471 9  -9029588.10149  19775458.102    19775457.9654   19775463.2564
        -0.000          -0.000
  13465025.108 9  10452101.16446  23582358.521    23582357.9034   23582368.3094
        -0.000          -0.000
 97  3  6 17 45 29.9970000  0  8 18  3  2 31 10 27 19 16            -0.002784377
  -8395079.046 9  -6325375.69049  19566504.629    19566504.3714   19566509.5764
        -0.000          -0.000
  -6668741.914 9  -5178030.79646  22687871.305    22687871.1444   22687876.8774
        -0.000          -0.000
 -15128331.485 9 -11475446.84147  22457020.387    22457019.7594   22457028.0394
        -0.000          -0.000
 -19579123.226 9 -15238261.10448  20691792.135    20691791.6814   20691797.0324
        -0.000          -0.000
 -11960115.203 9  -9293497.70646  23244217.443    23244216.6344   23244223.5244
        -0.000          -0.000
 -20498373.487 9 -15947858.75048  21130617.625    21130617.2984   21130622.9104
        -0.000          -0.000
 -11626999.090 9  -9048214.29949  19770909.402    19770909.2444   19770914.5624
        -0.000          -0.000
  13546421.148 9  10515526.43446  23597847.794    23597847.2204   23597857.6364
        -0.000          -0.000
 97  3  6 17 45 59.9970000  0  8 18  3  2 31 10 27 19 16            -0.002795166
  -8368537.918 9  -6304694.31449  19571555.225    19571554.9844   19571560.1764
        -0.000          -0.000
  -6632057.923 9  -5149445.87146  22694852.013    22694851.8404   22694857.6334
        -0.000          -0.000
 -15216321.890 9 -11544010.72847  22440276.337    22440275.7014   22440283.9004
        -0.000          -0.000
 -19604472.098 9 -15258013.44148  20686968.369    20686967.9204   20686973.3004
        -0.000          -0.000
 -12001763.365 9  -9325950.86646  23236292.084    23236291.1704   23236298.1074
        -0.000          -0.000
 -20574465.494 9 -16007151.20548  21116137.843    21116137.4824   21116143.0384
        -0.000          -0.000
 -11650650.804 9  -9066644.20649  19766408.632    19766408.4804   19766413.7984
        -0.000          -0.000
  13627801.227 9  10578939.26346  23613334.028    23613333.4894   23613344.0514
        -0.000          -0.000
 97  3  6 17 46 29.9970000  0  8 18  3  2 31 10 27 19 16            -0.002805891
  -8341412.485 9  -6283557.64049  19576717.048    19576716.7914   19576722.0044
        -0.000          -0.000
  -6594786.011 9  -5120402.84746  22701944.542    22701944.3714   22701950.2774
        -0.000          -0.000
 -15304003.763 9 -11612334.20047  22423590.997    22423590.3624   22423598.5404
        -0.000          -0.000
 -19629136.712 9 -15277232.59848  20682274.799    20682274.3794   20682279.7054
        -0.000          -0.000
 -12042804.046 9  -9357930.64646  23228482.305    23228481.3684   23228488.4604
        -0.000          -0.000
 -20650418.138 9 -16066335.05748  21101684.495    21101684.1384   21101689.7194
        -0.000          -0.000
 -11674053.879 9  -9084880.37349  19761955.221    19761955.0434   19761960.3584
        -0.000          -0.000
  13709173.198 9  10642345.79146  23628818.759    23628818.1694   23628829.0024
        -0.000          -0.000
 97  3  6 17 46 59.9970000  0  8 18  3  2 31 10 27 19 16            -0.002816571
  -8313705.748 9  -6261968.00249  19581989.464    19581989.2314   19581994.4474
        -0.000          -0.000
  -6556958.736 9  -5090927.06146  22709143.002    22709142.7484   22709148.6074
        -0.000          -0.000
 -15391387.177 9 -11680425.10347  22406962.427    22406961.8134   22406969.9594
        -0.000          -0.000
 -19653124.898 9 -15295924.66248  20677709.998    20677709.5894   20677714.9134
        -0.000          -0.000
 -12083256.482 9  -9389452.04646  23220784.541    23220783.5564   23220790.6224
        -0.000          -0.000
 -20726230.045 9 -16125409.24448  21087257.938    21087257.6054   21087263.1764
        -0.000          -0.000
 -11697214.309 9  -9102927.46449  19757547.935    19757547.7844   19757553.0924
        -0.000          -0.000
  13790524.584 8  10705736.24845  23644299.555    23644299.0314   23644309.8334
        -0.000          -0.000
 97  3  6 17 47 29.9970000  0  8 18  3  2 31 10 27 19 16            -0.002827217
  -8285397.493 9  -6239909.64749  19587376.407    19587376.1624   19587381.3694
        -0.000          -0.000
  -6518595.910 9  -5061033.97746  22716443.135    22716442.9344   22716448.7524
        -0.000          -0.000
 -15478466.872 9 -11748279.34247  22390391.678    22390391.0754   22390399.1984
        -0.000          -0.000
 -19676433.312 9 -15314087.03948  20673274.605    20673274.1504   20673279.4964
        -0.000          -0.000
 -12123125.900 9  -9420519.16746  23213197.450    23213196.6184   23213203.7914
        -0.000          -0.000
 -20801875.716 9 -16184353.90248  21072863.024    21072862.6914   21072868.2354
        -0.000          -0.000
 -11720129.832 9  -9120783.71649  19753187.235    19753187.0834   19753192.3644
        -0.000          -0.000
  13871856.758 8  10769111.74645  23659776.762    23659776.2774   23659786.9804
        -0.000          -0.000
 97  3  6 17 47 59.9970000  0  8 18  3  2 31 10 27 19 16            -0.002837831
  -8256498.582 9  -6217391.04449  19592875.687    19592875.4454   19592880.6604
        -0.000          -0.000
  -6479712.497 9  -5030735.23846  22723842.364    22723842.1814   22723847.9794
        -0.000          -0.000
 -15565246.330 9 -11815899.62947  22373878.122    22373877.4974   22373885.5304
        -0.000          -0.000
 -19699068.021 9 -15331724.45748  20668967.397    20668966.9024   20668972.2184
        -0.000          -0.000
 -12162416.555 9  -9451135.29246  23205720.665    23205719.9344   23205726.9534
        -0.000          -0.000
 -20877350.804 9 -16243165.63348  21058500.593    21058500.2644   21058505.7784
        -0.000          -0.000
 -11742805.094 9  -9138452.75449  19748872.245    19748872.1104   19748877.4064
        -0.000          -0.000
  13953174.518 8  10832476.02345  23675251.106    23675250.5654   23675261.3774
        -0.000          -0.000
 97  3  6 17 48 29.9970000  0  8 18  3  2 31 10 27 19 16            -0.002848421
  -8227031.688 9  -6194429.85549  19598483.073    19598482.8334   19598488.0444
        -0.000          -0.000
  -6440336.054 9  -5000052.31646  22731335.508    22731335.3244   22731341.1334
        -0.000          -0.000
 -15651734.699 9 -11883293.10447  22357419.825    22357419.2514   22357427.3384
        -0.000          -0.000
 -19721028.113 9 -15348836.19148  20664788.449    20664788.0154   20664793.3214
        -0.000          -0.000
 -12201147.648 9  -9481315.39346  23198350.387    23198349.6274   23198356.7444
        -0.000          -0.000
 -20952661.896 9 -16301849.58748  21044169.314    21044169.0254   21044174.5504
        -0.000          -0.000
 -11765245.352 9  -9155938.67549  19744602.038    19744601.8774   19744607.1724
        -0.000          -0.000
  14034474.625 8  10895826.53845  23690722.247    23690721.7344   23690732.6524
        -0.000          -0.000
 97  3  6 17 48 59.9970000  0  8 18  3  2 31 10 27 19 16            -0.002858986
  -8196994.731 9  -6171024.45749  19604198.889    19604198.6664   19604203.8914
        -0.000          -0.000
  -6400467.996 9  -4968986.32246  22738922.408    22738922.0024   22738927.7784
        -0.000          -0.000
 -15737929.759 9 -11950458.01047  22341017.457    22341016.8964   22341024.9334
        -0.000          -0.000
 -19742308.909 9 -15365418.60748  20660738.854    20660738.4184   20660743.7074
        -0.000          -0.000
 -12239320.305 9  -9511060.35346  23191086.464    23191085.6754   23191092.7774
        -0.000          -0.000
 -21027805.142 9 -16360402.74548  21029869.958    21029869.7044   21029875.2374
        -0.000          -0.000
 -11787428.487 9  -9173224.23749  19740380.749    19740380.6094   19740385.9164
        -0.000          -0.000
  14115767.653 8  10959171.53445  23706191.977    23706191.5054   23706202.3334
        -0.000          -0.000
 97  3  6 17 49 29.9970000  0  8 18  3  2 31 10 27 19 16            -0.002869526
  -8166408.913 9  -6147191.38349  19610019.211    19610018.9764   19610024.2234
        -0.000          -0.000
  -6360096.651 9  -4937528.14446  22746604.745    22746604.4144   22746610.1184
        -0.000          -0.000
 -15823838.479 9 -12017399.79647  22324669.570    22324668.9444   22324677.0204
        -0.000          -0.000
 -19762934.705 9 -15381490.63648  20656813.922    20656813.4564   20656818.7444
        -0.000          -0.000
 -12276944.844 9  -9540378.22246  23183926.740    23183926.0524   23183933.1104
        -0.000          -0.000
 -21102800.397 9 -16418840.59248  21015598.839    21015598.5844   21015604.0964
        -0.000          -0.000
 -11809369.239 9  -9190320.93249  19736205.578    19736205.4194   19736210.7244
        -0.000          -0.000
  14197034.549 8  11022496.14745  23721656.567    23721655.9594   23721666.9754
        -0.000          -0.000
 97  3  6 17 49 59.9970000  0  8 18  3  2 31 10 27 19 16            -0.002880023
  -8135290.028 9  -6122942.92749  19615940.998    19615940.7374   19615946.0034
        -0.000          -0.000
  -6319189.994 9  -4905652.84446  22754388.868    22754388.6154   22754394.4044
        -0.000          -0.000
 -15909445.284 9 -12084106.32847  22308379.082    22308378.4514   22308386.4724
        -0.000          -0.000
 -19782900.455 9 -15397048.34348  20653014.537    20653014.0564   20653019.3584
        -0.000          -0.000
 -12314015.463 9  -9569264.43246  23176872.369    23176871.5964   23176878.8434
        -0.000          -0.000
 -21177655.304 9 -16477169.06548  21001354.434    21001354.1554   21001359.6594
        -0.000          -0.000
 -11831057.843 9  -9207221.14649  19732078.360    19732078.2264   19732083.5264
        -0.000          -0.000
  14278277.420 8  11085802.07145  23737116.703    23737116.0264   23737127.1544
        -0.000          -0.000
 97  3  6 17 50 29.9970000  0  8 18  3  2 31 10 27 19 16            -0.002890485
  -8103637.503 9  -6098278.64549  19621964.303    19621964.0574   19621969.3054
        -0.000          -0.000
  -6277747.721 9  -4873360.18246  22762275.024    22762274.8364   22762280.6234
        -0.000          -0.000
 -15994749.912 9 -12150577.39147  22292146.010    22292145.4494   22292153.4434
        -0.000          -0.000
 -19802205.726 9 -15412091.39848  20649340.779    20649340.3394   20649345.6284
        -0.000          -0.000
 -12350541.213 9  -9597726.08046  23169921.752    23169921.0274   23169928.2854
        -0.000          -0.000
 -21252380.010 9 -16535396.08848  20987134.851    20987134.5394   20987140.0174
        -0.000          -0.000
 -11852501.338 9  -9223930.36549  19727997.817    19727997.6914   19728003.0064
        -0.000          -0.000
  14359471.641 8  11149070.05445  23752567.313    23752566.8004   23752578.1784
        -0.000          -0.000
 97  3  6 17 50 59.9970000  0  8 18  3  2 31 10 27 19 16            -0.002900910
  -8071435.763 9  -6073186.40349  19628092.092    19628091.8554   19628097.1064
        -0.000          -0.000
  -6235765.616 9  -4840646.87146  22770264.050    22770263.8744   22770269.5974
        -0.000          -0.000
 -16079759.401 9 -12216818.48847  22275969.249    22275968.6384   22275976.6354
        -0.000          -0.000
 -19820841.015 9 -15426612.38648  20645794.538    20645794.1144   20645799.3874
        -0.000          -0.000
 -12386515.118 9  -9625757.76846  23163076.235    23163075.5264   23163082.7244
        -0.000          -0.000
 -21326990.672 9 -16593534.24748  20972936.903    20972936.5984   20972942.1194
        -0.000          -0.000
 -11873690.768 9  -9240441.61449  19723965.601    19723965.4734   19723970.7914
        -0.000          -0.000
  14440613.921 8  11212297.57345  23768008.234    23768007.8214   23768019.2594
        -0.000          -0.000
 97  3  6 17 51 29.9970000  0  8 18  3  2 31 10 27 19 16            -0.002911301
  -8038679.985 9  -6047662.44849  19634325.353    19634325.1194   19634330.3964
        -0.000          -0.000
  -6193248.600 9  -4807516.74446  22778354.837    22778354.6424   22778360.2294
        -0.000          -0.000
 -16164472.819 9 -12282828.86947  22259848.731    22259848.1684   22259856.1374
        -0.000          -0.000
 -19838798.449 9 -15440605.18148  20642377.351    20642376.9104   20642382.1744
        -0.000          -0.000
 -12421937.870 9  -9653359.91246  23156335.561    23156334.8234   23156342.0214
        -0.000          -0.000
 -21401493.416 9 -16651588.31648  20958759.404    20958759.1534   20958764.6694
        -0.000          -0.000
 -11894619.432 9  -9256749.67049  19719982.982    19719982.8604   19719988.1704
        -0.000          -0.000
  14521701.430 8  11275482.43445  23783439.021    23783438.4074   23783449.8394
        -0.000          -0.000
 97  3  6 17 51 59.9970000  0  8 18  3  2 31 10 27 19 16            -0.002921671
  -8005365.592 9  -6021703.20749  19640664.864    19640664.6214   19640669.9284
        -0.000          -0.000
  -6150224.138 9  -4773991.20746  22786542.113    22786541.9054   22786547.5484
        -0.000          -0.000
 -16248897.342 9 -12348614.13747  22243783.180    22243782.6204   22243790.5574
        -0.000          -0.000
 -19856073.326 9 -15454066.10648  20639090.035    20639089.6354   20639094.8764
        -0.000          -0.000
 -12456806.557 9  -9680530.37746  23149700.254    23149699.5274   23149706.7584
        -0.000          -0.000
 -21475891.538 9 -16709560.86348  20944601.950    20944601.6544   20944607.1464
        -0.000          -0.000
 -11915282.561 9  -9272850.81049  19716050.978    19716050.8324   19716056.1504
        -0.000          -0.000
  14602725.917 8  11338618.20345  23798857.762    23798857.1544   23798868.5514
        -0.000          -0.000
 97  3  6 17 52 29.9970000  0  8 18  3  2 31 10 27 19 16            -0.002932027
  -7971488.860 9  -5995305.77749  19647111.384    19647111.1384   19647116.4584
        -0.000          -0.000
  -6106717.520 9  -4740089.95946  22794821.225    22794820.9444   22794826.6664
        -0.000          -0.000
 -16333045.215 9 -12414183.84247  22227770.322    22227769.7654   22227777.6954
        -0.000          -0.000
 -19872674.831 9 -15467002.33148  20635930.848    20635930.4624   20635935.6874
        -0.000          -0.000
 -12491120.029 9  -9707268.16546  23143170.629    23143169.9874   23143177.1824
        -0.000          -0.000
 -21550186.776 9 -16767453.23948  20930464.025    20930463.7614   20930469.2434
        -0.000          -0.000
 -11935677.280 9  -9288742.80149  19712169.991    19712169.8294   19712175.1614
        -0.000          -0.000
  14683688.841 8  11401705.99145  23814264.679    23814264.0774   23814275.5184
        -0.000          -0.000
 97  3  6 17 52 59.9970000  0  8 18  3  2 31 10 27 19 16            -0.002942366
  -7937047.901 9  -5968468.69249  19653665.301    19653665.0914   19653670.3974
        -0.000          -0.000
  -6062729.860 9  -4705813.88446  22803191.926    22803191.6184   22803197.2424
        -0.000          -0.000
 -16416916.220 9 -12479537.79547  22211810.136    22211809.6234   22211817.5394
        -0.000          -0.000
 -19888616.027 9 -15479424.02548  20632897.343    20632896.9734   20632902.1844
        -0.000          -0.000
 -12524882.600 9  -9733576.71246  23136745.781    23136745.1054   23136752.4634
        -0.000          -0.000
 -21624366.381 9 -16825255.51948  20916348.154    20916347.8444   20916353.3044
        -0.000          -0.000
 -11955809.011 9  -9304429.86449  19708339.083    19708338.8814   19708344.2264
        -0.000          -0.000
  14764601.284 8  11464754.43245  23829661.986    23829661.5084   23829673.1034
        -0.000          -0.000
 97  3  6 17 53 29.9970000  0  7 18  3  2 31 10 27 19               -0.002952704
  -7902038.016 9  -5941188.28349  19660327.499    19660327.2794   19660332.5894
        -0.000          -0.000
  -6018241.258 9  -4671147.45946  22811657.782    22811657.5484   22811663.2004
        -0.000          -0.000
 -16500481.216 9 -12544653.29947  22195908.160    22195907.6234   22195915.5764
        -0.000          -0.000
 -19903900.628 9 -15491334.08648  20629988.796    20629988.3964   20629993.5724
        -0.000          -0.000
 -12558073.229 9  -9759439.58646  23130429.831    23130429.1974   23130436.5544
        -0.000          -0.000
 -21698395.785 9 -16882940.74948  20902260.798    20902260.4964   20902265.9894
        -0.000          -0.000
 -11975693.286 9  -9319924.10549  19704555.247    19704555.0304   19704560.3674
        -0.000          -0.000
 97  3  6 17 53 59.9970000  0  7 18  3  2 31 10 27 19               -0.002962974
  -7866458.081 9  -5913463.68549  19667098.144    19667097.9214   19667103.2364
        -0.000          -0.000
  -5973238.830 9  -4636080.65546  22820221.337    22820221.1004   22820226.8644
        -0.000          -0.000
 -16583739.954 9 -12609530.15947  22180064.496    22180063.9624   22180071.8974
        -0.000          -0.000
 -19918530.477 9 -15502733.95748  20627204.871    20627204.4444   20627209.6114
        -0.000          -0.000
 -12590676.527 9  -9784844.76946  23124225.616    23124225.0424   23124232.4374
        -0.000          -0.000
 -21772255.799 9 -16940493.99148  20888205.644    20888205.3774   20888210.8504
        -0.000          -0.000
 -11995336.989 9  -9335230.88949  19700817.184    19700816.9884   19700822.3054
        -0.000          -0.000
 97  3  6 17 54 29.9970000  0  7 18  3  2 31 10 27 19               -0.002973201
  -7830321.600 9  -5885305.41449  19673974.691    19673974.4614   19673979.7834
        -0.000          -0.000
  -5927716.517 9  -4600608.73646  22828883.899    22828883.7034   22828889.5534
        -0.000          -0.000
 -16666702.029 9 -12674175.86247  22164277.240    22164276.7214   22164284.6454
        -0.000          -0.000
 -19932505.593 9 -15513623.65048  20624545.438    20624545.0454   20624550.1974
        -0.000          -0.000
 -12622705.207 9  -9809802.24746  23118130.869    23118130.3414   23118137.6524
        -0.000          -0.000
 -21845947.223 9 -16997915.86348  20874182.617    20874182.3244   20874187.7744
        -0.000          -0.000
 -12014749.697 9  -9350357.67349  19697123.069    19697122.8864   19697128.1944
        -0.000          -0.000
 97  3  6 17 54 59.9970000  0  7 18  3  2 31 10 27 19               -0.002983394
  -7793667.628 9  -5856743.90649  19680949.779    19680949.5324   19680954.8684
        -0.000          -0.000
  -5881698.423 9  -4564750.51446  22837640.949    22837640.6904   22837646.5094
        -0.000          -0.000
 -16749397.431 9 -12738613.76647  22148540.782    22148540.2554   22148548.1524
        -0.000          -0.000
 -19945854.556 9 -15524025.43748  20622005.173    20622004.7834   20622009.9374
        -0.000          -0.000
 -12654197.030 9  -9834341.35546  23112138.234    23112137.6004   23112145.0234
        -0.000          -0.000
 -21919508.455 9 -17055236.28948  20860184.328    20860184.0554   20860189.5384
        -0.000          -0.000
 -12033976.009 9  -9365339.21949  19693464.358    19693464.1994   19693469.5144
        -0.000          -0.000
 97  3  6 17 55 29.9970000  0  7 18  3  2 31 10 27 19               -0.002993559
  -7756510.686 9  -5827790.47149  19688020.497    19688020.2874   19688025.6214
        -0.000          -0.000
  -5835190.617 9  -4528510.68546  22846491.147    22846490.9734   22846496.6604
        -0.000          -0.000
 -16831826.017 9 -12802843.76547  22132855.122    22132854.5744   22132862.4534
        -0.000          -0.000
 -19958570.196 9 -15533933.72448  20619585.516    20619585.1184   20619590.2674
        -0.000          -0.000
 -12685148.386 9  -9858459.34946  23106248.524    23106247.8574   23106255.1854
        -0.000          -0.000
 -21992957.339 9 -17112469.16848  20846207.488    20846207.2114   20846212.7014
        -0.000          -0.000
 -12052989.434 9  -9380154.87949  19689846.205    19689846.0634   19689851.3984
        -0.000          -0.000
 97  3  6 17 55 59.9970000  0  7 18  3  2 31 10 27 19               -0.003003691
  -7718813.991 9  -5798416.45049  19695193.952    19695193.7214   19695199.0514
        -0.000          -0.000
  -5788169.047 9  -4491870.51746  22855439.251    22855438.9994   22855444.7134
        -0.000          -0.000
 -16913956.381 9 -12866841.38447  22117226.200    22117225.6334   22117233.5224
        -0.000          -0.000
 -19970603.433 9 -15543310.26248  20617295.630    20617295.2334   20617300.3974
        -0.000          -0.000
 -12715529.934 9  -9882133.32246  23100467.102    23100466.5404   23100473.8314
        -0.000          -0.000
 -22066264.985 9 -17169591.99048  20832257.572    20832257.2494   20832262.7254
        -0.000          -0.000
 -12071721.491 9  -9394751.28449  19686281.620    19686281.4814   19686286.8084
        -0.000          -0.000
 97  3  6 17 56 29.9960000  0  7 18  3  2 31 10 27 19               -0.003013771
  -7680558.272 9  -5768606.82249  19702473.791    19702473.5814   19702478.9084
        -0.000          -0.000
  -5740624.622 9  -4454822.92546  22864486.638    22864486.4754   22864492.1004
        -0.000          -0.000
 -16995757.495 9 -12930582.44147  22101659.958    22101659.3604   22101667.2054
        -0.000          -0.000
 -19981924.168 9 -15552131.60548  20615141.338    20615140.9454   20615146.0994
        -0.000          -0.000
 -12745324.987 9  -9905350.29246  23094797.268    23094796.6654   23094804.0664
        -0.000          -0.000
 -22139419.341 9 -17226595.36348  20818336.660    20818336.3864   20818341.8674
        -0.000          -0.000
 -12090155.820 9  -9409115.69349  19682773.708    19682773.5794   19682778.8994
        -0.000          -0.000
 97  3  6 17 56 59.9960000  0  7 18  3  2 31 10 27 19               -0.003023842
  -7641803.340 9  -5738408.20349  19709848.641    19709848.4364   19709853.7604
        -0.000          -0.000
  -5692621.127 9  -4417417.63346  22873621.343    22873621.2324   22873626.9814
        -0.000          -0.000
 -17077290.010 9 -12994114.20347  22086144.814    22086144.2214   22086152.0044
        -0.000          -0.000
 -19992596.219 9 -15560447.47848  20613110.499    20613110.1314   20613115.2634
        -0.000          -0.000
 -12774593.200 9  -9928156.74646  23089227.654    23089227.1504   23089234.4854
        -0.000          -0.000
 -22212482.865 9 -17283527.96748  20804433.153    20804432.8614   20804438.3234
        -0.000          -0.000
 -12108346.915 9  -9423290.57549  19679312.084    19679311.9364   19679317.2674
        -0.000          -0.000
 97  3  6 17 57 29.9960000  0  7 18  3  2 31 10 27 19               -0.003033923
  -7602569.575 9  -5707836.46749  19717314.608    19717314.3974   19717319.7204
        -0.000          -0.000
  -5644188.908 9  -4379678.25446  22882837.620    22882837.5114   22882843.3234
        -0.000          -0.000
 -17158573.732 9 -13057452.10047  22070676.988    22070676.3894   22070684.1884
        -0.000          -0.000
 -20002640.920 9 -15568274.51448  20611199.120    20611198.7244   20611203.8544
        -0.000          -0.000
 -12803340.288 9  -9950557.12745  23083757.307    23083756.7874   23083764.0114
        -0.000          -0.000
 -22285458.435 9 -17340392.02748  20790546.303    20790546.0444   20790551.5244
        -0.000          -0.000
 -12126308.470 9  -9437286.59649  19675894.121    19675893.9824   19675899.2874
        -0.000          -0.000
 97  3  6 17 57 59.9960000  0  7 18  3  2 31 10 27 19               -0.003044006
  -7562845.891 9  -5676882.97549  19724873.760    19724873.5644   19724878.8944
        -0.000          -0.000
  -5595326.167 9  -4341603.42246  22892135.987    22892135.8244   22892141.6464
        -0.000          -0.000
 -17239609.119 9 -13120596.48047  22055256.474    22055255.8544   22055263.6454
        -0.000          -0.000
 -20012056.861 9 -15575611.59848  20609407.343    20609406.9344   20609412.0354
        -0.000          -0.000
 -12831554.843 9  -9972542.53346  23078388.404    23078387.7654   23078394.9164
        -0.000          -0.000
 -22358324.308 9 -17397170.61148  20776680.384    20776680.1544   20776685.6224
        -0.000          -0.000
 -12144060.332 9  -9451119.22049  19672516.097    19672515.9514   19672521.2514
        -0.000          -0.000
 97  3  6 17 58 29.9960000  0  7 18  3  2 31 10 27 19               -0.003054090
  -7522641.299 9  -5645554.74749  19732524.487    19732524.2984   19732529.6114
        -0.000          -0.000
  -5546033.326 9  -4303193.43746  22901516.228    22901515.9904   22901521.8394
        -0.000          -0.000
 -17320402.722 9 -13183552.45747  22039881.848    22039881.2684   22039889.0514
        -0.000          -0.000
 -20020849.857 9 -15582463.26948  20607734.057    20607733.6334   20607738.7434
        -0.000          -0.000
 -12859241.723 9  -9994116.78546  23073119.906    23073119.1024   23073126.2764
        -0.000          -0.000
 -22431077.304 9 -17453861.23748  20762835.945    20762835.6784   20762841.1664
        -0.000          -0.000
 -12161615.890 9  -9464798.87449  19669175.378    19669175.2234   19669180.5334
        -0.000          -0.000
 97  3  6 17 58 59.9960000  0  7 18  3  2 31 10 27 19               -0.003064186
  -7481962.854 9  -5613857.28649  19740265.373    19740265.1794   19740270.5134
        -0.000          -0.000
  -5496316.707 9  -4264453.23846  22910976.992    22910976.7414   22910982.6274
        -0.000          -0.000
 -17400961.026 9 -13246325.09247  22024552.081    22024551.5004   22024559.2344
        -0.000          -0.000
 -20029034.976 9 -15588841.27548  20606176.480    20606176.0714   20606181.1734
        -0.000          -0.000
 -12886404.935 9 -10015282.97646  23067950.945    23067950.1904   23067957.4244
        -0.000          -0.000
 -22503712.185 9 -17510459.83148  20749013.977    20749013.7074   20749019.1684
        -0.000          -0.000
 -12178975.834 9  -9478326.11449  19665871.921    19665871.7504   19665877.0664
        -0.000          -0.000
 97  3  6 17 59 29.9960000  0  7 18  3  2 31 10 27 19               -0.003074273
  -7440787.412 9  -5581772.55949  19748100.815    19748100.6344   19748105.9544
        -0.000          -0.000
  -5446163.808 9  -4225373.08146  22920520.841    22920520.4944   22920526.4174
        -0.000          -0.000
 -17481265.242 9 -13308899.73047  22009270.681    22009270.0904   22009277.7864
        -0.000          -0.000
 -20036593.393 9 -15594730.95048  20604738.119    20604737.7274   20604742.8094
        -0.000          -0.000
 -12913026.673 9 -10036027.23646  23062885.153    23062884.3474   23062891.5344
        -0.000          -0.000
 -22576219.158 9 -17566958.75648  20735216.341    20735216.1084   20735221.5404
        -0.000          -0.000
 -12196134.728 9  -9491696.68649  19662606.690    19662606.5014   19662611.8284
        -0.000          -0.000
 97  3  6 17 59 59.9960000  0  7 18  3  2 31 10 27 19               -0.003084345
  -7399099.851 9  -5549288.77649  19756033.714    19756033.5134   19756038.8194
        -0.000          -0.000
  -5395561.684 9  -4185942.87446  22930150.162    22930149.8884   22930155.6784
        -0.000          -0.000
 -17561296.585 9 -13371261.74747  21994041.128    21994040.5734   21994048.2284
        -0.000          -0.000
 -20043501.356 9 -15600113.76848  20603423.580    20603423.2074   20603428.2614
        -0.000          -0.000
 -12939121.809 9 -10056361.15246  23057919.354    23057918.6244   23057925.8234
        -0.000          -0.000
 -22648597.979 9 -17623357.82948  20721443.119    20721442.8844   20721448.2824
        -0.000          -0.000
 -12213081.841 9  -9504902.23549  19659381.716    19659381.5534   19659386.8694
        -0.000          -0.000
 97  3  6 18  0 29.9960000  0  7 18  3  2 31 10 27 19               -0.003094412
  -7356928.334 9  -5516427.88349  19764058.702    19764058.4974   19764063.7944
        -0.000          -0.000
  -5344527.916 9  -4146176.31346  22939861.634    22939861.3844   22939867.1064
        -0.000          -0.000
 -17641070.547 9 -13433423.20547  21978860.619    21978860.0424   21978867.6664
        -0.000          -0.000
 -20049772.492 9 -15605000.36148  20602230.213    20602229.8234   20602234.9184
        -0.000          -0.000
 -12964713.966 9 -10076303.15146  23053049.456    23053048.6774   23053055.8754
        -0.000          -0.000
 -22720876.428 9 -17679678.68648  20707689.032    20707688.7454   20707694.1374
        -0.000          -0.000
 -12229822.423 9  -9517946.85149  19656196.100    19656195.9494   19656201.2514
        -0.000          -0.000
 97  3  6 18  0 59.9960000  0  7 18  3  2 31 10 27 19               -0.003104486
  -7314279.484 9  -5483195.04049  19772174.543    19772174.3384   19772179.6704
        -0.000          -0.000
  -5293077.305 9  -4106084.94646  22949652.345    22949652.1164   22949657.9194
        -0.000          -0.000
 -17720605.154 9 -13495398.14747  21963725.561    21963725.0204   21963732.6784
        -0.000          -0.000
 -20055426.567 9 -15609406.12748  20601154.309    20601153.8984   20601158.9834
        -0.000          -0.000
 -12989811.240 9 -10095859.52646  23048273.695    23048272.9134   23048280.0914
        -0.000          -0.000
 -22793070.802 9 -17735934.03048  20693950.882    20693950.6264   20693956.0004
        -0.000          -0.000
 -12246361.003 9  -9530834.06049  19653048.926    19653048.7774   19653054.0694
        -0.000          -0.000
 97  3  6 18  1 29.9960000  0  7 18  3  2 31 10 27 19               -0.003114584
  -7271170.574 9  -5449603.71449  19780377.922    19780377.7194   19780383.0824
        -0.000          -0.000
  -5241232.082 9  -4065686.09546  22959518.138    22959517.8974   22959523.7414
        -0.000          -0.000
 -17799923.765 9 -13557204.78547  21948631.663    21948631.1194   21948638.7444
        -0.000          -0.000
 -20060474.096 9 -15613339.26148  20600193.751    20600193.3734   20600198.4234
        -0.000          -0.000
 -13014440.347 9 -10115051.08746  23043587.007    23043586.1674   23043593.4634
        -0.000          -0.000
 -22865210.619 9 -17792146.86348  20680223.104    20680222.8804   20680228.2154
        -0.000          -0.000
 -12262703.154 9  -9543568.21149  19649939.120    19649938.9704   19649944.2804
        -0.000          -0.000
 97  3  6 18  1 59.9960000  0  7 18  3  2 31 10 27 19               -0.003124714
  -7227598.894 9  -5415651.78749  19788669.375    19788669.1794   19788674.5374
        -0.000          -0.000
  -5188983.700 9  -4024973.09646  22969460.588    22969460.3444   22969466.3104
        -0.000          -0.000
 -17879033.774 9 -13618848.87347  21933577.460    21933576.9214   21933584.5304
        -0.000          -0.000
 -20064917.151 9 -15616801.37248  20599348.337    20599347.9384   20599352.9794
        -0.000          -0.000
 -13038594.949 9 -10133872.93146  23038990.524    23038989.8194   23038997.0084
        -0.000          -0.000
 -22937286.067 9 -17848309.54148  20666507.656    20666507.3754   20666512.7044
        -0.000          -0.000
 -12278827.925 9  -9556132.97849  19646870.691    19646870.5454   19646875.8484
        -0.000          -0.000
 97  3  6 18  2 29.9960000  0  7 18  3  2 31 10 27 19               -0.003134868
  -7183553.021 9  -5381330.36249  19797051.076    19797050.8874   19797056.2334
        -0.000          -0.000
  -5136321.361 9  -3983937.52646  22979481.858    22979481.7064   22979487.6614
        -0.000          -0.000
 -17957929.512 9 -13680325.99547  21918564.033    21918563.5054   21918571.0744
        -0.000          -0.000
 -20068765.641 9 -15619800.18948  20598615.935    20598615.5354   20598620.5934
        -0.000          -0.000
 -13062248.215 9 -10152304.09346  23034489.466    23034488.7854   23034496.0264
        -0.000          -0.000
 -23009290.852 9 -17904417.15548  20652805.575    20652805.2904   20652810.6234
        -0.000          -0.000
 -12294713.140 9  -9568511.07849  19643847.855    19643847.7174   19643853.0184
        -0.000          -0.000
 97  3  6 18  2 59.9960000  0  7 18  3  2 31 10 27 19               -0.003145043
  -7139027.816 9  -5346635.43049  19805523.993    19805523.7814   19805529.1334
        -0.000          -0.000
  -5083253.298 9  -3942585.80646  22989580.400    22989580.2144   22989586.2144
        -0.000          -0.000
 -18036616.625 9 -13741640.55847  21903590.360    21903589.8104   21903597.3554
        -0.000          -0.000
 -20072038.833 9 -15622350.72548  20597993.090    20597992.6774   20597997.7314
        -0.000          -0.000
 -13085416.217 9 -10170357.13446  23030080.835    23030080.1674   23030087.3444
        -0.000          -0.000
 -23081242.707 9 -17960483.52348  20639113.587    20639113.2994   20639118.6374
        -0.000          -0.000
 -12310378.806 9  -9580718.10049  19640866.788    19640866.6414   19640871.9354
        -0.000          -0.000
 97  3  6 18  3 29.9960000  0  7 18  3  2 31 10 27 19               -0.003155224
  -7094027.202 9  -5311570.04949  19814087.340    19814087.1534   19814092.5094
        -0.000          -0.000
  -5029769.169 9  -3900909.87646  22999758.243    22999757.9494   22999763.9084
        -0.000          -0.000
 -18115078.364 9 -13802779.50047  21888659.525    21888658.9774   21888666.5534
        -0.000          -0.000
 -20074727.412 9 -15624445.71548  20597481.399    20597481.0014   20597486.0584
        -0.000          -0.000
 -13108089.159 9 -10188024.42546  23025766.373    23025765.6744   23025772.9174
        -0.000          -0.000
 -23153132.319 9 -18016501.38948  20625433.406    20625433.1504   20625438.4944
        -0.000          -0.000
 -12325828.281 9  -9592756.65949  19637926.813    19637926.6764   19637931.9974
        -0.000          -0.000
 97  3  6 18  3 59.9960000  0  7 18  3  2 31 10 27 19               -0.003165409
  -7048562.738 9  -5276143.22549  19822738.924    19822738.7234   19822744.0944
        -0.000          -0.000
  -4975873.362 9  -3858913.15446  23010014.387    23010014.0394   23010019.9414
        -0.000          -0.000
 -18193310.414 9 -13863739.46447  21873772.389    21873771.8534   21873779.3814
        -0.000          -0.000
 -20076848.738 9 -15626098.69348  20597077.705    20597077.3204   20597082.4114
        -0.000          -0.000
 -13130267.284 9 -10205306.13246  23021546.062    23021545.3164   23021552.4714
        -0.000          -0.000
 -23224948.893 9 -18072462.34448  20611767.201    20611766.9414   20611772.2594
        -0.000          -0.000
 -12341077.950 9  -9604639.52949  19635024.939    19635024.7854   19635030.0774
        -0.000          -0.000
 97  3  6 18  4 29.9960000  0  7 18  3  2 31 10 27 19               -0.003175586
  -7002634.048 9  -5240354.66449  19831478.896    19831478.7034   19831484.0834
        -0.000          -0.000
  -4921566.307 9  -3816595.99046  23020348.687    23020348.3354   23020354.2774
        -0.000          -0.000
 -18271282.144 9 -13924496.58847  21858934.840    21858934.3154   21858941.8004
        -0.000          -0.000
 -20078379.937 9 -15627291.83748  20596786.304    20596785.9024   20596791.0114
        -0.000          -0.000
 -13151952.914 9 -10222204.09346  23017419.363    23017418.6724   23017425.9634
        -0.000          -0.000
 -23296675.123 9 -18128352.90248  20598118.152    20598117.9004   20598123.1774
        -0.000          -0.000
 -12356134.012 9  -9616371.53449  19632159.863    19632159.7294   19632165.0304
        -0.000          -0.000
 97  3  6 18  4 59.9960000  0  7 18  3  2 31 10 27 19               -0.003185762
  -6956258.058 9  -5204217.56248  19840303.975    19840303.7844   19840309.1484
        -0.000          -0.000
  -4866862.864 9  -3773969.95946  23030758.422    23030758.0284   23030764.0464
        -0.000          -0.000
 -18348999.856 9 -13985055.77047  21844145.555    21844145.0034   21844152.5294
        -0.000          -0.000
 -20079314.310 9 -15628019.91148  20596608.521    20596608.0954   20596613.2144
        -0.000          -0.000
 -13173151.470 9 -10238722.48546  23013385.520    23013384.6854   23013392.0304
        -0.000          -0.000
 -23368295.314 9 -18184160.83048  20584489.256    20584488.9954   20584494.3054
        -0.000          -0.000
 -12371018.000 9  -9627969.46049  19629327.514    19629327.3794   19629332.6874
        -0.000          -0.000
 97  3  6 18  5 29.9960000  0  7 18  3  2 31 10 27 19               -0.003195953
  -6909462.843 9  -5167753.79148  19849208.816    19849208.5894   19849213.9724
        -0.000          -0.000
  -4811782.073 8  -3731049.87145  23041239.705    23041239.4124   23041245.5334
        -0.000          -0.000
 -18426476.048 9 -14045426.75847  21829402.293    21829401.7204   21829409.2504
        -0.000          -0.000
 -20079640.807 9 -15628274.32248  20596546.418    20596545.9884   20596551.1194
        -0.000          -0.000
 -13193866.795 9 -10254864.36146  23009443.535    23009442.8044   23009450.1244
        -0.000          -0.000
 -23439800.720 9 -18239879.31048  20570882.211    20570881.9454   20570887.2714
        -0.000          -0.000
 -12385731.987 9  -9639434.91849  19626527.536    19626527.4184   19626532.7044
        -0.000          -0.000
 97  3  6 18  5 59.9960000  0  7 18  3  2 31 10 27 19               -0.003206161
  -6862224.657 9  -5130944.85448  19858197.939    19858197.7464   19858203.1454
        -0.000          -0.000
  -4756326.014 8  -3687837.39345  23051792.648    23051792.3264   23051798.4414
        -0.000          -0.000
 -18503700.431 9 -14105601.53447  21814706.929    21814706.3734   21814713.8524
        -0.000          -0.000
 -20079349.985 9 -15628047.71148  20596601.758    20596601.3404   20596606.4844
        -0.000          -0.000
 -13214107.094 9 -10270636.07146  23005591.887    23005591.2504   23005598.5834
        -0.000          -0.000
 -23511190.231 9 -18295507.49148  20557297.217    20557296.9594   20557302.3054
        -0.000          -0.000
 -12400264.545 9  -9650759.00249  19623762.112    19623761.9824   19623767.2804
        -0.000          -0.000
 97  3  6 18  6 29.9960000  0  7 18  3  2 31 10 27 19               -0.003216382
  -6814545.031 9  -5093791.93148  19867271.155    19867270.9444   19867276.3564
        -0.000          -0.000
  -4700500.234 8  -3644336.80145  23062415.844    23062415.4824   23062421.6504
        -0.000          -0.000
 -18580689.953 9 -14165593.30347  21800056.244    21800055.6864   21800063.2054
        -0.000          -0.000
 -20078448.321 9 -15627345.11448  20596773.347    20596772.9414   20596778.0614
        -0.000          -0.000
 -13233876.368 9 -10286040.77646  23001829.971    23001829.2754   23001836.7064
        -0.000          -0.000
 -23582484.655 9 -18351061.57848  20543730.352    20543730.0824   20543735.4274
        -0.000          -0.000
 -12414626.703 9  -9661950.30549  19621029.137    19621028.9744   19621034.2514
        -0.000          -0.000
 97  3  6 18  6 59.9960000  0  7 18  3  2 31 10 27 19               -0.003226625
  -6766431.066 9  -5056300.56448  19876426.958    19876426.7264   19876432.1604
        -0.000          -0.000
  -4644311.265 8  -3600553.22645  23073108.326    23073107.8994   23073114.1514
        -0.000          -0.000
 -18657469.477 9 -14225421.43747  21785445.548    21785444.9604   21785452.4684
        -0.000          -0.000
 -20076963.262 9 -15626187.92348  20597055.924    20597055.5054   20597060.6194
        -0.000          -0.000
 -13253168.668 9 -10301073.78446  22998158.838    22998158.2164   22998165.5814
        -0.000          -0.000
 -23653692.142 9 -18406547.92148  20530180.014    20530179.7324   20530185.0554
        -0.000          -0.000
 -12428819.770 9  -9673009.84649  19618328.282    19618328.1244   19618333.4244
        -0.000          -0.000
 97  3  6 18  7 29.9960000  0  7 18  3  2 31 10 27 19               -0.003236869
  -6717856.280 9  -5018450.11248  19885670.396    19885670.1974   19885675.6194
        -0.000          -0.000
  -4587731.391 8  -3556465.04645  23083875.165    23083874.6774   23083880.9644
        -0.000          -0.000
 -18734015.207 9 -14285067.39547  21770879.321    21770878.7444   21770886.2024
        -0.000          -0.000
 -20074879.706 9 -15624564.37448  20597452.432    20597451.9914   20597457.0864
        -0.000          -0.000
 -13271964.770 9 -10315720.16646  22994582.110    22994581.4424   22994588.7934
        -0.000          -0.000
 -23724808.604 9 -18461963.33448  20516646.995    20516646.7014   20516652.0054
        -0.000          -0.000
 -12442814.546 9  -9683914.87349  19615665.200    19615665.0384   19615670.3254
        -0.000          -0.000
 97  3  6 18  7 59.9960000  0  7 18  3  2 31 10 27 19               -0.003247109
  -6668813.534 9  -4980235.01848  19895003.000    19895002.7664   19895008.2334
        -0.000          -0.000
  -4530752.806 8  -3512066.17545  23094717.895    23094717.3994   23094723.7614
        -0.000          -0.000
 -18810321.591 9 -14344526.86447  21756358.661    21756358.0874   21756365.5174
        -0.000          -0.000
 -20072215.641 9 -15622488.47948  20597959.351    20597958.9104   20597964.0114
        -0.000          -0.000
 -13290265.106 9 -10329980.23946  22991099.755    22991098.9734   22991106.4424
        -0.000          -0.000
 -23795837.622 9 -18517310.60748  20503130.596    20503130.2984   20503135.6364
        -0.000          -0.000
 -12456603.343 9  -9694659.40049  19613041.233    19613041.0844   19613046.4014
        -0.000          -0.000
 97  3  6 18  8 29.9960000  0  7 18  3  2 31 10 27 19               -0.003257348
  -6619331.719 9  -4941677.79148  19904419.105    19904418.8784   19904424.3634
        -0.000          -0.000
  -4473378.649 8  -3467359.06745  23105635.888    23105635.4224   23105641.5514
        -0.000          -0.000
 -18886388.162 9 -14403799.45447  21741883.631    21741883.0674   21741890.5074
        -0.000          -0.000
 -20068956.525 9 -15619948.91348  20598579.557    20598579.1304   20598584.2384
        -0.000          -0.000
 -13308048.815 9 -10343837.73646  22987715.681    22987714.9064   22987722.3634
        -0.000          -0.000
 -23866767.576 9 -18572580.68848  20489633.065    20489632.8024   20489638.1304
        -0.000          -0.000
 -12470173.200 9  -9705233.32649  19610458.975    19610458.8624   19610464.1644
        -0.000          -0.000
 97  3  6 18  8 59.9960000  0  7 18  3  2 31 10 27 19               -0.003267601
  -6569430.587 9  -4902793.82648  19913914.988    19913914.7744   19913920.2644
        -0.000          -0.000
  -4415615.662 9  -3422348.95845  23116627.770    23116627.6014   23116633.3864
        -0.000          -0.000
 -18962221.477 9 -14462890.28947  21727453.042    21727452.4484   21727459.8504
        -0.000          -0.000
 -20065087.630 9 -15616934.19148  20599315.758    20599315.3614   20599320.4974
        -0.000          -0.000
 -13325320.571 9 -10357296.30546  22984428.969    22984428.2914   22984435.7484
        -0.000          -0.000
 -23937597.313 9 -18627772.68448  20476154.621    20476154.3434   20476159.6774
        -0.000          -0.000
 -12483507.587 9  -9715623.76549  19607921.550    19607921.4284   19607926.7374
        -0.000          -0.000
 97  3  6 18  9 29.9960000  0  7 18  3  2 31 10 27 19               -0.003277868
  -6519111.016 9  -4863583.80648  19923490.509    19923490.3054   19923495.8194
        -0.000          -0.000
  -4357470.068 9  -3377040.72445  23127692.477    23127692.2614   23127698.1064
        -0.000          -0.000
 -19037812.942 9 -14521792.67547  21713068.389    21713067.8264   21713075.1594
        -0.000          -0.000
 -20060598.181 9 -15613435.92148  20600170.048    20600169.6694   20600174.7734
        -0.000          -0.000
 -13342094.554 9 -10370367.00946  22981237.099    22981236.3514   22981243.8024
        -0.000          -0.000
 -24008335.970 9 -18682893.70748  20462693.507    20462693.2324   20462698.5264
        -0.000          -0.000
 -12496602.036 9  -9725827.24249  19605429.800    19605429.6534   19605434.9354
        -0.000          -0.000
 97  3  6 18  9 59.9960000  0  7 18  3  2 31 10 27 19               -0.003288152
  -6468367.322 9  -4824043.29848  19933146.724    19933146.5004   19933152.0224
        -0.000          -0.000
  -4298953.428 9  -3331443.34545  23138827.836    23138827.5824   23138833.4784
        -0.000          -0.000
 -19113164.117 9 -14580507.81047  21698729.498    21698728.9134   21698736.2484
        -0.000          -0.000
 -20055484.538 9 -15609451.27048  20601143.167    20601142.7464   20601147.8874
        -0.000          -0.000
 -13358373.380 9 -10383051.89146  22978139.315    22978138.5264   22978146.1484
        -0.000          -0.000
 -24078975.510 9 -18737937.49448  20449251.189    20449250.8884   20449256.1964
        -0.000          -0.000
 -12509461.934 9  -9735847.95249  19602982.668    19602982.5074   19602987.8074
        -0.000          -0.000
 97  3  6 18 10 29.9960000  0  7 18  3  2 31 10 27 19               -0.003298455
  -6417195.094 9  -4784168.87248  19942884.505    19942884.2794   19942889.8054
        -0.000          -0.000
  -4240075.843 9  -3285564.72045  23150031.828    23150031.6264   23150037.4074
        -0.000          -0.000
 -19188294.448 9 -14639050.88147  21684432.577    21684432.0104   21684439.2894
        -0.000          -0.000
 -20049745.437 9 -15604979.25048  20602235.322    20602234.9094   20602240.0254
        -0.000          -0.000
 -13374160.490 9 -10395353.61146  22975135.166    22975134.4054   22975142.1134
        -0.000          -0.000
 -24149516.666 9 -18792904.62048  20435827.609    20435827.3414   20435832.6554
        -0.000          -0.000
 -12522106.885 9  -9745701.16949  19600576.398    19600576.2544   19600581.5374
        -0.000          -0.000
 97  3  6 18 10 59.9960000  0  7 18  3  2 31 10 27 19               -0.003308763
  -6365557.216 9  -4743931.59948  19952710.879    19952710.6764   19952716.2014
        -0.000          -0.000
  -4180826.670 9  -3239396.55545  23161306.774    23161306.4214   23161312.0844
        -0.000          -0.000
 -19263199.817 9 -14697418.64147  21670178.469    21670177.8984   21670185.1994
        -0.000          -0.000
 -20043395.584 9 -15600031.30748  20603443.639    20603443.2334   20603448.3544
        -0.000          -0.000
 -13389464.484 9 -10407278.86946  22972222.959    22972222.2824   22972229.9524
        -0.000          -0.000
 -24219951.747 9 -18847789.09148  20422424.192    20422423.9504   20422429.2904
        -0.000          -0.000
 -12534546.085 9  -9755394.05849  19598209.310    19598209.1724   19598214.4604
        -0.000          -0.000
 97  3  6 18 11 29.9960000  0  7 18  3  2 31 10 27 19               -0.003319074
  -6313440.928 9  -4703321.54448  19962628.302    19962628.1204   19962633.6414
        -0.000          -0.000
  -4121220.357 9  -3192950.07245  23172649.522    23172649.2294   23172654.8134
        -0.000          -0.000
 -19337872.152 9 -14755604.82147  21655968.734    21655968.1654   21655975.4774
        -0.000          -0.000
 -20036450.788 9 -15594619.78748  20604765.187    20604764.7984   20604769.8834
        -0.000          -0.000
 -13404293.111 9 -10418833.68946  22969401.241    22969400.5154   22969408.1744
        -0.000          -0.000
 -24290281.372 9 -18902591.38548  20409040.972    20409040.6954   20409046.0404
        -0.000          -0.000
 -12546799.503 9  -9764942.18849  19595877.543    19595877.4064   19595882.6864
        -0.000          -0.000
 97  3  6 18 11 59.9960000  0  7 18  3  2 31 10 27 19               -0.003329390
  -6260855.088 9  -4662345.60348  19972635.088    19972634.8934   19972640.4384
        -0.000          -0.000
  -4061256.566 9  -3146225.03545  23184060.107    23184059.9194   23184065.5034
        -0.000          -0.000
 -19412324.902 9 -14813619.89647  21641800.807    21641800.2444   21641807.5474
        -0.000          -0.000
 -20028916.054 9 -15588748.57048  20606198.972    20606198.6154   20606203.6784
        -0.000          -0.000
 -13418637.518 9 -10430011.22846  22966671.711    22966670.8554   22966678.4854
        -0.000          -0.000
 -24360495.725 9 -18957303.85948  20395679.604    20395679.3254   20395684.6654
        -0.000          -0.000
 -12558871.611 9  -9774349.03349  19593580.299    19593580.1674   19593585.4604
        -0.000          -0.000
 97  3  6 18 12 29.9960000  0  7 18  3  2 31 10 27 19               -0.003339718
  -6207818.679 9  -4621018.57148  19982727.605    19982727.3964   19982732.9544
        -0.000          -0.000
  -4000932.891 9  -3099219.58645  23195539.456    23195539.1924   23195544.8254
        -0.000          -0.000
 -19486549.716 9 -14871457.36547  21627676.264    21627675.7124   21627682.9824
        -0.000          -0.000
 -20020791.772 9 -15582417.96648  20607745.002    20607744.6254   20607749.6624
        -0.000          -0.000
 -13432504.068 9 -10440816.39346  22964033.050    22964032.1314   22964039.7834
        -0.000          -0.000
 -24430592.927 9 -19011925.04748  20382340.537    20382340.2894   20382345.6104
        -0.000          -0.000
 -12570740.573 9  -9783597.58249  19591321.709    19591321.5804   19591326.8704
        -0.000          -0.000
 97  3  6 18 12 59.9960000  0  7 18  3  2 31 10 27 19               -0.003350068
  -6154351.062 9  -4579355.52948  19992902.157    19992901.9724   19992907.5404
        -0.000          -0.000
  -3940255.433 9  -3051938.46345  23207086.017    23207085.7794   23207091.4674
        -0.000          -0.000
 -19560528.046 9 -14929102.75847  21613598.642    21613598.0774   21613605.2974
        -0.000          -0.000
 -20012082.223 9 -15575631.30848  20609402.406    20609402.0084   20609407.0524
        -0.000          -0.000
 -13445903.899 9 -10451257.88446  22961483.136    22961482.2664   22961490.0024
        -0.000          -0.000
 -24500576.889 9 -19066457.99348  20369023.010    20369022.7694   20369028.1044
        -0.000          -0.000
 -12582387.866 9  -9792673.40149  19589105.350    19589105.1854   19589110.4994
        -0.000          -0.000
 97  3  6 18 13 29.9960000  0  7 18  3  2 31 10 27 19               -0.003360439
  -6100475.215 9  -4537374.39048  20003154.416    20003154.2154   20003159.7954
        -0.000          -0.000
  -3879214.709 9  -3004374.27446  23218701.591    23218701.4684   23218707.1514
        -0.000          -0.000
 -19634255.310 9 -14986552.52747  21599568.773    21599568.2104   21599575.4044
        -0.000          -0.000
 -20002772.117 9 -15568376.68448  20611174.042    20611173.6314   20611178.6774
        -0.000          -0.000
 -13458831.127 9 -10461331.12346  22959023.249    22959022.3904   22959030.0574
        -0.000          -0.000
 -24570448.272 9 -19120903.21748  20355726.935    20355726.6744   20355732.0294
        -0.000          -0.000
 -12593800.615 9  -9801566.46449  19586933.568    19586933.4284   19586938.7264
        -0.000          -0.000
 97  3  6 18 13 59.9960000  0  7 18  3  2 31 10 27 19               -0.003370820
  -6046199.627 9  -4495081.76748  20013482.731    20013482.5344   20013488.1224
        -0.000          -0.000
  -3817790.156 9  -2956511.00846  23230390.482    23230390.2264   23230395.8774
        -0.000          -0.000
 -19707725.771 9 -15043802.18348  21585587.744    21585587.2094   21585594.3934
        -0.000          -0.000
 -19992860.233 9 -15560653.14148  20613060.181    20613059.7964   20613064.8534
        -0.000          -0.000
 -13471275.288 9 -10471027.93746  22956655.292    22956654.3994   22956662.0894
        -0.000          -0.000
 -24640209.156 9 -19175262.33748  20342451.861    20342451.6344   20342456.9944
        -0.000          -0.000
 -12604959.989 9  -9810262.08449  19584810.023    19584809.8984   19584815.1754
        -0.000          -0.000
 97  3  6 18 14 29.9960000  0  7 18  3  2 31 10 27 19               -0.003381200
  -5991512.705 9  -4452468.61548  20023889.352    20023889.1404   20023894.7454
        -0.000          -0.000
  -3755975.218 9  -2908343.53546  23242153.451    23242153.2614   23242159.0114
        -0.000          -0.000
 -19780921.128 9 -15100837.47848  21571659.094    21571658.5424   21571665.7534
        -0.000          -0.000
 -19982344.643 9 -15552459.17848  20615061.222    20615060.8704   20615065.9334
        -0.000          -0.000
 -13483238.510 9 -10480349.98146  22954378.668    22954377.8954   22954385.5734
        -0.000          -0.000
 -24709865.775 9 -19229540.20648  20329196.697    20329196.4404   20329201.7954
        -0.000          -0.000
 -12615863.042 9  -9818757.97549  19582735.236    19582735.0954   19582740.3864
        -0.000          -0.000
 97  3  6 18 14 59.9960000  0  7 18  3  2 31 10 27 19               -0.003391571
  -5936411.761 9  -4409532.85148  20034374.742    20034374.5514   20034380.1524
        -0.000          -0.000
  -3693780.922 9  -2859880.46746  23253988.609    23253988.5294   23253994.3254
        -0.000          -0.000
 -19853859.176 9 -15157672.26448  21557779.424    21557778.8604   21557786.0584
        -0.000          -0.000
 -19971237.254 9 -15543804.07048  20617174.884    20617174.5274   20617179.6324
        -0.000          -0.000
 -13494720.527 9 -10489297.08246  22952193.779    22952192.9674   22952200.6544
        -0.000          -0.000
 -24779428.948 9 -19283745.27148  20315959.250    20315958.9744   20315964.3104
        -0.000          -0.000
 -12626540.171 9  -9827077.82249  19580703.450    19580703.3214   19580708.6044
        -0.000          -0.000
 97  3  6 18 15 29.9960000  0  7 18  3  2 31 10 27 19               -0.003401920
  -5880876.519 9  -4366258.67548  20044942.775    20044942.5854   20044948.1804
        -0.000          -0.000
  -3631204.627 9  -2811119.73246  23265896.652    23265896.3854   23265902.1864
        -0.000          -0.000
 -19926536.842 9 -15214304.16248  21543949.271    21543948.7454   21543955.9324
        -0.000          -0.000
 -19959527.918 9 -15534679.91948  20619403.108    20619402.7544   20619407.8364
        -0.000          -0.000
 -13505699.466 9 -10497852.16846  22950104.525    22950103.7034   22950111.5744
        -0.000          -0.000
 -24848892.545 9 -19337872.74548  20302740.721    20302740.4754   20302745.8214
        -0.000          -0.000
 -12636989.079 9  -9835219.83949  19578715.102    19578714.9784   19578720.2674
        -0.000          -0.000
 97  3  6 18 15 59.9960000  0  7 18  3  2 31 10 27 19               -0.003412261
  -5824898.094 9  -4322639.15848  20055595.158    20055594.9714   20055600.5794
        -0.000          -0.000
  -3568270.559 9  -2762080.21346  23277872.581    23277872.2944   23277878.1834
        -0.000          -0.000
 -19998963.826 9 -15270740.72648  21530166.884    21530166.3564   21530173.5024
        -0.000          -0.000
 -19947238.857 9 -15525104.03148  20621741.617    20621741.2664   20621746.3724
        -0.000          -0.000
 -13516184.693 9 -10506022.53446  22948109.341    22948108.4754   22948116.4484
        -0.000          -0.000
 -24918248.573 9 -19391916.38948  20289542.662    20289542.4524   20289547.7904
        -0.000          -0.000
 -12647215.029 9  -9843188.11749  19576769.147    19576769.0254   19576774.3344
        -0.000          -0.000
 97  3  6 18 16 29.9960000  0  7 18  3  2 31 10 27 19               -0.003422611
  -5768472.794 9  -4278671.43148  20066332.578    20066332.3974   20066338.0104
        -0.000          -0.000
  -3504999.658 9  -2712778.22646  23289912.628    23289912.3794   23289918.2934
        -0.000          -0.000
 -20071147.286 9 -15326987.53348  21516430.770    21516430.2254   21516437.3854
        -0.000          -0.000
 -19934365.463 9 -15515072.82148  20624191.389    20624191.0104   20624196.1224
        -0.000          -0.000
 -13526191.184 9 -10513819.86046  22946205.173    22946204.4924   22946212.3224
        -0.000          -0.000
 -24987471.652 9 -19445856.44048  20276369.925    20276369.7414   20276375.0974
        -0.000          -0.000
 -12657234.902 9  -9850995.82149  19574862.434    19574862.3154   19574867.6024
        -0.000          -0.000
 97  3  6 18 16 59.9960000  0  7 18  3  2 31 10 27 19               -0.003432977
  -5711590.870 9  -4234347.89048  20077156.921    20077156.7344   20077162.3354
        -0.000          -0.000
  -3441396.536 9  -2663217.36345  23302015.869    23302015.6104   23302021.5854
        -0.000          -0.000
 -20143086.179 9 -15383043.75448  21502741.193    21502740.6534   21502747.8124
        -0.000          -0.000
 -19920887.051 9 -15504570.16048  20626756.292    20626755.9244   20626761.0264
        -0.000          -0.000
 -13535708.429 9 -10521235.96846  22944394.142    22944393.4974   22944401.4164
        -0.000          -0.000
 -25056534.589 9 -19499671.70548  20263227.705    20263227.5294   20263232.8734
        -0.000          -0.000
 -12667026.797 9  -9858625.87549  19572999.090    19572998.9754   19573004.2734
        -0.000          -0.000
